<?xml version="1.0" encoding="UTF-8" standalone="no" ?>
<gpx xmlns="http://www.topografix.com/GPX/1/1" xmlns:xsi="http://www.w3.org/2001/XMLSchema-instance" xsi:schemaLocation="http://www.topografix.com/GPX/1/1 http://www.topografix.com/GPX/1/1/gpx.xsd" version="1.1" creator="VisuGPX - https://www.visugpx.com">
  <metadata>
    <name>La traversée de Paris de Bourvil et Gabin</name>
    <desc><![CDATA[Randonnée de 13 km en ligne à partir de la station de métro Saint-Marcel]]></desc>
  </metadata>
  <trk>
    <name><![CDATA["La traversée de Paris" de Bourvil et Gabin li 13km]]></name>
    <trkseg>
      <trkpt lat="48.83844" lon="2.3609">
        <ele>57.4</ele>
        <time>2026-01-22T08:48:41Z</time>
      </trkpt>
      <trkpt lat="48.83851" lon="2.36076">
        <ele>57.4</ele>
        <time>2026-01-22T08:48:41Z</time>
      </trkpt>
      <trkpt lat="48.83852" lon="2.36086">
        <ele>70.9</ele>
        <time>2026-01-22T08:48:42Z</time>
      </trkpt>
      <trkpt lat="48.83849" lon="2.3609">
        <ele>75.8</ele>
        <time>2026-01-22T08:48:50Z</time>
      </trkpt>
      <trkpt lat="48.83844" lon="2.36092">
        <ele>79.3</ele>
        <time>2026-01-22T08:48:53Z</time>
      </trkpt>
      <trkpt lat="48.83846" lon="2.36085">
        <ele>61.2</ele>
        <time>2026-01-22T08:49:50Z</time>
      </trkpt>
      <trkpt lat="48.83845" lon="2.36102">
        <ele>54.7</ele>
        <time>2026-01-22T08:53:21Z</time>
      </trkpt>
      <trkpt lat="48.83848" lon="2.36095">
        <ele>48.1</ele>
        <time>2026-01-22T08:55:09Z</time>
      </trkpt>
      <trkpt lat="48.83852" lon="2.36093">
        <ele>42.8</ele>
        <time>2026-01-22T09:00:47Z</time>
      </trkpt>
      <trkpt lat="48.83857" lon="2.36092">
        <ele>45</ele>
        <time>2026-01-22T09:01:42Z</time>
      </trkpt>
      <trkpt lat="48.83859" lon="2.36085">
        <ele>47.2</ele>
        <time>2026-01-22T09:01:49Z</time>
      </trkpt>
      <trkpt lat="48.8386" lon="2.36077">
        <ele>46.9</ele>
        <time>2026-01-22T09:01:54Z</time>
      </trkpt>
      <trkpt lat="48.83862" lon="2.3607">
        <ele>46.8</ele>
        <time>2026-01-22T09:01:59Z</time>
      </trkpt>
      <trkpt lat="48.83865" lon="2.36063">
        <ele>45.3</ele>
        <time>2026-01-22T09:02:43Z</time>
      </trkpt>
      <trkpt lat="48.83871" lon="2.36063">
        <ele>42.8</ele>
        <time>2026-01-22T09:02:52Z</time>
      </trkpt>
      <trkpt lat="48.83876" lon="2.36064">
        <ele>42.5</ele>
        <time>2026-01-22T09:02:57Z</time>
      </trkpt>
      <trkpt lat="48.8388" lon="2.36067">
        <ele>42.2</ele>
        <time>2026-01-22T09:03:05Z</time>
      </trkpt>
      <trkpt lat="48.83885" lon="2.36069">
        <ele>41.9</ele>
        <time>2026-01-22T09:03:11Z</time>
      </trkpt>
      <trkpt lat="48.8389" lon="2.36074">
        <ele>41.5</ele>
        <time>2026-01-22T09:03:21Z</time>
      </trkpt>
      <trkpt lat="48.83895" lon="2.36076">
        <ele>41.5</ele>
        <time>2026-01-22T09:03:25Z</time>
      </trkpt>
      <trkpt lat="48.839" lon="2.3608">
        <ele>41.7</ele>
        <time>2026-01-22T09:03:30Z</time>
      </trkpt>
      <trkpt lat="48.83904" lon="2.36082">
        <ele>42.3</ele>
        <time>2026-01-22T09:03:35Z</time>
      </trkpt>
      <trkpt lat="48.83908" lon="2.36087">
        <ele>40.8</ele>
        <time>2026-01-22T09:03:47Z</time>
      </trkpt>
      <trkpt lat="48.83912" lon="2.36089">
        <ele>40.5</ele>
        <time>2026-01-22T09:03:52Z</time>
      </trkpt>
      <trkpt lat="48.83917" lon="2.36092">
        <ele>40</ele>
        <time>2026-01-22T09:03:59Z</time>
      </trkpt>
      <trkpt lat="48.83921" lon="2.36096">
        <ele>39.1</ele>
        <time>2026-01-22T09:04:06Z</time>
      </trkpt>
      <trkpt lat="48.83925" lon="2.361">
        <ele>38.1</ele>
        <time>2026-01-22T09:04:11Z</time>
      </trkpt>
      <trkpt lat="48.8393" lon="2.36103">
        <ele>37.1</ele>
        <time>2026-01-22T09:04:17Z</time>
      </trkpt>
      <trkpt lat="48.83935" lon="2.36102">
        <ele>36.2</ele>
        <time>2026-01-22T09:04:25Z</time>
      </trkpt>
      <trkpt lat="48.8394" lon="2.36103">
        <ele>35.9</ele>
        <time>2026-01-22T09:04:30Z</time>
      </trkpt>
      <trkpt lat="48.83944" lon="2.36107">
        <ele>35.5</ele>
        <time>2026-01-22T09:04:35Z</time>
      </trkpt>
      <trkpt lat="48.83948" lon="2.3611">
        <ele>34.8</ele>
        <time>2026-01-22T09:04:41Z</time>
      </trkpt>
      <trkpt lat="48.83952" lon="2.36114">
        <ele>34.1</ele>
        <time>2026-01-22T09:04:47Z</time>
      </trkpt>
      <trkpt lat="48.83955" lon="2.3612">
        <ele>33.6</ele>
        <time>2026-01-22T09:04:51Z</time>
      </trkpt>
      <trkpt lat="48.83959" lon="2.36125">
        <ele>33.1</ele>
        <time>2026-01-22T09:04:54Z</time>
      </trkpt>
      <trkpt lat="48.83963" lon="2.36128">
        <ele>32.2</ele>
        <time>2026-01-22T09:04:59Z</time>
      </trkpt>
      <trkpt lat="48.83968" lon="2.36132">
        <ele>31.5</ele>
        <time>2026-01-22T09:05:04Z</time>
      </trkpt>
      <trkpt lat="48.83971" lon="2.36137">
        <ele>30.3</ele>
        <time>2026-01-22T09:05:10Z</time>
      </trkpt>
      <trkpt lat="48.83976" lon="2.36138">
        <ele>30.8</ele>
        <time>2026-01-22T09:05:19Z</time>
      </trkpt>
      <trkpt lat="48.83982" lon="2.36135">
        <ele>31.6</ele>
        <time>2026-01-22T09:05:26Z</time>
      </trkpt>
      <trkpt lat="48.83986" lon="2.36131">
        <ele>32.1</ele>
        <time>2026-01-22T09:05:30Z</time>
      </trkpt>
      <trkpt lat="48.83995" lon="2.36123">
        <ele>33.1</ele>
        <time>2026-01-22T09:06:26Z</time>
      </trkpt>
      <trkpt lat="48.84" lon="2.36126">
        <ele>33.5</ele>
        <time>2026-01-22T09:06:32Z</time>
      </trkpt>
      <trkpt lat="48.84003" lon="2.36131">
        <ele>32.2</ele>
        <time>2026-01-22T09:06:39Z</time>
      </trkpt>
      <trkpt lat="48.84004" lon="2.36138">
        <ele>31.6</ele>
        <time>2026-01-22T09:06:45Z</time>
      </trkpt>
      <trkpt lat="48.84007" lon="2.36146">
        <ele>31.4</ele>
        <time>2026-01-22T09:06:49Z</time>
      </trkpt>
      <trkpt lat="48.84009" lon="2.36153">
        <ele>30.5</ele>
        <time>2026-01-22T09:06:55Z</time>
      </trkpt>
      <trkpt lat="48.84013" lon="2.36156">
        <ele>28.2</ele>
        <time>2026-01-22T09:07:07Z</time>
      </trkpt>
      <trkpt lat="48.84018" lon="2.3616">
        <ele>27.3</ele>
        <time>2026-01-22T09:07:13Z</time>
      </trkpt>
      <trkpt lat="48.84022" lon="2.36164">
        <ele>26.9</ele>
        <time>2026-01-22T09:07:17Z</time>
      </trkpt>
      <trkpt lat="48.84027" lon="2.36164">
        <ele>26.2</ele>
        <time>2026-01-22T09:07:22Z</time>
      </trkpt>
      <trkpt lat="48.84032" lon="2.36163">
        <ele>26.1</ele>
        <time>2026-01-22T09:07:35Z</time>
      </trkpt>
      <trkpt lat="48.84037" lon="2.3616">
        <ele>27.1</ele>
        <time>2026-01-22T09:07:42Z</time>
      </trkpt>
      <trkpt lat="48.8404" lon="2.36155">
        <ele>27.3</ele>
        <time>2026-01-22T09:07:50Z</time>
      </trkpt>
      <trkpt lat="48.84039" lon="2.36147">
        <ele>27.4</ele>
        <time>2026-01-22T09:07:55Z</time>
      </trkpt>
      <trkpt lat="48.84039" lon="2.3614">
        <ele>27.3</ele>
        <time>2026-01-22T09:08:01Z</time>
      </trkpt>
      <trkpt lat="48.84042" lon="2.36134">
        <ele>27.7</ele>
        <time>2026-01-22T09:08:05Z</time>
      </trkpt>
      <trkpt lat="48.8404" lon="2.36125">
        <ele>27.9</ele>
        <time>2026-01-22T09:08:10Z</time>
      </trkpt>
      <trkpt lat="48.8404" lon="2.36118">
        <ele>28</ele>
        <time>2026-01-22T09:08:14Z</time>
      </trkpt>
      <trkpt lat="48.84041" lon="2.36111">
        <ele>28.1</ele>
        <time>2026-01-22T09:08:18Z</time>
      </trkpt>
      <trkpt lat="48.84043" lon="2.36103">
        <ele>28.4</ele>
        <time>2026-01-22T09:08:24Z</time>
      </trkpt>
      <trkpt lat="48.84045" lon="2.36097">
        <ele>28.3</ele>
        <time>2026-01-22T09:08:30Z</time>
      </trkpt>
      <trkpt lat="48.84044" lon="2.36089">
        <ele>27.8</ele>
        <time>2026-01-22T09:08:35Z</time>
      </trkpt>
      <trkpt lat="48.84042" lon="2.36081">
        <ele>27.7</ele>
        <time>2026-01-22T09:08:39Z</time>
      </trkpt>
      <trkpt lat="48.84042" lon="2.36073">
        <ele>27.4</ele>
        <time>2026-01-22T09:08:43Z</time>
      </trkpt>
      <trkpt lat="48.84042" lon="2.36065">
        <ele>27.1</ele>
        <time>2026-01-22T09:08:48Z</time>
      </trkpt>
      <trkpt lat="48.84042" lon="2.36057">
        <ele>27.2</ele>
        <time>2026-01-22T09:08:53Z</time>
      </trkpt>
      <trkpt lat="48.84041" lon="2.3605">
        <ele>27.6</ele>
        <time>2026-01-22T09:08:57Z</time>
      </trkpt>
      <trkpt lat="48.84041" lon="2.36043">
        <ele>28.4</ele>
        <time>2026-01-22T09:09:02Z</time>
      </trkpt>
      <trkpt lat="48.8404" lon="2.36035">
        <ele>27.9</ele>
        <time>2026-01-22T09:09:09Z</time>
      </trkpt>
      <trkpt lat="48.8404" lon="2.36028">
        <ele>27.4</ele>
        <time>2026-01-22T09:09:16Z</time>
      </trkpt>
      <trkpt lat="48.84039" lon="2.36014">
        <ele>27.7</ele>
        <time>2026-01-22T09:09:48Z</time>
      </trkpt>
      <trkpt lat="48.84036" lon="2.36003">
        <ele>37.9</ele>
        <time>2026-01-22T09:10:07Z</time>
      </trkpt>
      <trkpt lat="48.84035" lon="2.35995">
        <ele>38.8</ele>
        <time>2026-01-22T09:10:09Z</time>
      </trkpt>
      <trkpt lat="48.84034" lon="2.35987">
        <ele>39.1</ele>
        <time>2026-01-22T09:10:14Z</time>
      </trkpt>
      <trkpt lat="48.84034" lon="2.3598">
        <ele>39.5</ele>
        <time>2026-01-22T09:10:19Z</time>
      </trkpt>
      <trkpt lat="48.84035" lon="2.35973">
        <ele>39.5</ele>
        <time>2026-01-22T09:10:25Z</time>
      </trkpt>
      <trkpt lat="48.84037" lon="2.35967">
        <ele>38.9</ele>
        <time>2026-01-22T09:10:32Z</time>
      </trkpt>
      <trkpt lat="48.8404" lon="2.35961">
        <ele>38.8</ele>
        <time>2026-01-22T09:10:36Z</time>
      </trkpt>
      <trkpt lat="48.84042" lon="2.35953">
        <ele>38.8</ele>
        <time>2026-01-22T09:10:40Z</time>
      </trkpt>
      <trkpt lat="48.84043" lon="2.35944">
        <ele>38.7</ele>
        <time>2026-01-22T09:10:43Z</time>
      </trkpt>
      <trkpt lat="48.84042" lon="2.35937">
        <ele>38.1</ele>
        <time>2026-01-22T09:10:47Z</time>
      </trkpt>
      <trkpt lat="48.84041" lon="2.35929">
        <ele>38.1</ele>
        <time>2026-01-22T09:10:51Z</time>
      </trkpt>
      <trkpt lat="48.84039" lon="2.35921">
        <ele>38.4</ele>
        <time>2026-01-22T09:10:55Z</time>
      </trkpt>
      <trkpt lat="48.84037" lon="2.35914">
        <ele>38.6</ele>
        <time>2026-01-22T09:10:59Z</time>
      </trkpt>
      <trkpt lat="48.84036" lon="2.35907">
        <ele>38</ele>
        <time>2026-01-22T09:11:04Z</time>
      </trkpt>
      <trkpt lat="48.84033" lon="2.35902">
        <ele>37.4</ele>
        <time>2026-01-22T09:11:08Z</time>
      </trkpt>
      <trkpt lat="48.84028" lon="2.35896">
        <ele>36.4</ele>
        <time>2026-01-22T09:11:12Z</time>
      </trkpt>
      <trkpt lat="48.84021" lon="2.35891">
        <ele>34.8</ele>
        <time>2026-01-22T09:11:16Z</time>
      </trkpt>
      <trkpt lat="48.84018" lon="2.35886">
        <ele>33.1</ele>
        <time>2026-01-22T09:11:21Z</time>
      </trkpt>
      <trkpt lat="48.84014" lon="2.35881">
        <ele>32</ele>
        <time>2026-01-22T09:11:24Z</time>
      </trkpt>
      <trkpt lat="48.84012" lon="2.35874">
        <ele>31.2</ele>
        <time>2026-01-22T09:11:28Z</time>
      </trkpt>
      <trkpt lat="48.84011" lon="2.35868">
        <ele>30.6</ele>
        <time>2026-01-22T09:11:33Z</time>
      </trkpt>
      <trkpt lat="48.8401" lon="2.35861">
        <ele>31.3</ele>
        <time>2026-01-22T09:11:39Z</time>
      </trkpt>
      <trkpt lat="48.84012" lon="2.35854">
        <ele>31.5</ele>
        <time>2026-01-22T09:11:45Z</time>
      </trkpt>
      <trkpt lat="48.84005" lon="2.3584">
        <ele>31.2</ele>
        <time>2026-01-22T09:12:03Z</time>
      </trkpt>
      <trkpt lat="48.84" lon="2.35832">
        <ele>27.6</ele>
        <time>2026-01-22T09:12:10Z</time>
      </trkpt>
      <trkpt lat="48.83997" lon="2.35826">
        <ele>26.7</ele>
        <time>2026-01-22T09:12:13Z</time>
      </trkpt>
      <trkpt lat="48.83994" lon="2.35818">
        <ele>26.5</ele>
        <time>2026-01-22T09:12:17Z</time>
      </trkpt>
      <trkpt lat="48.83994" lon="2.3581">
        <ele>26.8</ele>
        <time>2026-01-22T09:12:22Z</time>
      </trkpt>
      <trkpt lat="48.83995" lon="2.35803">
        <ele>27.2</ele>
        <time>2026-01-22T09:12:27Z</time>
      </trkpt>
      <trkpt lat="48.83995" lon="2.35796">
        <ele>28.2</ele>
        <time>2026-01-22T09:12:32Z</time>
      </trkpt>
      <trkpt lat="48.83992" lon="2.35789">
        <ele>29</ele>
        <time>2026-01-22T09:12:43Z</time>
      </trkpt>
      <trkpt lat="48.83991" lon="2.35782">
        <ele>29.3</ele>
        <time>2026-01-22T09:12:50Z</time>
      </trkpt>
      <trkpt lat="48.83992" lon="2.35773">
        <ele>29.2</ele>
        <time>2026-01-22T09:12:57Z</time>
      </trkpt>
      <trkpt lat="48.83991" lon="2.35766">
        <ele>28.9</ele>
        <time>2026-01-22T09:13:03Z</time>
      </trkpt>
      <trkpt lat="48.83992" lon="2.35757">
        <ele>28.1</ele>
        <time>2026-01-22T09:13:08Z</time>
      </trkpt>
      <trkpt lat="48.8399" lon="2.35749">
        <ele>27.2</ele>
        <time>2026-01-22T09:13:13Z</time>
      </trkpt>
      <trkpt lat="48.83989" lon="2.35741">
        <ele>27.1</ele>
        <time>2026-01-22T09:13:17Z</time>
      </trkpt>
      <trkpt lat="48.83988" lon="2.35733">
        <ele>26.9</ele>
        <time>2026-01-22T09:13:21Z</time>
      </trkpt>
      <trkpt lat="48.83988" lon="2.35724">
        <ele>26.4</ele>
        <time>2026-01-22T09:13:25Z</time>
      </trkpt>
      <trkpt lat="48.83989" lon="2.35717">
        <ele>26.2</ele>
        <time>2026-01-22T09:13:28Z</time>
      </trkpt>
      <trkpt lat="48.83988" lon="2.35709">
        <ele>26.5</ele>
        <time>2026-01-22T09:13:32Z</time>
      </trkpt>
      <trkpt lat="48.83988" lon="2.35702">
        <ele>25.4</ele>
        <time>2026-01-22T09:13:36Z</time>
      </trkpt>
      <trkpt lat="48.83987" lon="2.35694">
        <ele>24.5</ele>
        <time>2026-01-22T09:13:41Z</time>
      </trkpt>
      <trkpt lat="48.83986" lon="2.35687">
        <ele>23.6</ele>
        <time>2026-01-22T09:13:46Z</time>
      </trkpt>
      <trkpt lat="48.83985" lon="2.35679">
        <ele>23.4</ele>
        <time>2026-01-22T09:13:52Z</time>
      </trkpt>
      <trkpt lat="48.83983" lon="2.35673">
        <ele>24.1</ele>
        <time>2026-01-22T09:13:58Z</time>
      </trkpt>
      <trkpt lat="48.83978" lon="2.35671">
        <ele>25.7</ele>
        <time>2026-01-22T09:14:03Z</time>
      </trkpt>
      <trkpt lat="48.83976" lon="2.35662">
        <ele>29.7</ele>
        <time>2026-01-22T09:15:28Z</time>
      </trkpt>
      <trkpt lat="48.83978" lon="2.35656">
        <ele>35.1</ele>
        <time>2026-01-22T09:15:36Z</time>
      </trkpt>
      <trkpt lat="48.83982" lon="2.35652">
        <ele>35.1</ele>
        <time>2026-01-22T09:15:49Z</time>
      </trkpt>
      <trkpt lat="48.83988" lon="2.35644">
        <ele>35.2</ele>
        <time>2026-01-22T09:15:55Z</time>
      </trkpt>
      <trkpt lat="48.83993" lon="2.35641">
        <ele>34.9</ele>
        <time>2026-01-22T09:15:58Z</time>
      </trkpt>
      <trkpt lat="48.83994" lon="2.35632">
        <ele>36.5</ele>
        <time>2026-01-22T09:16:07Z</time>
      </trkpt>
      <trkpt lat="48.83996" lon="2.35624">
        <ele>38.4</ele>
        <time>2026-01-22T09:16:10Z</time>
      </trkpt>
      <trkpt lat="48.83999" lon="2.35618">
        <ele>39.5</ele>
        <time>2026-01-22T09:16:13Z</time>
      </trkpt>
      <trkpt lat="48.84004" lon="2.35613">
        <ele>40</ele>
        <time>2026-01-22T09:16:17Z</time>
      </trkpt>
      <trkpt lat="48.84008" lon="2.3561">
        <ele>40</ele>
        <time>2026-01-22T09:16:20Z</time>
      </trkpt>
      <trkpt lat="48.84013" lon="2.35609">
        <ele>40</ele>
        <time>2026-01-22T09:16:24Z</time>
      </trkpt>
      <trkpt lat="48.84016" lon="2.35604">
        <ele>39.6</ele>
        <time>2026-01-22T09:16:29Z</time>
      </trkpt>
      <trkpt lat="48.84021" lon="2.35606">
        <ele>38.5</ele>
        <time>2026-01-22T09:16:36Z</time>
      </trkpt>
      <trkpt lat="48.84025" lon="2.35611">
        <ele>38.6</ele>
        <time>2026-01-22T09:16:41Z</time>
      </trkpt>
      <trkpt lat="48.84029" lon="2.35613">
        <ele>39.1</ele>
        <time>2026-01-22T09:16:45Z</time>
      </trkpt>
      <trkpt lat="48.84038" lon="2.3561">
        <ele>32.3</ele>
        <time>2026-01-22T09:18:08Z</time>
      </trkpt>
      <trkpt lat="48.84043" lon="2.35606">
        <ele>32.3</ele>
        <time>2026-01-22T09:18:11Z</time>
      </trkpt>
      <trkpt lat="48.84048" lon="2.35602">
        <ele>31.5</ele>
        <time>2026-01-22T09:18:15Z</time>
      </trkpt>
      <trkpt lat="48.84052" lon="2.35598">
        <ele>31</ele>
        <time>2026-01-22T09:18:19Z</time>
      </trkpt>
      <trkpt lat="48.84058" lon="2.35594">
        <ele>30.6</ele>
        <time>2026-01-22T09:18:24Z</time>
      </trkpt>
      <trkpt lat="48.84063" lon="2.35592">
        <ele>30.3</ele>
        <time>2026-01-22T09:18:29Z</time>
      </trkpt>
      <trkpt lat="48.84068" lon="2.35591">
        <ele>30.9</ele>
        <time>2026-01-22T09:18:33Z</time>
      </trkpt>
      <trkpt lat="48.84072" lon="2.35588">
        <ele>31.2</ele>
        <time>2026-01-22T09:18:40Z</time>
      </trkpt>
      <trkpt lat="48.84078" lon="2.35586">
        <ele>31.4</ele>
        <time>2026-01-22T09:18:45Z</time>
      </trkpt>
      <trkpt lat="48.84082" lon="2.35584">
        <ele>31.8</ele>
        <time>2026-01-22T09:18:49Z</time>
      </trkpt>
      <trkpt lat="48.84087" lon="2.35582">
        <ele>31.9</ele>
        <time>2026-01-22T09:18:56Z</time>
      </trkpt>
      <trkpt lat="48.84091" lon="2.35584">
        <ele>32.2</ele>
        <time>2026-01-22T09:19:01Z</time>
      </trkpt>
      <trkpt lat="48.84096" lon="2.35585">
        <ele>32.4</ele>
        <time>2026-01-22T09:19:05Z</time>
      </trkpt>
      <trkpt lat="48.84103" lon="2.3559">
        <ele>32.5</ele>
        <time>2026-01-22T09:19:09Z</time>
      </trkpt>
      <trkpt lat="48.84108" lon="2.35598">
        <ele>32.8</ele>
        <time>2026-01-22T09:19:12Z</time>
      </trkpt>
      <trkpt lat="48.84113" lon="2.35604">
        <ele>32.8</ele>
        <time>2026-01-22T09:19:15Z</time>
      </trkpt>
      <trkpt lat="48.84117" lon="2.35607">
        <ele>33</ele>
        <time>2026-01-22T09:19:20Z</time>
      </trkpt>
      <trkpt lat="48.84122" lon="2.35608">
        <ele>33.1</ele>
        <time>2026-01-22T09:19:27Z</time>
      </trkpt>
      <trkpt lat="48.84126" lon="2.35611">
        <ele>31.7</ele>
        <time>2026-01-22T09:19:41Z</time>
      </trkpt>
      <trkpt lat="48.8413" lon="2.35607">
        <ele>31.5</ele>
        <time>2026-01-22T09:19:48Z</time>
      </trkpt>
      <trkpt lat="48.84135" lon="2.35605">
        <ele>31.6</ele>
        <time>2026-01-22T09:19:52Z</time>
      </trkpt>
      <trkpt lat="48.8414" lon="2.35607">
        <ele>32.7</ele>
        <time>2026-01-22T09:20:03Z</time>
      </trkpt>
      <trkpt lat="48.8415" lon="2.35612">
        <ele>32.9</ele>
        <time>2026-01-22T09:20:17Z</time>
      </trkpt>
      <trkpt lat="48.84162" lon="2.3561">
        <ele>36.3</ele>
        <time>2026-01-22T09:20:44Z</time>
      </trkpt>
      <trkpt lat="48.84166" lon="2.35609">
        <ele>44.2</ele>
        <time>2026-01-22T09:21:02Z</time>
      </trkpt>
      <trkpt lat="48.84162" lon="2.35615">
        <ele>42.2</ele>
        <time>2026-01-22T09:21:17Z</time>
      </trkpt>
      <trkpt lat="48.84163" lon="2.35623">
        <ele>37.2</ele>
        <time>2026-01-22T09:21:22Z</time>
      </trkpt>
      <trkpt lat="48.84164" lon="2.35631">
        <ele>34.2</ele>
        <time>2026-01-22T09:21:27Z</time>
      </trkpt>
      <trkpt lat="48.84165" lon="2.35638">
        <ele>30.8</ele>
        <time>2026-01-22T09:21:33Z</time>
      </trkpt>
      <trkpt lat="48.8417" lon="2.35641">
        <ele>28.4</ele>
        <time>2026-01-22T09:21:43Z</time>
      </trkpt>
      <trkpt lat="48.84174" lon="2.35646">
        <ele>28.2</ele>
        <time>2026-01-22T09:22:06Z</time>
      </trkpt>
      <trkpt lat="48.84177" lon="2.35652">
        <ele>27.4</ele>
        <time>2026-01-22T09:22:11Z</time>
      </trkpt>
      <trkpt lat="48.84179" lon="2.35658">
        <ele>27.6</ele>
        <time>2026-01-22T09:22:15Z</time>
      </trkpt>
      <trkpt lat="48.84182" lon="2.35667">
        <ele>30.3</ele>
        <time>2026-01-22T09:22:20Z</time>
      </trkpt>
      <trkpt lat="48.84183" lon="2.35677">
        <ele>31.2</ele>
        <time>2026-01-22T09:22:53Z</time>
      </trkpt>
      <trkpt lat="48.84184" lon="2.35684">
        <ele>29.2</ele>
        <time>2026-01-22T09:22:59Z</time>
      </trkpt>
      <trkpt lat="48.84186" lon="2.35691">
        <ele>28.9</ele>
        <time>2026-01-22T09:23:08Z</time>
      </trkpt>
      <trkpt lat="48.84189" lon="2.35697">
        <ele>28.7</ele>
        <time>2026-01-22T09:23:16Z</time>
      </trkpt>
      <trkpt lat="48.84194" lon="2.35698">
        <ele>29.3</ele>
        <time>2026-01-22T09:23:20Z</time>
      </trkpt>
      <trkpt lat="48.84197" lon="2.35704">
        <ele>33.3</ele>
        <time>2026-01-22T09:23:57Z</time>
      </trkpt>
      <trkpt lat="48.84201" lon="2.35706">
        <ele>32.4</ele>
        <time>2026-01-22T09:24:04Z</time>
      </trkpt>
      <trkpt lat="48.84206" lon="2.35709">
        <ele>31.8</ele>
        <time>2026-01-22T09:24:14Z</time>
      </trkpt>
      <trkpt lat="48.84211" lon="2.35708">
        <ele>31.4</ele>
        <time>2026-01-22T09:24:25Z</time>
      </trkpt>
      <trkpt lat="48.84216" lon="2.35712">
        <ele>31.4</ele>
        <time>2026-01-22T09:24:35Z</time>
      </trkpt>
      <trkpt lat="48.84219" lon="2.35717">
        <ele>31.5</ele>
        <time>2026-01-22T09:24:40Z</time>
      </trkpt>
      <trkpt lat="48.84223" lon="2.35721">
        <ele>31</ele>
        <time>2026-01-22T09:24:45Z</time>
      </trkpt>
      <trkpt lat="48.84228" lon="2.35712">
        <ele>32.4</ele>
        <time>2026-01-22T09:25:10Z</time>
      </trkpt>
      <trkpt lat="48.84225" lon="2.35706">
        <ele>30.1</ele>
        <time>2026-01-22T09:25:51Z</time>
      </trkpt>
      <trkpt lat="48.8423" lon="2.35714">
        <ele>31.8</ele>
        <time>2026-01-22T09:26:05Z</time>
      </trkpt>
      <trkpt lat="48.84233" lon="2.3572">
        <ele>34.5</ele>
        <time>2026-01-22T09:26:08Z</time>
      </trkpt>
      <trkpt lat="48.84237" lon="2.35725">
        <ele>27.7</ele>
        <time>2026-01-22T09:26:41Z</time>
      </trkpt>
      <trkpt lat="48.8424" lon="2.35731">
        <ele>28.1</ele>
        <time>2026-01-22T09:26:47Z</time>
      </trkpt>
      <trkpt lat="48.84242" lon="2.35737">
        <ele>28.3</ele>
        <time>2026-01-22T09:26:54Z</time>
      </trkpt>
      <trkpt lat="48.84243" lon="2.35745">
        <ele>28</ele>
        <time>2026-01-22T09:27:01Z</time>
      </trkpt>
      <trkpt lat="48.84244" lon="2.35752">
        <ele>28.2</ele>
        <time>2026-01-22T09:27:06Z</time>
      </trkpt>
      <trkpt lat="48.84246" lon="2.35759">
        <ele>28.7</ele>
        <time>2026-01-22T09:27:15Z</time>
      </trkpt>
      <trkpt lat="48.84247" lon="2.35766">
        <ele>30.2</ele>
        <time>2026-01-22T09:27:20Z</time>
      </trkpt>
      <trkpt lat="48.84249" lon="2.35773">
        <ele>31.6</ele>
        <time>2026-01-22T09:27:26Z</time>
      </trkpt>
      <trkpt lat="48.84251" lon="2.3578">
        <ele>30.8</ele>
        <time>2026-01-22T09:27:35Z</time>
      </trkpt>
      <trkpt lat="48.84252" lon="2.35787">
        <ele>29.6</ele>
        <time>2026-01-22T09:27:42Z</time>
      </trkpt>
      <trkpt lat="48.84254" lon="2.35793">
        <ele>29.3</ele>
        <time>2026-01-22T09:27:47Z</time>
      </trkpt>
      <trkpt lat="48.84256" lon="2.358">
        <ele>28.9</ele>
        <time>2026-01-22T09:27:52Z</time>
      </trkpt>
      <trkpt lat="48.84258" lon="2.35807">
        <ele>27.4</ele>
        <time>2026-01-22T09:27:59Z</time>
      </trkpt>
      <trkpt lat="48.84254" lon="2.35812">
        <ele>26</ele>
        <time>2026-01-22T09:28:07Z</time>
      </trkpt>
      <trkpt lat="48.8425" lon="2.35816">
        <ele>25.3</ele>
        <time>2026-01-22T09:28:10Z</time>
      </trkpt>
      <trkpt lat="48.84245" lon="2.3582">
        <ele>25.5</ele>
        <time>2026-01-22T09:28:14Z</time>
      </trkpt>
      <trkpt lat="48.84242" lon="2.35826">
        <ele>25.7</ele>
        <time>2026-01-22T09:28:19Z</time>
      </trkpt>
      <trkpt lat="48.8424" lon="2.35832">
        <ele>25</ele>
        <time>2026-01-22T09:28:25Z</time>
      </trkpt>
      <trkpt lat="48.84241" lon="2.3584">
        <ele>24.1</ele>
        <time>2026-01-22T09:28:31Z</time>
      </trkpt>
      <trkpt lat="48.84243" lon="2.35848">
        <ele>22.8</ele>
        <time>2026-01-22T09:28:37Z</time>
      </trkpt>
      <trkpt lat="48.84244" lon="2.35854">
        <ele>23.4</ele>
        <time>2026-01-22T09:28:41Z</time>
      </trkpt>
      <trkpt lat="48.84246" lon="2.35861">
        <ele>24.9</ele>
        <time>2026-01-22T09:28:46Z</time>
      </trkpt>
      <trkpt lat="48.84248" lon="2.35868">
        <ele>24.7</ele>
        <time>2026-01-22T09:28:51Z</time>
      </trkpt>
      <trkpt lat="48.84249" lon="2.35874">
        <ele>24.4</ele>
        <time>2026-01-22T09:28:56Z</time>
      </trkpt>
      <trkpt lat="48.84252" lon="2.35882">
        <ele>24.5</ele>
        <time>2026-01-22T09:29:01Z</time>
      </trkpt>
      <trkpt lat="48.84253" lon="2.35889">
        <ele>25.2</ele>
        <time>2026-01-22T09:29:06Z</time>
      </trkpt>
      <trkpt lat="48.84255" lon="2.35896">
        <ele>24.9</ele>
        <time>2026-01-22T09:29:11Z</time>
      </trkpt>
      <trkpt lat="48.84257" lon="2.35903">
        <ele>24.3</ele>
        <time>2026-01-22T09:29:16Z</time>
      </trkpt>
      <trkpt lat="48.84258" lon="2.35909">
        <ele>24.2</ele>
        <time>2026-01-22T09:29:22Z</time>
      </trkpt>
      <trkpt lat="48.8426" lon="2.35917">
        <ele>23.3</ele>
        <time>2026-01-22T09:29:28Z</time>
      </trkpt>
      <trkpt lat="48.84262" lon="2.35923">
        <ele>21.7</ele>
        <time>2026-01-22T09:29:34Z</time>
      </trkpt>
      <trkpt lat="48.84263" lon="2.35936">
        <ele>21.8</ele>
        <time>2026-01-22T09:29:53Z</time>
      </trkpt>
      <trkpt lat="48.84264" lon="2.35943">
        <ele>22.8</ele>
        <time>2026-01-22T09:29:57Z</time>
      </trkpt>
      <trkpt lat="48.84271" lon="2.35955">
        <ele>23.4</ele>
        <time>2026-01-22T09:30:13Z</time>
      </trkpt>
      <trkpt lat="48.84273" lon="2.35963">
        <ele>23.4</ele>
        <time>2026-01-22T09:30:19Z</time>
      </trkpt>
      <trkpt lat="48.84277" lon="2.35968">
        <ele>25.4</ele>
        <time>2026-01-22T09:30:26Z</time>
      </trkpt>
      <trkpt lat="48.84282" lon="2.35966">
        <ele>26.6</ele>
        <time>2026-01-22T09:30:31Z</time>
      </trkpt>
      <trkpt lat="48.84287" lon="2.35964">
        <ele>27.3</ele>
        <time>2026-01-22T09:30:35Z</time>
      </trkpt>
      <trkpt lat="48.84291" lon="2.3596">
        <ele>27.5</ele>
        <time>2026-01-22T09:30:40Z</time>
      </trkpt>
      <trkpt lat="48.84294" lon="2.35956">
        <ele>27.2</ele>
        <time>2026-01-22T09:30:45Z</time>
      </trkpt>
      <trkpt lat="48.84299" lon="2.35955">
        <ele>27.2</ele>
        <time>2026-01-22T09:30:50Z</time>
      </trkpt>
      <trkpt lat="48.84304" lon="2.35952">
        <ele>26.3</ele>
        <time>2026-01-22T09:30:57Z</time>
      </trkpt>
      <trkpt lat="48.84308" lon="2.35948">
        <ele>25.5</ele>
        <time>2026-01-22T09:31:01Z</time>
      </trkpt>
      <trkpt lat="48.84312" lon="2.35945">
        <ele>25.3</ele>
        <time>2026-01-22T09:31:06Z</time>
      </trkpt>
      <trkpt lat="48.84316" lon="2.35942">
        <ele>25.1</ele>
        <time>2026-01-22T09:31:11Z</time>
      </trkpt>
      <trkpt lat="48.84321" lon="2.35939">
        <ele>26.2</ele>
        <time>2026-01-22T09:31:16Z</time>
      </trkpt>
      <trkpt lat="48.84325" lon="2.35944">
        <ele>26.7</ele>
        <time>2026-01-22T09:31:21Z</time>
      </trkpt>
      <trkpt lat="48.84329" lon="2.3595">
        <ele>27</ele>
        <time>2026-01-22T09:31:25Z</time>
      </trkpt>
      <trkpt lat="48.84331" lon="2.35957">
        <ele>27.1</ele>
        <time>2026-01-22T09:31:29Z</time>
      </trkpt>
      <trkpt lat="48.84333" lon="2.35964">
        <ele>28.1</ele>
        <time>2026-01-22T09:31:33Z</time>
      </trkpt>
      <trkpt lat="48.84335" lon="2.35971">
        <ele>28</ele>
        <time>2026-01-22T09:31:37Z</time>
      </trkpt>
      <trkpt lat="48.84337" lon="2.35978">
        <ele>27</ele>
        <time>2026-01-22T09:31:42Z</time>
      </trkpt>
      <trkpt lat="48.84338" lon="2.35986">
        <ele>25.5</ele>
        <time>2026-01-22T09:31:47Z</time>
      </trkpt>
      <trkpt lat="48.8434" lon="2.35993">
        <ele>24.6</ele>
        <time>2026-01-22T09:31:52Z</time>
      </trkpt>
      <trkpt lat="48.84342" lon="2.36001">
        <ele>24.4</ele>
        <time>2026-01-22T09:31:57Z</time>
      </trkpt>
      <trkpt lat="48.84344" lon="2.36008">
        <ele>24.1</ele>
        <time>2026-01-22T09:32:02Z</time>
      </trkpt>
      <trkpt lat="48.84346" lon="2.36015">
        <ele>23.5</ele>
        <time>2026-01-22T09:32:06Z</time>
      </trkpt>
      <trkpt lat="48.84348" lon="2.36023">
        <ele>23.5</ele>
        <time>2026-01-22T09:32:11Z</time>
      </trkpt>
      <trkpt lat="48.84349" lon="2.3603">
        <ele>23.4</ele>
        <time>2026-01-22T09:32:15Z</time>
      </trkpt>
      <trkpt lat="48.84351" lon="2.36036">
        <ele>22.9</ele>
        <time>2026-01-22T09:32:20Z</time>
      </trkpt>
      <trkpt lat="48.84353" lon="2.36044">
        <ele>21.9</ele>
        <time>2026-01-22T09:32:25Z</time>
      </trkpt>
      <trkpt lat="48.84355" lon="2.36052">
        <ele>21.9</ele>
        <time>2026-01-22T09:32:29Z</time>
      </trkpt>
      <trkpt lat="48.84357" lon="2.3606">
        <ele>22</ele>
        <time>2026-01-22T09:32:34Z</time>
      </trkpt>
      <trkpt lat="48.84359" lon="2.36067">
        <ele>21.2</ele>
        <time>2026-01-22T09:32:41Z</time>
      </trkpt>
      <trkpt lat="48.84363" lon="2.3607">
        <ele>20.8</ele>
        <time>2026-01-22T09:32:48Z</time>
      </trkpt>
      <trkpt lat="48.84368" lon="2.36067">
        <ele>20.7</ele>
        <time>2026-01-22T09:32:51Z</time>
      </trkpt>
      <trkpt lat="48.84373" lon="2.36066">
        <ele>21.3</ele>
        <time>2026-01-22T09:32:55Z</time>
      </trkpt>
      <trkpt lat="48.84378" lon="2.36063">
        <ele>20.1</ele>
        <time>2026-01-22T09:33:00Z</time>
      </trkpt>
      <trkpt lat="48.84383" lon="2.36061">
        <ele>20</ele>
        <time>2026-01-22T09:33:05Z</time>
      </trkpt>
      <trkpt lat="48.84388" lon="2.36059">
        <ele>20.2</ele>
        <time>2026-01-22T09:33:09Z</time>
      </trkpt>
      <trkpt lat="48.84393" lon="2.36056">
        <ele>21.8</ele>
        <time>2026-01-22T09:33:14Z</time>
      </trkpt>
      <trkpt lat="48.84397" lon="2.36053">
        <ele>22.1</ele>
        <time>2026-01-22T09:33:17Z</time>
      </trkpt>
      <trkpt lat="48.84401" lon="2.36051">
        <ele>23.2</ele>
        <time>2026-01-22T09:33:21Z</time>
      </trkpt>
      <trkpt lat="48.84406" lon="2.36048">
        <ele>23.9</ele>
        <time>2026-01-22T09:33:25Z</time>
      </trkpt>
      <trkpt lat="48.84411" lon="2.36045">
        <ele>25.1</ele>
        <time>2026-01-22T09:33:30Z</time>
      </trkpt>
      <trkpt lat="48.84415" lon="2.36044">
        <ele>25.1</ele>
        <time>2026-01-22T09:33:35Z</time>
      </trkpt>
      <trkpt lat="48.8442" lon="2.36045">
        <ele>24.7</ele>
        <time>2026-01-22T09:33:43Z</time>
      </trkpt>
      <trkpt lat="48.84425" lon="2.3605">
        <ele>25.9</ele>
        <time>2026-01-22T09:33:48Z</time>
      </trkpt>
      <trkpt lat="48.84419" lon="2.36049">
        <ele>24.3</ele>
        <time>2026-01-22T09:34:05Z</time>
      </trkpt>
      <trkpt lat="48.84412" lon="2.3604">
        <ele>27.4</ele>
        <time>2026-01-22T09:36:19Z</time>
      </trkpt>
      <trkpt lat="48.84409" lon="2.36045">
        <ele>33.6</ele>
        <time>2026-01-22T09:36:38Z</time>
      </trkpt>
      <trkpt lat="48.8441" lon="2.36059">
        <ele>32.2</ele>
        <time>2026-01-22T09:37:11Z</time>
      </trkpt>
      <trkpt lat="48.84406" lon="2.36065">
        <ele>31.3</ele>
        <time>2026-01-22T09:37:15Z</time>
      </trkpt>
      <trkpt lat="48.844" lon="2.36052">
        <ele>24.2</ele>
        <time>2026-01-22T09:38:55Z</time>
      </trkpt>
      <trkpt lat="48.84396" lon="2.36048">
        <ele>25</ele>
        <time>2026-01-22T09:39:03Z</time>
      </trkpt>
      <trkpt lat="48.84403" lon="2.3605">
        <ele>26.1</ele>
        <time>2026-01-22T09:42:19Z</time>
      </trkpt>
      <trkpt lat="48.84408" lon="2.36052">
        <ele>28</ele>
        <time>2026-01-22T09:42:22Z</time>
      </trkpt>
      <trkpt lat="48.84412" lon="2.36052">
        <ele>28.4</ele>
        <time>2026-01-22T09:42:26Z</time>
      </trkpt>
      <trkpt lat="48.84407" lon="2.36054">
        <ele>28.6</ele>
        <time>2026-01-22T09:42:50Z</time>
      </trkpt>
      <trkpt lat="48.84403" lon="2.36059">
        <ele>28.1</ele>
        <time>2026-01-22T09:42:55Z</time>
      </trkpt>
      <trkpt lat="48.84399" lon="2.36064">
        <ele>25.9</ele>
        <time>2026-01-22T09:43:02Z</time>
      </trkpt>
      <trkpt lat="48.84394" lon="2.36066">
        <ele>25</ele>
        <time>2026-01-22T09:43:07Z</time>
      </trkpt>
      <trkpt lat="48.8439" lon="2.36069">
        <ele>24.5</ele>
        <time>2026-01-22T09:43:13Z</time>
      </trkpt>
      <trkpt lat="48.84385" lon="2.36071">
        <ele>23.9</ele>
        <time>2026-01-22T09:43:17Z</time>
      </trkpt>
      <trkpt lat="48.8438" lon="2.36073">
        <ele>23.8</ele>
        <time>2026-01-22T09:43:21Z</time>
      </trkpt>
      <trkpt lat="48.84375" lon="2.36076">
        <ele>24.4</ele>
        <time>2026-01-22T09:43:26Z</time>
      </trkpt>
      <trkpt lat="48.8437" lon="2.36079">
        <ele>24.6</ele>
        <time>2026-01-22T09:43:32Z</time>
      </trkpt>
      <trkpt lat="48.84368" lon="2.36086">
        <ele>24.7</ele>
        <time>2026-01-22T09:43:39Z</time>
      </trkpt>
      <trkpt lat="48.84367" lon="2.36093">
        <ele>24.1</ele>
        <time>2026-01-22T09:43:45Z</time>
      </trkpt>
      <trkpt lat="48.84366" lon="2.361">
        <ele>23.6</ele>
        <time>2026-01-22T09:43:51Z</time>
      </trkpt>
      <trkpt lat="48.84366" lon="2.36107">
        <ele>23.5</ele>
        <time>2026-01-22T09:43:56Z</time>
      </trkpt>
      <trkpt lat="48.84367" lon="2.36115">
        <ele>22.9</ele>
        <time>2026-01-22T09:44:02Z</time>
      </trkpt>
      <trkpt lat="48.84369" lon="2.36122">
        <ele>21.8</ele>
        <time>2026-01-22T09:44:09Z</time>
      </trkpt>
      <trkpt lat="48.84367" lon="2.36129">
        <ele>21.5</ele>
        <time>2026-01-22T09:44:13Z</time>
      </trkpt>
      <trkpt lat="48.84363" lon="2.36134">
        <ele>21.1</ele>
        <time>2026-01-22T09:44:16Z</time>
      </trkpt>
      <trkpt lat="48.84359" lon="2.36139">
        <ele>22</ele>
        <time>2026-01-22T09:44:22Z</time>
      </trkpt>
      <trkpt lat="48.84358" lon="2.36146">
        <ele>23.9</ele>
        <time>2026-01-22T09:44:45Z</time>
      </trkpt>
      <trkpt lat="48.84355" lon="2.36151">
        <ele>24.9</ele>
        <time>2026-01-22T09:44:52Z</time>
      </trkpt>
      <trkpt lat="48.84351" lon="2.36157">
        <ele>24.5</ele>
        <time>2026-01-22T09:45:01Z</time>
      </trkpt>
      <trkpt lat="48.84353" lon="2.36164">
        <ele>23.9</ele>
        <time>2026-01-22T09:45:12Z</time>
      </trkpt>
      <trkpt lat="48.84354" lon="2.3617">
        <ele>23.7</ele>
        <time>2026-01-22T09:45:17Z</time>
      </trkpt>
      <trkpt lat="48.84356" lon="2.36177">
        <ele>23.7</ele>
        <time>2026-01-22T09:45:23Z</time>
      </trkpt>
      <trkpt lat="48.84358" lon="2.36183">
        <ele>24</ele>
        <time>2026-01-22T09:45:28Z</time>
      </trkpt>
      <trkpt lat="48.8436" lon="2.36191">
        <ele>23.2</ele>
        <time>2026-01-22T09:45:36Z</time>
      </trkpt>
      <trkpt lat="48.84362" lon="2.36198">
        <ele>22.3</ele>
        <time>2026-01-22T09:45:44Z</time>
      </trkpt>
      <trkpt lat="48.84364" lon="2.36206">
        <ele>21.7</ele>
        <time>2026-01-22T09:45:49Z</time>
      </trkpt>
      <trkpt lat="48.84365" lon="2.36213">
        <ele>20.8</ele>
        <time>2026-01-22T09:45:56Z</time>
      </trkpt>
      <trkpt lat="48.84367" lon="2.36219">
        <ele>21</ele>
        <time>2026-01-22T09:46:02Z</time>
      </trkpt>
      <trkpt lat="48.84369" lon="2.36226">
        <ele>22.1</ele>
        <time>2026-01-22T09:46:08Z</time>
      </trkpt>
      <trkpt lat="48.84371" lon="2.36234">
        <ele>22.8</ele>
        <time>2026-01-22T09:46:13Z</time>
      </trkpt>
      <trkpt lat="48.84373" lon="2.36242">
        <ele>23.2</ele>
        <time>2026-01-22T09:46:20Z</time>
      </trkpt>
      <trkpt lat="48.84377" lon="2.36243">
        <ele>23.2</ele>
        <time>2026-01-22T09:46:30Z</time>
      </trkpt>
      <trkpt lat="48.84378" lon="2.3625">
        <ele>23.5</ele>
        <time>2026-01-22T09:46:47Z</time>
      </trkpt>
      <trkpt lat="48.84379" lon="2.36257">
        <ele>23.2</ele>
        <time>2026-01-22T09:46:53Z</time>
      </trkpt>
      <trkpt lat="48.84383" lon="2.36262">
        <ele>22.9</ele>
        <time>2026-01-22T09:47:01Z</time>
      </trkpt>
      <trkpt lat="48.84386" lon="2.36271">
        <ele>24</ele>
        <time>2026-01-22T09:47:32Z</time>
      </trkpt>
      <trkpt lat="48.84388" lon="2.36286">
        <ele>26.2</ele>
        <time>2026-01-22T09:48:04Z</time>
      </trkpt>
      <trkpt lat="48.84389" lon="2.36295">
        <ele>26.1</ele>
        <time>2026-01-22T09:48:13Z</time>
      </trkpt>
      <trkpt lat="48.84392" lon="2.36301">
        <ele>27.3</ele>
        <time>2026-01-22T09:48:19Z</time>
      </trkpt>
      <trkpt lat="48.84393" lon="2.36308">
        <ele>28.1</ele>
        <time>2026-01-22T09:48:26Z</time>
      </trkpt>
      <trkpt lat="48.84394" lon="2.36315">
        <ele>28</ele>
        <time>2026-01-22T09:48:31Z</time>
      </trkpt>
      <trkpt lat="48.84396" lon="2.36322">
        <ele>27.9</ele>
        <time>2026-01-22T09:48:39Z</time>
      </trkpt>
      <trkpt lat="48.84398" lon="2.36329">
        <ele>28.1</ele>
        <time>2026-01-22T09:48:45Z</time>
      </trkpt>
      <trkpt lat="48.844" lon="2.36336">
        <ele>26.9</ele>
        <time>2026-01-22T09:48:52Z</time>
      </trkpt>
      <trkpt lat="48.84401" lon="2.36343">
        <ele>27.2</ele>
        <time>2026-01-22T09:48:57Z</time>
      </trkpt>
      <trkpt lat="48.84403" lon="2.3635">
        <ele>26.8</ele>
        <time>2026-01-22T09:49:03Z</time>
      </trkpt>
      <trkpt lat="48.84407" lon="2.36361">
        <ele>28.9</ele>
        <time>2026-01-22T09:49:24Z</time>
      </trkpt>
      <trkpt lat="48.84408" lon="2.36372">
        <ele>29.9</ele>
        <time>2026-01-22T09:50:09Z</time>
      </trkpt>
      <trkpt lat="48.84409" lon="2.36378">
        <ele>29.9</ele>
        <time>2026-01-22T09:50:15Z</time>
      </trkpt>
      <trkpt lat="48.84408" lon="2.36385">
        <ele>31.6</ele>
        <time>2026-01-22T09:50:24Z</time>
      </trkpt>
      <trkpt lat="48.84413" lon="2.36388">
        <ele>32.3</ele>
        <time>2026-01-22T09:50:55Z</time>
      </trkpt>
      <trkpt lat="48.84414" lon="2.36395">
        <ele>32</ele>
        <time>2026-01-22T09:51:00Z</time>
      </trkpt>
      <trkpt lat="48.84416" lon="2.36403">
        <ele>32.4</ele>
        <time>2026-01-22T09:51:05Z</time>
      </trkpt>
      <trkpt lat="48.84417" lon="2.3641">
        <ele>31.4</ele>
        <time>2026-01-22T09:51:11Z</time>
      </trkpt>
      <trkpt lat="48.84419" lon="2.36418">
        <ele>30.8</ele>
        <time>2026-01-22T09:51:18Z</time>
      </trkpt>
      <trkpt lat="48.8442" lon="2.36425">
        <ele>30</ele>
        <time>2026-01-22T09:51:24Z</time>
      </trkpt>
      <trkpt lat="48.84421" lon="2.36432">
        <ele>28.2</ele>
        <time>2026-01-22T09:51:30Z</time>
      </trkpt>
      <trkpt lat="48.84423" lon="2.36439">
        <ele>26.1</ele>
        <time>2026-01-22T09:51:36Z</time>
      </trkpt>
      <trkpt lat="48.84425" lon="2.36446">
        <ele>25.8</ele>
        <time>2026-01-22T09:51:40Z</time>
      </trkpt>
      <trkpt lat="48.84427" lon="2.36453">
        <ele>26.7</ele>
        <time>2026-01-22T09:51:45Z</time>
      </trkpt>
      <trkpt lat="48.84429" lon="2.3646">
        <ele>26.8</ele>
        <time>2026-01-22T09:51:50Z</time>
      </trkpt>
      <trkpt lat="48.84432" lon="2.36466">
        <ele>26.8</ele>
        <time>2026-01-22T09:51:55Z</time>
      </trkpt>
      <trkpt lat="48.84434" lon="2.36473">
        <ele>25.8</ele>
        <time>2026-01-22T09:52:01Z</time>
      </trkpt>
      <trkpt lat="48.84435" lon="2.3648">
        <ele>25</ele>
        <time>2026-01-22T09:52:08Z</time>
      </trkpt>
      <trkpt lat="48.84433" lon="2.36489">
        <ele>26.9</ele>
        <time>2026-01-22T09:52:36Z</time>
      </trkpt>
      <trkpt lat="48.8443" lon="2.36495">
        <ele>29.3</ele>
        <time>2026-01-22T09:52:40Z</time>
      </trkpt>
      <trkpt lat="48.84427" lon="2.365">
        <ele>29.7</ele>
        <time>2026-01-22T09:52:45Z</time>
      </trkpt>
      <trkpt lat="48.84424" lon="2.36517">
        <ele>31.7</ele>
        <time>2026-01-22T09:54:26Z</time>
      </trkpt>
      <trkpt lat="48.84424" lon="2.36524">
        <ele>32.9</ele>
        <time>2026-01-22T09:54:33Z</time>
      </trkpt>
      <trkpt lat="48.84429" lon="2.36524">
        <ele>31.2</ele>
        <time>2026-01-22T09:54:40Z</time>
      </trkpt>
      <trkpt lat="48.84434" lon="2.36528">
        <ele>29.3</ele>
        <time>2026-01-22T09:54:46Z</time>
      </trkpt>
      <trkpt lat="48.84438" lon="2.36533">
        <ele>28.8</ele>
        <time>2026-01-22T09:54:52Z</time>
      </trkpt>
      <trkpt lat="48.84441" lon="2.36539">
        <ele>29</ele>
        <time>2026-01-22T09:54:59Z</time>
      </trkpt>
      <trkpt lat="48.84444" lon="2.36545">
        <ele>28.6</ele>
        <time>2026-01-22T09:55:08Z</time>
      </trkpt>
      <trkpt lat="48.84447" lon="2.36552">
        <ele>28.5</ele>
        <time>2026-01-22T09:55:23Z</time>
      </trkpt>
      <trkpt lat="48.8445" lon="2.36558">
        <ele>28.6</ele>
        <time>2026-01-22T09:55:29Z</time>
      </trkpt>
      <trkpt lat="48.84454" lon="2.36563">
        <ele>28.4</ele>
        <time>2026-01-22T09:55:35Z</time>
      </trkpt>
      <trkpt lat="48.84457" lon="2.36569">
        <ele>29.3</ele>
        <time>2026-01-22T09:55:40Z</time>
      </trkpt>
      <trkpt lat="48.8446" lon="2.36575">
        <ele>29.3</ele>
        <time>2026-01-22T09:55:47Z</time>
      </trkpt>
      <trkpt lat="48.84464" lon="2.36581">
        <ele>28.9</ele>
        <time>2026-01-22T09:55:53Z</time>
      </trkpt>
      <trkpt lat="48.84467" lon="2.36586">
        <ele>30.1</ele>
        <time>2026-01-22T09:55:57Z</time>
      </trkpt>
      <trkpt lat="48.8447" lon="2.36592">
        <ele>31.3</ele>
        <time>2026-01-22T09:56:01Z</time>
      </trkpt>
      <trkpt lat="48.84473" lon="2.36598">
        <ele>31.8</ele>
        <time>2026-01-22T09:56:07Z</time>
      </trkpt>
      <trkpt lat="48.84477" lon="2.36603">
        <ele>31.2</ele>
        <time>2026-01-22T09:56:16Z</time>
      </trkpt>
      <trkpt lat="48.84479" lon="2.36609">
        <ele>30.9</ele>
        <time>2026-01-22T09:56:20Z</time>
      </trkpt>
      <trkpt lat="48.84482" lon="2.36615">
        <ele>31.3</ele>
        <time>2026-01-22T09:56:25Z</time>
      </trkpt>
      <trkpt lat="48.84485" lon="2.36622">
        <ele>30</ele>
        <time>2026-01-22T09:56:31Z</time>
      </trkpt>
      <trkpt lat="48.84489" lon="2.36628">
        <ele>29.8</ele>
        <time>2026-01-22T09:56:36Z</time>
      </trkpt>
      <trkpt lat="48.84492" lon="2.36633">
        <ele>30.5</ele>
        <time>2026-01-22T09:56:40Z</time>
      </trkpt>
      <trkpt lat="48.84495" lon="2.36639">
        <ele>31.1</ele>
        <time>2026-01-22T09:56:44Z</time>
      </trkpt>
      <trkpt lat="48.84498" lon="2.36645">
        <ele>31.1</ele>
        <time>2026-01-22T09:56:49Z</time>
      </trkpt>
      <trkpt lat="48.84501" lon="2.3665">
        <ele>30.4</ele>
        <time>2026-01-22T09:56:54Z</time>
      </trkpt>
      <trkpt lat="48.84504" lon="2.36656">
        <ele>29.1</ele>
        <time>2026-01-22T09:56:59Z</time>
      </trkpt>
      <trkpt lat="48.84508" lon="2.36662">
        <ele>28.8</ele>
        <time>2026-01-22T09:57:04Z</time>
      </trkpt>
      <trkpt lat="48.84511" lon="2.36668">
        <ele>28.1</ele>
        <time>2026-01-22T09:57:08Z</time>
      </trkpt>
      <trkpt lat="48.84515" lon="2.36673">
        <ele>26.9</ele>
        <time>2026-01-22T09:57:13Z</time>
      </trkpt>
      <trkpt lat="48.84518" lon="2.36679">
        <ele>26.1</ele>
        <time>2026-01-22T09:57:17Z</time>
      </trkpt>
      <trkpt lat="48.84523" lon="2.36682">
        <ele>26.8</ele>
        <time>2026-01-22T09:57:21Z</time>
      </trkpt>
      <trkpt lat="48.84527" lon="2.36687">
        <ele>27.7</ele>
        <time>2026-01-22T09:57:25Z</time>
      </trkpt>
      <trkpt lat="48.8453" lon="2.36693">
        <ele>28.5</ele>
        <time>2026-01-22T09:57:30Z</time>
      </trkpt>
      <trkpt lat="48.84533" lon="2.367">
        <ele>29.1</ele>
        <time>2026-01-22T09:57:34Z</time>
      </trkpt>
      <trkpt lat="48.84536" lon="2.36706">
        <ele>29.9</ele>
        <time>2026-01-22T09:57:38Z</time>
      </trkpt>
      <trkpt lat="48.84538" lon="2.36713">
        <ele>30.6</ele>
        <time>2026-01-22T09:57:42Z</time>
      </trkpt>
      <trkpt lat="48.8454" lon="2.36719">
        <ele>30.8</ele>
        <time>2026-01-22T09:57:46Z</time>
      </trkpt>
      <trkpt lat="48.84542" lon="2.36726">
        <ele>30.7</ele>
        <time>2026-01-22T09:57:50Z</time>
      </trkpt>
      <trkpt lat="48.84545" lon="2.36732">
        <ele>32.2</ele>
        <time>2026-01-22T09:57:54Z</time>
      </trkpt>
      <trkpt lat="48.84548" lon="2.36738">
        <ele>33.6</ele>
        <time>2026-01-22T09:57:59Z</time>
      </trkpt>
      <trkpt lat="48.84551" lon="2.36743">
        <ele>35</ele>
        <time>2026-01-22T09:58:03Z</time>
      </trkpt>
      <trkpt lat="48.84554" lon="2.36749">
        <ele>35</ele>
        <time>2026-01-22T09:58:09Z</time>
      </trkpt>
      <trkpt lat="48.84557" lon="2.36755">
        <ele>34.3</ele>
        <time>2026-01-22T09:58:15Z</time>
      </trkpt>
      <trkpt lat="48.84558" lon="2.36764">
        <ele>34.1</ele>
        <time>2026-01-22T09:58:20Z</time>
      </trkpt>
      <trkpt lat="48.84557" lon="2.36771">
        <ele>32.8</ele>
        <time>2026-01-22T09:58:26Z</time>
      </trkpt>
      <trkpt lat="48.84555" lon="2.36777">
        <ele>32.1</ele>
        <time>2026-01-22T09:58:31Z</time>
      </trkpt>
      <trkpt lat="48.84551" lon="2.36785">
        <ele>31.3</ele>
        <time>2026-01-22T09:58:37Z</time>
      </trkpt>
      <trkpt lat="48.84547" lon="2.3679">
        <ele>32</ele>
        <time>2026-01-22T09:58:43Z</time>
      </trkpt>
      <trkpt lat="48.84543" lon="2.36795">
        <ele>32.1</ele>
        <time>2026-01-22T09:58:46Z</time>
      </trkpt>
      <trkpt lat="48.8454" lon="2.368">
        <ele>32.3</ele>
        <time>2026-01-22T09:58:49Z</time>
      </trkpt>
      <trkpt lat="48.84537" lon="2.36804">
        <ele>32.5</ele>
        <time>2026-01-22T09:58:52Z</time>
      </trkpt>
      <trkpt lat="48.84534" lon="2.3681">
        <ele>32.6</ele>
        <time>2026-01-22T09:59:00Z</time>
      </trkpt>
      <trkpt lat="48.84532" lon="2.36816">
        <ele>32.5</ele>
        <time>2026-01-22T09:59:05Z</time>
      </trkpt>
      <trkpt lat="48.84528" lon="2.36822">
        <ele>32.3</ele>
        <time>2026-01-22T09:59:09Z</time>
      </trkpt>
      <trkpt lat="48.84524" lon="2.36827">
        <ele>32.4</ele>
        <time>2026-01-22T09:59:15Z</time>
      </trkpt>
      <trkpt lat="48.84525" lon="2.36834">
        <ele>32.3</ele>
        <time>2026-01-22T09:59:22Z</time>
      </trkpt>
      <trkpt lat="48.84529" lon="2.36844">
        <ele>34.3</ele>
        <time>2026-01-22T09:59:47Z</time>
      </trkpt>
      <trkpt lat="48.8453" lon="2.36852">
        <ele>38.1</ele>
        <time>2026-01-22T09:59:51Z</time>
      </trkpt>
      <trkpt lat="48.84529" lon="2.36858">
        <ele>38.7</ele>
        <time>2026-01-22T09:59:55Z</time>
      </trkpt>
      <trkpt lat="48.84529" lon="2.36866">
        <ele>38.6</ele>
        <time>2026-01-22T09:59:59Z</time>
      </trkpt>
      <trkpt lat="48.8453" lon="2.36873">
        <ele>38.1</ele>
        <time>2026-01-22T10:00:03Z</time>
      </trkpt>
      <trkpt lat="48.84528" lon="2.3688">
        <ele>37.2</ele>
        <time>2026-01-22T10:00:14Z</time>
      </trkpt>
      <trkpt lat="48.84525" lon="2.36875">
        <ele>36.3</ele>
        <time>2026-01-22T10:00:20Z</time>
      </trkpt>
      <trkpt lat="48.84524" lon="2.36884">
        <ele>34.4</ele>
        <time>2026-01-22T10:03:02Z</time>
      </trkpt>
      <trkpt lat="48.84522" lon="2.36891">
        <ele>31.5</ele>
        <time>2026-01-22T10:03:06Z</time>
      </trkpt>
      <trkpt lat="48.84522" lon="2.36898">
        <ele>30.7</ele>
        <time>2026-01-22T10:03:14Z</time>
      </trkpt>
      <trkpt lat="48.84521" lon="2.36907">
        <ele>30.1</ele>
        <time>2026-01-22T10:03:20Z</time>
      </trkpt>
      <trkpt lat="48.84522" lon="2.36914">
        <ele>29.4</ele>
        <time>2026-01-22T10:03:25Z</time>
      </trkpt>
      <trkpt lat="48.84522" lon="2.36921">
        <ele>28.2</ele>
        <time>2026-01-22T10:03:34Z</time>
      </trkpt>
      <trkpt lat="48.84523" lon="2.36928">
        <ele>27.5</ele>
        <time>2026-01-22T10:03:39Z</time>
      </trkpt>
      <trkpt lat="48.84524" lon="2.36937">
        <ele>27</ele>
        <time>2026-01-22T10:03:44Z</time>
      </trkpt>
      <trkpt lat="48.84525" lon="2.36944">
        <ele>26.6</ele>
        <time>2026-01-22T10:03:49Z</time>
      </trkpt>
      <trkpt lat="48.84525" lon="2.36951">
        <ele>26.2</ele>
        <time>2026-01-22T10:03:54Z</time>
      </trkpt>
      <trkpt lat="48.84526" lon="2.36959">
        <ele>25.4</ele>
        <time>2026-01-22T10:03:59Z</time>
      </trkpt>
      <trkpt lat="48.84527" lon="2.36966">
        <ele>24.5</ele>
        <time>2026-01-22T10:04:04Z</time>
      </trkpt>
      <trkpt lat="48.84527" lon="2.36974">
        <ele>22.9</ele>
        <time>2026-01-22T10:04:13Z</time>
      </trkpt>
      <trkpt lat="48.84528" lon="2.36981">
        <ele>21.4</ele>
        <time>2026-01-22T10:04:18Z</time>
      </trkpt>
      <trkpt lat="48.8453" lon="2.36989">
        <ele>20.5</ele>
        <time>2026-01-22T10:04:22Z</time>
      </trkpt>
      <trkpt lat="48.84531" lon="2.36996">
        <ele>19.9</ele>
        <time>2026-01-22T10:04:27Z</time>
      </trkpt>
      <trkpt lat="48.84532" lon="2.37002">
        <ele>19.8</ele>
        <time>2026-01-22T10:04:36Z</time>
      </trkpt>
      <trkpt lat="48.84526" lon="2.37014">
        <ele>19.8</ele>
        <time>2026-01-22T10:04:51Z</time>
      </trkpt>
      <trkpt lat="48.84526" lon="2.37022">
        <ele>22.4</ele>
        <time>2026-01-22T10:04:58Z</time>
      </trkpt>
      <trkpt lat="48.84527" lon="2.37029">
        <ele>22.6</ele>
        <time>2026-01-22T10:05:02Z</time>
      </trkpt>
      <trkpt lat="48.84528" lon="2.37037">
        <ele>22.6</ele>
        <time>2026-01-22T10:05:07Z</time>
      </trkpt>
      <trkpt lat="48.84529" lon="2.37044">
        <ele>22.5</ele>
        <time>2026-01-22T10:05:12Z</time>
      </trkpt>
      <trkpt lat="48.8453" lon="2.37051">
        <ele>22.5</ele>
        <time>2026-01-22T10:05:18Z</time>
      </trkpt>
      <trkpt lat="48.84531" lon="2.37059">
        <ele>22.4</ele>
        <time>2026-01-22T10:05:24Z</time>
      </trkpt>
      <trkpt lat="48.84532" lon="2.37067">
        <ele>22.4</ele>
        <time>2026-01-22T10:05:29Z</time>
      </trkpt>
      <trkpt lat="48.84533" lon="2.37074">
        <ele>22.6</ele>
        <time>2026-01-22T10:05:33Z</time>
      </trkpt>
      <trkpt lat="48.84534" lon="2.37083">
        <ele>22.3</ele>
        <time>2026-01-22T10:05:38Z</time>
      </trkpt>
      <trkpt lat="48.84536" lon="2.37089">
        <ele>22.7</ele>
        <time>2026-01-22T10:05:48Z</time>
      </trkpt>
      <trkpt lat="48.84542" lon="2.371">
        <ele>26.4</ele>
        <time>2026-01-22T10:06:30Z</time>
      </trkpt>
      <trkpt lat="48.84547" lon="2.37101">
        <ele>31.4</ele>
        <time>2026-01-22T10:06:33Z</time>
      </trkpt>
      <trkpt lat="48.84551" lon="2.37097">
        <ele>32.2</ele>
        <time>2026-01-22T10:06:41Z</time>
      </trkpt>
      <trkpt lat="48.84562" lon="2.37096">
        <ele>33.1</ele>
        <time>2026-01-22T10:06:56Z</time>
      </trkpt>
      <trkpt lat="48.84566" lon="2.37098">
        <ele>34.4</ele>
        <time>2026-01-22T10:06:59Z</time>
      </trkpt>
      <trkpt lat="48.84572" lon="2.37103">
        <ele>35.4</ele>
        <time>2026-01-22T10:07:15Z</time>
      </trkpt>
      <trkpt lat="48.84577" lon="2.37104">
        <ele>36.9</ele>
        <time>2026-01-22T10:07:18Z</time>
      </trkpt>
      <trkpt lat="48.8458" lon="2.37098">
        <ele>36.4</ele>
        <time>2026-01-22T10:07:24Z</time>
      </trkpt>
      <trkpt lat="48.84581" lon="2.3709">
        <ele>35.7</ele>
        <time>2026-01-22T10:07:30Z</time>
      </trkpt>
      <trkpt lat="48.84584" lon="2.37084">
        <ele>35.5</ele>
        <time>2026-01-22T10:07:36Z</time>
      </trkpt>
      <trkpt lat="48.8459" lon="2.37085">
        <ele>35.3</ele>
        <time>2026-01-22T10:07:40Z</time>
      </trkpt>
      <trkpt lat="48.84594" lon="2.37086">
        <ele>35.1</ele>
        <time>2026-01-22T10:07:47Z</time>
      </trkpt>
      <trkpt lat="48.84599" lon="2.37082">
        <ele>35.2</ele>
        <time>2026-01-22T10:07:51Z</time>
      </trkpt>
      <trkpt lat="48.84602" lon="2.37078">
        <ele>34.6</ele>
        <time>2026-01-22T10:07:58Z</time>
      </trkpt>
      <trkpt lat="48.84604" lon="2.37071">
        <ele>32.2</ele>
        <time>2026-01-22T10:08:04Z</time>
      </trkpt>
      <trkpt lat="48.84607" lon="2.37065">
        <ele>29.9</ele>
        <time>2026-01-22T10:08:10Z</time>
      </trkpt>
      <trkpt lat="48.84611" lon="2.37059">
        <ele>28.5</ele>
        <time>2026-01-22T10:08:16Z</time>
      </trkpt>
      <trkpt lat="48.84614" lon="2.37054">
        <ele>27.3</ele>
        <time>2026-01-22T10:08:22Z</time>
      </trkpt>
      <trkpt lat="48.84617" lon="2.37048">
        <ele>26.4</ele>
        <time>2026-01-22T10:08:28Z</time>
      </trkpt>
      <trkpt lat="48.84621" lon="2.37043">
        <ele>24.9</ele>
        <time>2026-01-22T10:08:34Z</time>
      </trkpt>
      <trkpt lat="48.84625" lon="2.37038">
        <ele>23.7</ele>
        <time>2026-01-22T10:08:39Z</time>
      </trkpt>
      <trkpt lat="48.84628" lon="2.37033">
        <ele>22.4</ele>
        <time>2026-01-22T10:08:45Z</time>
      </trkpt>
      <trkpt lat="48.84632" lon="2.37027">
        <ele>21.2</ele>
        <time>2026-01-22T10:08:49Z</time>
      </trkpt>
      <trkpt lat="48.84637" lon="2.37021">
        <ele>21</ele>
        <time>2026-01-22T10:08:53Z</time>
      </trkpt>
      <trkpt lat="48.8464" lon="2.37015">
        <ele>21.9</ele>
        <time>2026-01-22T10:08:56Z</time>
      </trkpt>
      <trkpt lat="48.84643" lon="2.3701">
        <ele>23.7</ele>
        <time>2026-01-22T10:09:00Z</time>
      </trkpt>
      <trkpt lat="48.84646" lon="2.37001">
        <ele>30</ele>
        <time>2026-01-22T10:10:19Z</time>
      </trkpt>
      <trkpt lat="48.84648" lon="2.36994">
        <ele>34.8</ele>
        <time>2026-01-22T10:10:23Z</time>
      </trkpt>
      <trkpt lat="48.84653" lon="2.36991">
        <ele>41.5</ele>
        <time>2026-01-22T10:10:43Z</time>
      </trkpt>
      <trkpt lat="48.84656" lon="2.36986">
        <ele>42.7</ele>
        <time>2026-01-22T10:10:48Z</time>
      </trkpt>
      <trkpt lat="48.8466" lon="2.3698">
        <ele>42</ele>
        <time>2026-01-22T10:10:57Z</time>
      </trkpt>
      <trkpt lat="48.84664" lon="2.36976">
        <ele>40.4</ele>
        <time>2026-01-22T10:11:04Z</time>
      </trkpt>
      <trkpt lat="48.84668" lon="2.36972">
        <ele>38.9</ele>
        <time>2026-01-22T10:11:10Z</time>
      </trkpt>
      <trkpt lat="48.84673" lon="2.36969">
        <ele>38.1</ele>
        <time>2026-01-22T10:11:18Z</time>
      </trkpt>
      <trkpt lat="48.84677" lon="2.36962">
        <ele>38.4</ele>
        <time>2026-01-22T10:11:21Z</time>
      </trkpt>
      <trkpt lat="48.84681" lon="2.36957">
        <ele>39.3</ele>
        <time>2026-01-22T10:11:24Z</time>
      </trkpt>
      <trkpt lat="48.84684" lon="2.36949">
        <ele>40.3</ele>
        <time>2026-01-22T10:11:27Z</time>
      </trkpt>
      <trkpt lat="48.84689" lon="2.36948">
        <ele>41.7</ele>
        <time>2026-01-22T10:11:35Z</time>
      </trkpt>
      <trkpt lat="48.84694" lon="2.36941">
        <ele>42</ele>
        <time>2026-01-22T10:11:49Z</time>
      </trkpt>
      <trkpt lat="48.84697" lon="2.36936">
        <ele>40.1</ele>
        <time>2026-01-22T10:11:53Z</time>
      </trkpt>
      <trkpt lat="48.84699" lon="2.36929">
        <ele>38.3</ele>
        <time>2026-01-22T10:12:04Z</time>
      </trkpt>
      <trkpt lat="48.84702" lon="2.36925">
        <ele>37.9</ele>
        <time>2026-01-22T10:12:11Z</time>
      </trkpt>
      <trkpt lat="48.84706" lon="2.36921">
        <ele>37.6</ele>
        <time>2026-01-22T10:12:16Z</time>
      </trkpt>
      <trkpt lat="48.8471" lon="2.36914">
        <ele>38.5</ele>
        <time>2026-01-22T10:12:21Z</time>
      </trkpt>
      <trkpt lat="48.84713" lon="2.36908">
        <ele>40</ele>
        <time>2026-01-22T10:12:25Z</time>
      </trkpt>
      <trkpt lat="48.84717" lon="2.36902">
        <ele>41.6</ele>
        <time>2026-01-22T10:12:30Z</time>
      </trkpt>
      <trkpt lat="48.8472" lon="2.36897">
        <ele>43.3</ele>
        <time>2026-01-22T10:12:36Z</time>
      </trkpt>
      <trkpt lat="48.84722" lon="2.36891">
        <ele>44.9</ele>
        <time>2026-01-22T10:12:41Z</time>
      </trkpt>
      <trkpt lat="48.84726" lon="2.36886">
        <ele>45.9</ele>
        <time>2026-01-22T10:12:45Z</time>
      </trkpt>
      <trkpt lat="48.8473" lon="2.36881">
        <ele>44.4</ele>
        <time>2026-01-22T10:12:54Z</time>
      </trkpt>
      <trkpt lat="48.84735" lon="2.36879">
        <ele>44.8</ele>
        <time>2026-01-22T10:13:00Z</time>
      </trkpt>
      <trkpt lat="48.84739" lon="2.36879">
        <ele>44.2</ele>
        <time>2026-01-22T10:13:05Z</time>
      </trkpt>
      <trkpt lat="48.84744" lon="2.36881">
        <ele>41.4</ele>
        <time>2026-01-22T10:13:14Z</time>
      </trkpt>
      <trkpt lat="48.84749" lon="2.36878">
        <ele>39.5</ele>
        <time>2026-01-22T10:13:20Z</time>
      </trkpt>
      <trkpt lat="48.84751" lon="2.3687">
        <ele>38.5</ele>
        <time>2026-01-22T10:13:26Z</time>
      </trkpt>
      <trkpt lat="48.84753" lon="2.36864">
        <ele>37.3</ele>
        <time>2026-01-22T10:13:30Z</time>
      </trkpt>
      <trkpt lat="48.84756" lon="2.36857">
        <ele>36.3</ele>
        <time>2026-01-22T10:13:35Z</time>
      </trkpt>
      <trkpt lat="48.84759" lon="2.36852">
        <ele>35.8</ele>
        <time>2026-01-22T10:13:41Z</time>
      </trkpt>
      <trkpt lat="48.84763" lon="2.36847">
        <ele>35.3</ele>
        <time>2026-01-22T10:13:48Z</time>
      </trkpt>
      <trkpt lat="48.84766" lon="2.36842">
        <ele>33.7</ele>
        <time>2026-01-22T10:13:53Z</time>
      </trkpt>
      <trkpt lat="48.8477" lon="2.36837">
        <ele>32.5</ele>
        <time>2026-01-22T10:13:56Z</time>
      </trkpt>
      <trkpt lat="48.84774" lon="2.36831">
        <ele>31.7</ele>
        <time>2026-01-22T10:13:59Z</time>
      </trkpt>
      <trkpt lat="48.84779" lon="2.36825">
        <ele>31.9</ele>
        <time>2026-01-22T10:14:02Z</time>
      </trkpt>
      <trkpt lat="48.84781" lon="2.36819">
        <ele>32.6</ele>
        <time>2026-01-22T10:14:15Z</time>
      </trkpt>
      <trkpt lat="48.84785" lon="2.36814">
        <ele>32.1</ele>
        <time>2026-01-22T10:14:21Z</time>
      </trkpt>
      <trkpt lat="48.84788" lon="2.36809">
        <ele>32.5</ele>
        <time>2026-01-22T10:14:25Z</time>
      </trkpt>
      <trkpt lat="48.84792" lon="2.36805">
        <ele>32.6</ele>
        <time>2026-01-22T10:14:30Z</time>
      </trkpt>
      <trkpt lat="48.84795" lon="2.36801">
        <ele>31.1</ele>
        <time>2026-01-22T10:14:37Z</time>
      </trkpt>
      <trkpt lat="48.84799" lon="2.36796">
        <ele>29.9</ele>
        <time>2026-01-22T10:14:42Z</time>
      </trkpt>
      <trkpt lat="48.84803" lon="2.36791">
        <ele>29.4</ele>
        <time>2026-01-22T10:14:47Z</time>
      </trkpt>
      <trkpt lat="48.84806" lon="2.36785">
        <ele>28.7</ele>
        <time>2026-01-22T10:14:57Z</time>
      </trkpt>
      <trkpt lat="48.84807" lon="2.36777">
        <ele>28.9</ele>
        <time>2026-01-22T10:15:21Z</time>
      </trkpt>
      <trkpt lat="48.84811" lon="2.36772">
        <ele>29</ele>
        <time>2026-01-22T10:15:28Z</time>
      </trkpt>
      <trkpt lat="48.84811" lon="2.36765">
        <ele>31.4</ele>
        <time>2026-01-22T10:15:48Z</time>
      </trkpt>
      <trkpt lat="48.8481" lon="2.36758">
        <ele>31.9</ele>
        <time>2026-01-22T10:15:56Z</time>
      </trkpt>
      <trkpt lat="48.84813" lon="2.36752">
        <ele>32.2</ele>
        <time>2026-01-22T10:16:00Z</time>
      </trkpt>
      <trkpt lat="48.84817" lon="2.36751">
        <ele>31.8</ele>
        <time>2026-01-22T10:16:05Z</time>
      </trkpt>
      <trkpt lat="48.84822" lon="2.36751">
        <ele>29.6</ele>
        <time>2026-01-22T10:16:11Z</time>
      </trkpt>
      <trkpt lat="48.84826" lon="2.36753">
        <ele>30.6</ele>
        <time>2026-01-22T10:16:33Z</time>
      </trkpt>
      <trkpt lat="48.84831" lon="2.36756">
        <ele>31.2</ele>
        <time>2026-01-22T10:16:37Z</time>
      </trkpt>
      <trkpt lat="48.84839" lon="2.36761">
        <ele>31.9</ele>
        <time>2026-01-22T10:18:23Z</time>
      </trkpt>
      <trkpt lat="48.84844" lon="2.36768">
        <ele>30.8</ele>
        <time>2026-01-22T10:18:56Z</time>
      </trkpt>
      <trkpt lat="48.84848" lon="2.36763">
        <ele>30.2</ele>
        <time>2026-01-22T10:19:00Z</time>
      </trkpt>
      <trkpt lat="48.84847" lon="2.36756">
        <ele>30.7</ele>
        <time>2026-01-22T10:19:03Z</time>
      </trkpt>
      <trkpt lat="48.84843" lon="2.3676">
        <ele>31.3</ele>
        <time>2026-01-22T10:19:09Z</time>
      </trkpt>
      <trkpt lat="48.84837" lon="2.36762">
        <ele>30.4</ele>
        <time>2026-01-22T10:19:13Z</time>
      </trkpt>
      <trkpt lat="48.84833" lon="2.3676">
        <ele>29.4</ele>
        <time>2026-01-22T10:19:19Z</time>
      </trkpt>
      <trkpt lat="48.84837" lon="2.36767">
        <ele>29.4</ele>
        <time>2026-01-22T10:19:39Z</time>
      </trkpt>
      <trkpt lat="48.84841" lon="2.36769">
        <ele>29</ele>
        <time>2026-01-22T10:19:43Z</time>
      </trkpt>
      <trkpt lat="48.84846" lon="2.36771">
        <ele>28.1</ele>
        <time>2026-01-22T10:19:48Z</time>
      </trkpt>
      <trkpt lat="48.8485" lon="2.36773">
        <ele>26.8</ele>
        <time>2026-01-22T10:19:55Z</time>
      </trkpt>
      <trkpt lat="48.84855" lon="2.36775">
        <ele>26.2</ele>
        <time>2026-01-22T10:19:59Z</time>
      </trkpt>
      <trkpt lat="48.84859" lon="2.36777">
        <ele>25.9</ele>
        <time>2026-01-22T10:20:04Z</time>
      </trkpt>
      <trkpt lat="48.84864" lon="2.3678">
        <ele>25.6</ele>
        <time>2026-01-22T10:20:09Z</time>
      </trkpt>
      <trkpt lat="48.84868" lon="2.36782">
        <ele>25.1</ele>
        <time>2026-01-22T10:20:14Z</time>
      </trkpt>
      <trkpt lat="48.84873" lon="2.36781">
        <ele>24.3</ele>
        <time>2026-01-22T10:20:21Z</time>
      </trkpt>
      <trkpt lat="48.84878" lon="2.36783">
        <ele>24.1</ele>
        <time>2026-01-22T10:20:26Z</time>
      </trkpt>
      <trkpt lat="48.84883" lon="2.36783">
        <ele>24.2</ele>
        <time>2026-01-22T10:20:37Z</time>
      </trkpt>
      <trkpt lat="48.84888" lon="2.36782">
        <ele>24.3</ele>
        <time>2026-01-22T10:20:44Z</time>
      </trkpt>
      <trkpt lat="48.84893" lon="2.36784">
        <ele>24.3</ele>
        <time>2026-01-22T10:20:50Z</time>
      </trkpt>
      <trkpt lat="48.84897" lon="2.36785">
        <ele>24.7</ele>
        <time>2026-01-22T10:20:58Z</time>
      </trkpt>
      <trkpt lat="48.84907" lon="2.36784">
        <ele>27.2</ele>
        <time>2026-01-22T10:24:31Z</time>
      </trkpt>
      <trkpt lat="48.8491" lon="2.36778">
        <ele>29.9</ele>
        <time>2026-01-22T10:26:03Z</time>
      </trkpt>
      <trkpt lat="48.84912" lon="2.36771">
        <ele>28.9</ele>
        <time>2026-01-22T10:26:09Z</time>
      </trkpt>
      <trkpt lat="48.84913" lon="2.36764">
        <ele>28.7</ele>
        <time>2026-01-22T10:26:16Z</time>
      </trkpt>
      <trkpt lat="48.84914" lon="2.36757">
        <ele>28.5</ele>
        <time>2026-01-22T10:26:21Z</time>
      </trkpt>
      <trkpt lat="48.84915" lon="2.36749">
        <ele>28.6</ele>
        <time>2026-01-22T10:26:27Z</time>
      </trkpt>
      <trkpt lat="48.84917" lon="2.36742">
        <ele>28.8</ele>
        <time>2026-01-22T10:26:31Z</time>
      </trkpt>
      <trkpt lat="48.84919" lon="2.36735">
        <ele>29.2</ele>
        <time>2026-01-22T10:26:38Z</time>
      </trkpt>
      <trkpt lat="48.84921" lon="2.36724">
        <ele>29.6</ele>
        <time>2026-01-22T10:26:47Z</time>
      </trkpt>
      <trkpt lat="48.84922" lon="2.36716">
        <ele>29.4</ele>
        <time>2026-01-22T10:26:53Z</time>
      </trkpt>
      <trkpt lat="48.84924" lon="2.36708">
        <ele>29.3</ele>
        <time>2026-01-22T10:26:59Z</time>
      </trkpt>
      <trkpt lat="48.84925" lon="2.36701">
        <ele>28.6</ele>
        <time>2026-01-22T10:27:03Z</time>
      </trkpt>
      <trkpt lat="48.84927" lon="2.36694">
        <ele>28.2</ele>
        <time>2026-01-22T10:27:09Z</time>
      </trkpt>
      <trkpt lat="48.84929" lon="2.36686">
        <ele>27.2</ele>
        <time>2026-01-22T10:27:14Z</time>
      </trkpt>
      <trkpt lat="48.8493" lon="2.36678">
        <ele>26.8</ele>
        <time>2026-01-22T10:27:19Z</time>
      </trkpt>
      <trkpt lat="48.84932" lon="2.36671">
        <ele>27.6</ele>
        <time>2026-01-22T10:27:26Z</time>
      </trkpt>
      <trkpt lat="48.84932" lon="2.36664">
        <ele>29.5</ele>
        <time>2026-01-22T10:27:35Z</time>
      </trkpt>
      <trkpt lat="48.84935" lon="2.36658">
        <ele>31.9</ele>
        <time>2026-01-22T10:27:51Z</time>
      </trkpt>
      <trkpt lat="48.84937" lon="2.36652">
        <ele>32.4</ele>
        <time>2026-01-22T10:27:56Z</time>
      </trkpt>
      <trkpt lat="48.84941" lon="2.36646">
        <ele>33</ele>
        <time>2026-01-22T10:28:01Z</time>
      </trkpt>
      <trkpt lat="48.84944" lon="2.36641">
        <ele>35.9</ele>
        <time>2026-01-22T10:28:08Z</time>
      </trkpt>
      <trkpt lat="48.84945" lon="2.36633">
        <ele>36.2</ele>
        <time>2026-01-22T10:28:19Z</time>
      </trkpt>
      <trkpt lat="48.84947" lon="2.36626">
        <ele>36.2</ele>
        <time>2026-01-22T10:28:26Z</time>
      </trkpt>
      <trkpt lat="48.84948" lon="2.36619">
        <ele>36.1</ele>
        <time>2026-01-22T10:28:32Z</time>
      </trkpt>
      <trkpt lat="48.84952" lon="2.36614">
        <ele>35.4</ele>
        <time>2026-01-22T10:28:38Z</time>
      </trkpt>
      <trkpt lat="48.84954" lon="2.36607">
        <ele>34.7</ele>
        <time>2026-01-22T10:28:44Z</time>
      </trkpt>
      <trkpt lat="48.84956" lon="2.36601">
        <ele>33.9</ele>
        <time>2026-01-22T10:28:51Z</time>
      </trkpt>
      <trkpt lat="48.84957" lon="2.36594">
        <ele>32.8</ele>
        <time>2026-01-22T10:28:57Z</time>
      </trkpt>
      <trkpt lat="48.84959" lon="2.36588">
        <ele>31.6</ele>
        <time>2026-01-22T10:29:03Z</time>
      </trkpt>
      <trkpt lat="48.8496" lon="2.3658">
        <ele>29.8</ele>
        <time>2026-01-22T10:29:08Z</time>
      </trkpt>
      <trkpt lat="48.84959" lon="2.36572">
        <ele>29</ele>
        <time>2026-01-22T10:29:12Z</time>
      </trkpt>
      <trkpt lat="48.8496" lon="2.36565">
        <ele>28.9</ele>
        <time>2026-01-22T10:29:16Z</time>
      </trkpt>
      <trkpt lat="48.8496" lon="2.36557">
        <ele>29</ele>
        <time>2026-01-22T10:29:21Z</time>
      </trkpt>
      <trkpt lat="48.8496" lon="2.3655">
        <ele>28.7</ele>
        <time>2026-01-22T10:29:27Z</time>
      </trkpt>
      <trkpt lat="48.84961" lon="2.36542">
        <ele>28.3</ele>
        <time>2026-01-22T10:29:33Z</time>
      </trkpt>
      <trkpt lat="48.84962" lon="2.36535">
        <ele>27.8</ele>
        <time>2026-01-22T10:29:38Z</time>
      </trkpt>
      <trkpt lat="48.84965" lon="2.36525">
        <ele>27.9</ele>
        <time>2026-01-22T10:29:54Z</time>
      </trkpt>
      <trkpt lat="48.84965" lon="2.36518">
        <ele>28.6</ele>
        <time>2026-01-22T10:29:59Z</time>
      </trkpt>
      <trkpt lat="48.84964" lon="2.3651">
        <ele>29.9</ele>
        <time>2026-01-22T10:30:08Z</time>
      </trkpt>
      <trkpt lat="48.84963" lon="2.36502">
        <ele>30.9</ele>
        <time>2026-01-22T10:30:15Z</time>
      </trkpt>
      <trkpt lat="48.84964" lon="2.36495">
        <ele>31.4</ele>
        <time>2026-01-22T10:30:24Z</time>
      </trkpt>
      <trkpt lat="48.84966" lon="2.36488">
        <ele>31.4</ele>
        <time>2026-01-22T10:30:33Z</time>
      </trkpt>
      <trkpt lat="48.84971" lon="2.36477">
        <ele>30.7</ele>
        <time>2026-01-22T10:30:44Z</time>
      </trkpt>
      <trkpt lat="48.84975" lon="2.36472">
        <ele>30.2</ele>
        <time>2026-01-22T10:30:48Z</time>
      </trkpt>
      <trkpt lat="48.84978" lon="2.36466">
        <ele>29.3</ele>
        <time>2026-01-22T10:30:54Z</time>
      </trkpt>
      <trkpt lat="48.8498" lon="2.3646">
        <ele>28.4</ele>
        <time>2026-01-22T10:31:00Z</time>
      </trkpt>
      <trkpt lat="48.84983" lon="2.36453">
        <ele>27.5</ele>
        <time>2026-01-22T10:31:09Z</time>
      </trkpt>
      <trkpt lat="48.84986" lon="2.36448">
        <ele>26.9</ele>
        <time>2026-01-22T10:31:14Z</time>
      </trkpt>
      <trkpt lat="48.84991" lon="2.36443">
        <ele>26.3</ele>
        <time>2026-01-22T10:31:20Z</time>
      </trkpt>
      <trkpt lat="48.84994" lon="2.36439">
        <ele>26</ele>
        <time>2026-01-22T10:31:25Z</time>
      </trkpt>
      <trkpt lat="48.84999" lon="2.36434">
        <ele>25.8</ele>
        <time>2026-01-22T10:31:31Z</time>
      </trkpt>
      <trkpt lat="48.85003" lon="2.36429">
        <ele>25.2</ele>
        <time>2026-01-22T10:31:36Z</time>
      </trkpt>
      <trkpt lat="48.85007" lon="2.36424">
        <ele>25.6</ele>
        <time>2026-01-22T10:31:41Z</time>
      </trkpt>
      <trkpt lat="48.85011" lon="2.36419">
        <ele>25.2</ele>
        <time>2026-01-22T10:31:50Z</time>
      </trkpt>
      <trkpt lat="48.85015" lon="2.36416">
        <ele>24.9</ele>
        <time>2026-01-22T10:31:57Z</time>
      </trkpt>
      <trkpt lat="48.85019" lon="2.36411">
        <ele>24.3</ele>
        <time>2026-01-22T10:32:02Z</time>
      </trkpt>
      <trkpt lat="48.85024" lon="2.36406">
        <ele>23.7</ele>
        <time>2026-01-22T10:32:07Z</time>
      </trkpt>
      <trkpt lat="48.85028" lon="2.364">
        <ele>24.4</ele>
        <time>2026-01-22T10:32:10Z</time>
      </trkpt>
      <trkpt lat="48.85032" lon="2.36396">
        <ele>24.9</ele>
        <time>2026-01-22T10:32:12Z</time>
      </trkpt>
      <trkpt lat="48.85036" lon="2.36391">
        <ele>26.4</ele>
        <time>2026-01-22T10:32:17Z</time>
      </trkpt>
      <trkpt lat="48.8504" lon="2.36386">
        <ele>28</ele>
        <time>2026-01-22T10:32:21Z</time>
      </trkpt>
      <trkpt lat="48.85043" lon="2.36382">
        <ele>29.6</ele>
        <time>2026-01-22T10:32:27Z</time>
      </trkpt>
      <trkpt lat="48.85045" lon="2.36374">
        <ele>27.7</ele>
        <time>2026-01-22T10:32:38Z</time>
      </trkpt>
      <trkpt lat="48.85049" lon="2.36368">
        <ele>26.6</ele>
        <time>2026-01-22T10:32:43Z</time>
      </trkpt>
      <trkpt lat="48.85053" lon="2.36362">
        <ele>26.7</ele>
        <time>2026-01-22T10:32:46Z</time>
      </trkpt>
      <trkpt lat="48.85057" lon="2.36357">
        <ele>27.7</ele>
        <time>2026-01-22T10:32:50Z</time>
      </trkpt>
      <trkpt lat="48.8506" lon="2.36352">
        <ele>27.1</ele>
        <time>2026-01-22T10:32:56Z</time>
      </trkpt>
      <trkpt lat="48.85065" lon="2.36347">
        <ele>27.4</ele>
        <time>2026-01-22T10:33:00Z</time>
      </trkpt>
      <trkpt lat="48.85068" lon="2.36343">
        <ele>26</ele>
        <time>2026-01-22T10:33:07Z</time>
      </trkpt>
      <trkpt lat="48.85073" lon="2.36342">
        <ele>24.9</ele>
        <time>2026-01-22T10:33:13Z</time>
      </trkpt>
      <trkpt lat="48.85077" lon="2.36338">
        <ele>23.1</ele>
        <time>2026-01-22T10:33:21Z</time>
      </trkpt>
      <trkpt lat="48.85082" lon="2.36335">
        <ele>20.8</ele>
        <time>2026-01-22T10:33:28Z</time>
      </trkpt>
      <trkpt lat="48.85086" lon="2.36333">
        <ele>18.9</ele>
        <time>2026-01-22T10:33:33Z</time>
      </trkpt>
      <trkpt lat="48.85088" lon="2.36326">
        <ele>19.6</ele>
        <time>2026-01-22T10:33:37Z</time>
      </trkpt>
      <trkpt lat="48.85092" lon="2.36321">
        <ele>18.6</ele>
        <time>2026-01-22T10:33:43Z</time>
      </trkpt>
      <trkpt lat="48.85096" lon="2.36316">
        <ele>17.7</ele>
        <time>2026-01-22T10:33:50Z</time>
      </trkpt>
      <trkpt lat="48.851" lon="2.36313">
        <ele>15.7</ele>
        <time>2026-01-22T10:34:00Z</time>
      </trkpt>
      <trkpt lat="48.85104" lon="2.36309">
        <ele>14.3</ele>
        <time>2026-01-22T10:34:08Z</time>
      </trkpt>
      <trkpt lat="48.85108" lon="2.36303">
        <ele>14</ele>
        <time>2026-01-22T10:34:13Z</time>
      </trkpt>
      <trkpt lat="48.85112" lon="2.36291">
        <ele>15.1</ele>
        <time>2026-01-22T10:34:30Z</time>
      </trkpt>
      <trkpt lat="48.85112" lon="2.36281">
        <ele>18.5</ele>
        <time>2026-01-22T10:34:40Z</time>
      </trkpt>
      <trkpt lat="48.85109" lon="2.36269">
        <ele>20.4</ele>
        <time>2026-01-22T10:34:50Z</time>
      </trkpt>
      <trkpt lat="48.85107" lon="2.36263">
        <ele>22.5</ele>
        <time>2026-01-22T10:34:54Z</time>
      </trkpt>
      <trkpt lat="48.85103" lon="2.36255">
        <ele>24</ele>
        <time>2026-01-22T10:35:15Z</time>
      </trkpt>
      <trkpt lat="48.85104" lon="2.36248">
        <ele>27</ele>
        <time>2026-01-22T10:35:32Z</time>
      </trkpt>
      <trkpt lat="48.851" lon="2.36242">
        <ele>27.7</ele>
        <time>2026-01-22T10:36:54Z</time>
      </trkpt>
      <trkpt lat="48.85101" lon="2.36234">
        <ele>28.5</ele>
        <time>2026-01-22T10:37:24Z</time>
      </trkpt>
      <trkpt lat="48.85098" lon="2.36229">
        <ele>29.4</ele>
        <time>2026-01-22T10:37:29Z</time>
      </trkpt>
      <trkpt lat="48.85095" lon="2.36222">
        <ele>29.4</ele>
        <time>2026-01-22T10:37:34Z</time>
      </trkpt>
      <trkpt lat="48.85094" lon="2.36215">
        <ele>29.7</ele>
        <time>2026-01-22T10:37:41Z</time>
      </trkpt>
      <trkpt lat="48.85094" lon="2.36208">
        <ele>29.7</ele>
        <time>2026-01-22T10:37:57Z</time>
      </trkpt>
      <trkpt lat="48.85093" lon="2.36201">
        <ele>29.6</ele>
        <time>2026-01-22T10:38:04Z</time>
      </trkpt>
      <trkpt lat="48.85087" lon="2.36197">
        <ele>28.7</ele>
        <time>2026-01-22T10:38:13Z</time>
      </trkpt>
      <trkpt lat="48.85082" lon="2.36193">
        <ele>27.2</ele>
        <time>2026-01-22T10:38:20Z</time>
      </trkpt>
      <trkpt lat="48.8508" lon="2.36187">
        <ele>26.4</ele>
        <time>2026-01-22T10:38:25Z</time>
      </trkpt>
      <trkpt lat="48.85077" lon="2.3618">
        <ele>25.4</ele>
        <time>2026-01-22T10:38:31Z</time>
      </trkpt>
      <trkpt lat="48.85074" lon="2.36175">
        <ele>24.4</ele>
        <time>2026-01-22T10:38:37Z</time>
      </trkpt>
      <trkpt lat="48.85075" lon="2.36167">
        <ele>23.8</ele>
        <time>2026-01-22T10:38:46Z</time>
      </trkpt>
      <trkpt lat="48.85073" lon="2.36157">
        <ele>25.3</ele>
        <time>2026-01-22T10:39:27Z</time>
      </trkpt>
      <trkpt lat="48.85071" lon="2.3615">
        <ele>27.9</ele>
        <time>2026-01-22T10:39:30Z</time>
      </trkpt>
      <trkpt lat="48.85071" lon="2.36142">
        <ele>27.9</ele>
        <time>2026-01-22T10:39:37Z</time>
      </trkpt>
      <trkpt lat="48.85069" lon="2.36135">
        <ele>27.8</ele>
        <time>2026-01-22T10:39:44Z</time>
      </trkpt>
      <trkpt lat="48.85069" lon="2.36126">
        <ele>26.9</ele>
        <time>2026-01-22T10:39:55Z</time>
      </trkpt>
      <trkpt lat="48.85067" lon="2.36119">
        <ele>27.4</ele>
        <time>2026-01-22T10:40:02Z</time>
      </trkpt>
      <trkpt lat="48.85065" lon="2.36112">
        <ele>27.3</ele>
        <time>2026-01-22T10:40:09Z</time>
      </trkpt>
      <trkpt lat="48.85063" lon="2.36105">
        <ele>25.7</ele>
        <time>2026-01-22T10:40:18Z</time>
      </trkpt>
      <trkpt lat="48.85061" lon="2.36099">
        <ele>25.5</ele>
        <time>2026-01-22T10:40:24Z</time>
      </trkpt>
      <trkpt lat="48.85059" lon="2.36092">
        <ele>24.3</ele>
        <time>2026-01-22T10:40:31Z</time>
      </trkpt>
      <trkpt lat="48.85057" lon="2.36084">
        <ele>24.4</ele>
        <time>2026-01-22T10:40:35Z</time>
      </trkpt>
      <trkpt lat="48.85055" lon="2.36077">
        <ele>25.3</ele>
        <time>2026-01-22T10:40:39Z</time>
      </trkpt>
      <trkpt lat="48.85053" lon="2.3607">
        <ele>26.2</ele>
        <time>2026-01-22T10:40:44Z</time>
      </trkpt>
      <trkpt lat="48.85051" lon="2.36063">
        <ele>26.4</ele>
        <time>2026-01-22T10:40:50Z</time>
      </trkpt>
      <trkpt lat="48.85049" lon="2.36056">
        <ele>25.9</ele>
        <time>2026-01-22T10:40:56Z</time>
      </trkpt>
      <trkpt lat="48.85047" lon="2.36049">
        <ele>25.1</ele>
        <time>2026-01-22T10:41:03Z</time>
      </trkpt>
      <trkpt lat="48.85044" lon="2.36042">
        <ele>22.2</ele>
        <time>2026-01-22T10:41:10Z</time>
      </trkpt>
      <trkpt lat="48.85042" lon="2.36035">
        <ele>21.2</ele>
        <time>2026-01-22T10:41:15Z</time>
      </trkpt>
      <trkpt lat="48.85044" lon="2.36027">
        <ele>21.8</ele>
        <time>2026-01-22T10:41:21Z</time>
      </trkpt>
      <trkpt lat="48.85047" lon="2.36021">
        <ele>23.1</ele>
        <time>2026-01-22T10:41:25Z</time>
      </trkpt>
      <trkpt lat="48.85051" lon="2.36016">
        <ele>25.4</ele>
        <time>2026-01-22T10:41:30Z</time>
      </trkpt>
      <trkpt lat="48.85056" lon="2.36012">
        <ele>28</ele>
        <time>2026-01-22T10:41:49Z</time>
      </trkpt>
      <trkpt lat="48.8506" lon="2.36008">
        <ele>28.9</ele>
        <time>2026-01-22T10:41:54Z</time>
      </trkpt>
      <trkpt lat="48.85063" lon="2.36001">
        <ele>29.4</ele>
        <time>2026-01-22T10:42:02Z</time>
      </trkpt>
      <trkpt lat="48.85065" lon="2.35995">
        <ele>29.4</ele>
        <time>2026-01-22T10:42:08Z</time>
      </trkpt>
      <trkpt lat="48.85068" lon="2.35989">
        <ele>29.4</ele>
        <time>2026-01-22T10:42:15Z</time>
      </trkpt>
      <trkpt lat="48.85071" lon="2.35982">
        <ele>28.4</ele>
        <time>2026-01-22T10:42:23Z</time>
      </trkpt>
      <trkpt lat="48.85072" lon="2.35976">
        <ele>28.6</ele>
        <time>2026-01-22T10:42:29Z</time>
      </trkpt>
      <trkpt lat="48.85075" lon="2.35969">
        <ele>27.9</ele>
        <time>2026-01-22T10:42:35Z</time>
      </trkpt>
      <trkpt lat="48.85077" lon="2.35963">
        <ele>27.5</ele>
        <time>2026-01-22T10:42:42Z</time>
      </trkpt>
      <trkpt lat="48.85079" lon="2.35957">
        <ele>26.9</ele>
        <time>2026-01-22T10:42:47Z</time>
      </trkpt>
      <trkpt lat="48.85082" lon="2.3595">
        <ele>27.4</ele>
        <time>2026-01-22T10:42:52Z</time>
      </trkpt>
      <trkpt lat="48.85084" lon="2.35944">
        <ele>28</ele>
        <time>2026-01-22T10:42:56Z</time>
      </trkpt>
      <trkpt lat="48.85087" lon="2.35937">
        <ele>27.9</ele>
        <time>2026-01-22T10:43:01Z</time>
      </trkpt>
      <trkpt lat="48.85089" lon="2.3593">
        <ele>27.7</ele>
        <time>2026-01-22T10:43:07Z</time>
      </trkpt>
      <trkpt lat="48.85096" lon="2.35918">
        <ele>27.9</ele>
        <time>2026-01-22T10:43:30Z</time>
      </trkpt>
      <trkpt lat="48.85099" lon="2.35911">
        <ele>26.9</ele>
        <time>2026-01-22T10:43:33Z</time>
      </trkpt>
      <trkpt lat="48.85099" lon="2.35904">
        <ele>26.8</ele>
        <time>2026-01-22T10:43:38Z</time>
      </trkpt>
      <trkpt lat="48.85102" lon="2.35897">
        <ele>26.7</ele>
        <time>2026-01-22T10:43:44Z</time>
      </trkpt>
      <trkpt lat="48.85104" lon="2.35891">
        <ele>26.5</ele>
        <time>2026-01-22T10:43:51Z</time>
      </trkpt>
      <trkpt lat="48.85106" lon="2.35884">
        <ele>26.3</ele>
        <time>2026-01-22T10:43:57Z</time>
      </trkpt>
      <trkpt lat="48.85109" lon="2.35879">
        <ele>26.2</ele>
        <time>2026-01-22T10:44:04Z</time>
      </trkpt>
      <trkpt lat="48.85112" lon="2.35872">
        <ele>25.7</ele>
        <time>2026-01-22T10:44:11Z</time>
      </trkpt>
      <trkpt lat="48.85115" lon="2.35864">
        <ele>26.3</ele>
        <time>2026-01-22T10:44:16Z</time>
      </trkpt>
      <trkpt lat="48.85118" lon="2.35857">
        <ele>26.9</ele>
        <time>2026-01-22T10:44:22Z</time>
      </trkpt>
      <trkpt lat="48.85119" lon="2.3585">
        <ele>27.2</ele>
        <time>2026-01-22T10:44:29Z</time>
      </trkpt>
      <trkpt lat="48.8512" lon="2.35843">
        <ele>25.7</ele>
        <time>2026-01-22T10:44:36Z</time>
      </trkpt>
      <trkpt lat="48.85121" lon="2.35837">
        <ele>23.8</ele>
        <time>2026-01-22T10:44:42Z</time>
      </trkpt>
      <trkpt lat="48.85124" lon="2.3583">
        <ele>24.1</ele>
        <time>2026-01-22T10:44:47Z</time>
      </trkpt>
      <trkpt lat="48.85126" lon="2.35823">
        <ele>24.9</ele>
        <time>2026-01-22T10:44:52Z</time>
      </trkpt>
      <trkpt lat="48.85129" lon="2.35816">
        <ele>27.3</ele>
        <time>2026-01-22T10:44:59Z</time>
      </trkpt>
      <trkpt lat="48.85132" lon="2.3581">
        <ele>28.8</ele>
        <time>2026-01-22T10:45:09Z</time>
      </trkpt>
      <trkpt lat="48.85135" lon="2.35803">
        <ele>28.3</ele>
        <time>2026-01-22T10:45:17Z</time>
      </trkpt>
      <trkpt lat="48.85138" lon="2.35798">
        <ele>28.1</ele>
        <time>2026-01-22T10:45:24Z</time>
      </trkpt>
      <trkpt lat="48.85141" lon="2.35791">
        <ele>28.2</ele>
        <time>2026-01-22T10:45:29Z</time>
      </trkpt>
      <trkpt lat="48.85143" lon="2.35785">
        <ele>26.7</ele>
        <time>2026-01-22T10:45:36Z</time>
      </trkpt>
      <trkpt lat="48.85147" lon="2.3578">
        <ele>28.6</ele>
        <time>2026-01-22T10:45:46Z</time>
      </trkpt>
      <trkpt lat="48.85149" lon="2.35774">
        <ele>30.4</ele>
        <time>2026-01-22T10:45:53Z</time>
      </trkpt>
      <trkpt lat="48.85152" lon="2.35766">
        <ele>31.4</ele>
        <time>2026-01-22T10:46:05Z</time>
      </trkpt>
      <trkpt lat="48.85157" lon="2.35759">
        <ele>31.8</ele>
        <time>2026-01-22T10:46:34Z</time>
      </trkpt>
      <trkpt lat="48.85161" lon="2.35754">
        <ele>33.2</ele>
        <time>2026-01-22T10:46:43Z</time>
      </trkpt>
      <trkpt lat="48.85161" lon="2.35746">
        <ele>34.8</ele>
        <time>2026-01-22T10:46:47Z</time>
      </trkpt>
      <trkpt lat="48.85157" lon="2.35739">
        <ele>33.5</ele>
        <time>2026-01-22T10:47:27Z</time>
      </trkpt>
      <trkpt lat="48.85142" lon="2.35736">
        <ele>33.4</ele>
        <time>2026-01-22T10:47:46Z</time>
      </trkpt>
      <trkpt lat="48.85143" lon="2.35761">
        <ele>33.4</ele>
        <time>2026-01-22T10:47:52Z</time>
      </trkpt>
      <trkpt lat="48.85137" lon="2.35757">
        <ele>33.4</ele>
        <time>2026-01-22T10:48:05Z</time>
      </trkpt>
      <trkpt lat="48.85145" lon="2.35754">
        <ele>33.4</ele>
        <time>2026-01-22T10:48:18Z</time>
      </trkpt>
      <trkpt lat="48.85144" lon="2.35747">
        <ele>33.4</ele>
        <time>2026-01-22T10:48:31Z</time>
      </trkpt>
      <trkpt lat="48.85139" lon="2.35754">
        <ele>33.4</ele>
        <time>2026-01-22T10:48:57Z</time>
      </trkpt>
      <trkpt lat="48.8514" lon="2.35767">
        <ele>33.4</ele>
        <time>2026-01-22T10:49:04Z</time>
      </trkpt>
      <trkpt lat="48.85137" lon="2.3576">
        <ele>33.4</ele>
        <time>2026-01-22T10:49:11Z</time>
      </trkpt>
      <trkpt lat="48.85125" lon="2.35773">
        <ele>33.4</ele>
        <time>2026-01-22T10:49:17Z</time>
      </trkpt>
      <trkpt lat="48.8512" lon="2.35776">
        <ele>33.4</ele>
        <time>2026-01-22T10:49:24Z</time>
      </trkpt>
      <trkpt lat="48.85124" lon="2.35767">
        <ele>33.4</ele>
        <time>2026-01-22T10:49:30Z</time>
      </trkpt>
      <trkpt lat="48.85141" lon="2.35745">
        <ele>33.4</ele>
        <time>2026-01-22T10:49:34Z</time>
      </trkpt>
      <trkpt lat="48.85134" lon="2.35742">
        <ele>12.5</ele>
        <time>2026-01-22T10:49:35Z</time>
      </trkpt>
      <trkpt lat="48.85131" lon="2.35748">
        <ele>21.4</ele>
        <time>2026-01-22T10:49:38Z</time>
      </trkpt>
      <trkpt lat="48.85127" lon="2.35753">
        <ele>17</ele>
        <time>2026-01-22T10:49:41Z</time>
      </trkpt>
      <trkpt lat="48.85123" lon="2.3576">
        <ele>9.5</ele>
        <time>2026-01-22T10:49:57Z</time>
      </trkpt>
      <trkpt lat="48.85124" lon="2.35768">
        <ele>-2.9</ele>
        <time>2026-01-22T10:50:08Z</time>
      </trkpt>
      <trkpt lat="48.85121" lon="2.35762">
        <ele>11</ele>
        <time>2026-01-22T10:50:25Z</time>
      </trkpt>
      <trkpt lat="48.85121" lon="2.35769">
        <ele>11</ele>
        <time>2026-01-22T10:50:36Z</time>
      </trkpt>
      <trkpt lat="48.85119" lon="2.35776">
        <ele>11</ele>
        <time>2026-01-22T10:50:38Z</time>
      </trkpt>
      <trkpt lat="48.85137" lon="2.35755">
        <ele>11</ele>
        <time>2026-01-22T10:50:41Z</time>
      </trkpt>
      <trkpt lat="48.85141" lon="2.35751">
        <ele>11.1</ele>
        <time>2026-01-22T10:50:43Z</time>
      </trkpt>
      <trkpt lat="48.85145" lon="2.35751">
        <ele>11.1</ele>
        <time>2026-01-22T10:50:51Z</time>
      </trkpt>
      <trkpt lat="48.85138" lon="2.35759">
        <ele>11</ele>
        <time>2026-01-22T10:50:58Z</time>
      </trkpt>
      <trkpt lat="48.85133" lon="2.35764">
        <ele>11</ele>
        <time>2026-01-22T10:50:59Z</time>
      </trkpt>
      <trkpt lat="48.85152" lon="2.35746">
        <ele>11</ele>
        <time>2026-01-22T10:51:00Z</time>
      </trkpt>
      <trkpt lat="48.85156" lon="2.3575">
        <ele>10.8</ele>
        <time>2026-01-22T10:51:06Z</time>
      </trkpt>
      <trkpt lat="48.85159" lon="2.35745">
        <ele>10.7</ele>
        <time>2026-01-22T10:51:12Z</time>
      </trkpt>
      <trkpt lat="48.85164" lon="2.35739">
        <ele>10.7</ele>
        <time>2026-01-22T10:51:16Z</time>
      </trkpt>
      <trkpt lat="48.85168" lon="2.35732">
        <ele>10.6</ele>
        <time>2026-01-22T10:51:19Z</time>
      </trkpt>
      <trkpt lat="48.85162" lon="2.35735">
        <ele>10.6</ele>
        <time>2026-01-22T10:51:23Z</time>
      </trkpt>
      <trkpt lat="48.85153" lon="2.35744">
        <ele>10.6</ele>
        <time>2026-01-22T10:51:25Z</time>
      </trkpt>
      <trkpt lat="48.85172" lon="2.3573">
        <ele>10.6</ele>
        <time>2026-01-22T10:51:26Z</time>
      </trkpt>
      <trkpt lat="48.85168" lon="2.35735">
        <ele>10.5</ele>
        <time>2026-01-22T10:51:28Z</time>
      </trkpt>
      <trkpt lat="48.85164" lon="2.3574">
        <ele>10.5</ele>
        <time>2026-01-22T10:51:29Z</time>
      </trkpt>
      <trkpt lat="48.85156" lon="2.35752">
        <ele>10.5</ele>
        <time>2026-01-22T10:51:30Z</time>
      </trkpt>
      <trkpt lat="48.8515" lon="2.35759">
        <ele>10.5</ele>
        <time>2026-01-22T10:51:31Z</time>
      </trkpt>
      <trkpt lat="48.85145" lon="2.35766">
        <ele>10.5</ele>
        <time>2026-01-22T10:51:32Z</time>
      </trkpt>
      <trkpt lat="48.85142" lon="2.3577">
        <ele>10.5</ele>
        <time>2026-01-22T10:51:33Z</time>
      </trkpt>
      <trkpt lat="48.85136" lon="2.3578">
        <ele>10.5</ele>
        <time>2026-01-22T10:51:34Z</time>
      </trkpt>
      <trkpt lat="48.85131" lon="2.35785">
        <ele>10.4</ele>
        <time>2026-01-22T10:51:36Z</time>
      </trkpt>
      <trkpt lat="48.85136" lon="2.35783">
        <ele>10.5</ele>
        <time>2026-01-22T10:51:45Z</time>
      </trkpt>
      <trkpt lat="48.85138" lon="2.35775">
        <ele>10.5</ele>
        <time>2026-01-22T10:51:49Z</time>
      </trkpt>
      <trkpt lat="48.85139" lon="2.35769">
        <ele>10.6</ele>
        <time>2026-01-22T10:51:54Z</time>
      </trkpt>
      <trkpt lat="48.85142" lon="2.3576">
        <ele>10.6</ele>
        <time>2026-01-22T10:51:58Z</time>
      </trkpt>
      <trkpt lat="48.85144" lon="2.35754">
        <ele>10.7</ele>
        <time>2026-01-22T10:52:00Z</time>
      </trkpt>
      <trkpt lat="48.85148" lon="2.35747">
        <ele>10.8</ele>
        <time>2026-01-22T10:52:03Z</time>
      </trkpt>
      <trkpt lat="48.85153" lon="2.35741">
        <ele>10.9</ele>
        <time>2026-01-22T10:52:06Z</time>
      </trkpt>
      <trkpt lat="48.85155" lon="2.35733">
        <ele>10.9</ele>
        <time>2026-01-22T10:52:12Z</time>
      </trkpt>
      <trkpt lat="48.85135" lon="2.35738">
        <ele>11</ele>
        <time>2026-01-22T10:52:15Z</time>
      </trkpt>
      <trkpt lat="48.8513" lon="2.3574">
        <ele>11</ele>
        <time>2026-01-22T10:52:16Z</time>
      </trkpt>
      <trkpt lat="48.85125" lon="2.35747">
        <ele>11.3</ele>
        <time>2026-01-22T10:52:21Z</time>
      </trkpt>
      <trkpt lat="48.85123" lon="2.35754">
        <ele>11.4</ele>
        <time>2026-01-22T10:52:24Z</time>
      </trkpt>
      <trkpt lat="48.85124" lon="2.35761">
        <ele>11.4</ele>
        <time>2026-01-22T10:52:29Z</time>
      </trkpt>
      <trkpt lat="48.85126" lon="2.35768">
        <ele>11.5</ele>
        <time>2026-01-22T10:52:33Z</time>
      </trkpt>
      <trkpt lat="48.8513" lon="2.3578">
        <ele>11.5</ele>
        <time>2026-01-22T10:52:35Z</time>
      </trkpt>
      <trkpt lat="48.85133" lon="2.35786">
        <ele>11.5</ele>
        <time>2026-01-22T10:52:36Z</time>
      </trkpt>
      <trkpt lat="48.85134" lon="2.35793">
        <ele>11.6</ele>
        <time>2026-01-22T10:52:38Z</time>
      </trkpt>
      <trkpt lat="48.85136" lon="2.35778">
        <ele>11.6</ele>
        <time>2026-01-22T10:52:41Z</time>
      </trkpt>
      <trkpt lat="48.8514" lon="2.35785">
        <ele>11.8</ele>
        <time>2026-01-22T10:52:44Z</time>
      </trkpt>
      <trkpt lat="48.85143" lon="2.3579">
        <ele>11.9</ele>
        <time>2026-01-22T10:52:47Z</time>
      </trkpt>
      <trkpt lat="48.85141" lon="2.35774">
        <ele>11.9</ele>
        <time>2026-01-22T10:52:49Z</time>
      </trkpt>
      <trkpt lat="48.8514" lon="2.35744">
        <ele>11.9</ele>
        <time>2026-01-22T10:52:53Z</time>
      </trkpt>
      <trkpt lat="48.85151" lon="2.35771">
        <ele>11.9</ele>
        <time>2026-01-22T10:52:53Z</time>
      </trkpt>
      <trkpt lat="48.85156" lon="2.35767">
        <ele>11.9</ele>
        <time>2026-01-22T10:52:56Z</time>
      </trkpt>
      <trkpt lat="48.85155" lon="2.35757">
        <ele>11.9</ele>
        <time>2026-01-22T10:52:57Z</time>
      </trkpt>
      <trkpt lat="48.85153" lon="2.3575">
        <ele>11.9</ele>
        <time>2026-01-22T10:52:59Z</time>
      </trkpt>
      <trkpt lat="48.85144" lon="2.35738">
        <ele>11.9</ele>
        <time>2026-01-22T10:53:00Z</time>
      </trkpt>
      <trkpt lat="48.85137" lon="2.35733">
        <ele>11.9</ele>
        <time>2026-01-22T10:53:12Z</time>
      </trkpt>
      <trkpt lat="48.85133" lon="2.35754">
        <ele>11.9</ele>
        <time>2026-01-22T10:53:32Z</time>
      </trkpt>
      <trkpt lat="48.85138" lon="2.3574">
        <ele>11.9</ele>
        <time>2026-01-22T10:53:39Z</time>
      </trkpt>
      <trkpt lat="48.8517" lon="2.35743">
        <ele>11.9</ele>
        <time>2026-01-22T10:54:42Z</time>
      </trkpt>
      <trkpt lat="48.85172" lon="2.3575">
        <ele>-18.5</ele>
        <time>2026-01-22T10:54:43Z</time>
      </trkpt>
      <trkpt lat="48.85169" lon="2.35755">
        <ele>-22.4</ele>
        <time>2026-01-22T10:54:44Z</time>
      </trkpt>
      <trkpt lat="48.85164" lon="2.35749">
        <ele>-2.5</ele>
        <time>2026-01-22T10:54:47Z</time>
      </trkpt>
      <trkpt lat="48.8516" lon="2.35737">
        <ele>12.4</ele>
        <time>2026-01-22T10:55:28Z</time>
      </trkpt>
      <trkpt lat="48.85167" lon="2.35731">
        <ele>21.7</ele>
        <time>2026-01-22T10:55:44Z</time>
      </trkpt>
      <trkpt lat="48.85169" lon="2.35725">
        <ele>23.4</ele>
        <time>2026-01-22T10:55:52Z</time>
      </trkpt>
      <trkpt lat="48.85171" lon="2.35717">
        <ele>24.6</ele>
        <time>2026-01-22T10:56:03Z</time>
      </trkpt>
      <trkpt lat="48.85168" lon="2.35711">
        <ele>24.9</ele>
        <time>2026-01-22T10:56:05Z</time>
      </trkpt>
      <trkpt lat="48.85169" lon="2.35704">
        <ele>25.9</ele>
        <time>2026-01-22T10:56:09Z</time>
      </trkpt>
      <trkpt lat="48.85167" lon="2.35697">
        <ele>26.8</ele>
        <time>2026-01-22T10:56:14Z</time>
      </trkpt>
      <trkpt lat="48.85173" lon="2.35696">
        <ele>26.9</ele>
        <time>2026-01-22T10:56:18Z</time>
      </trkpt>
      <trkpt lat="48.85178" lon="2.35693">
        <ele>27.6</ele>
        <time>2026-01-22T10:56:22Z</time>
      </trkpt>
      <trkpt lat="48.85179" lon="2.35686">
        <ele>27.9</ele>
        <time>2026-01-22T10:56:31Z</time>
      </trkpt>
      <trkpt lat="48.85181" lon="2.35679">
        <ele>28</ele>
        <time>2026-01-22T10:56:39Z</time>
      </trkpt>
      <trkpt lat="48.85184" lon="2.35669">
        <ele>28</ele>
        <time>2026-01-22T10:56:52Z</time>
      </trkpt>
      <trkpt lat="48.85186" lon="2.35663">
        <ele>29.4</ele>
        <time>2026-01-22T10:56:54Z</time>
      </trkpt>
      <trkpt lat="48.8519" lon="2.35659">
        <ele>29.4</ele>
        <time>2026-01-22T10:57:03Z</time>
      </trkpt>
      <trkpt lat="48.85194" lon="2.3565">
        <ele>29.2</ele>
        <time>2026-01-22T10:57:26Z</time>
      </trkpt>
      <trkpt lat="48.85198" lon="2.35645">
        <ele>29.9</ele>
        <time>2026-01-22T10:57:29Z</time>
      </trkpt>
      <trkpt lat="48.852" lon="2.35635">
        <ele>31.9</ele>
        <time>2026-01-22T10:57:50Z</time>
      </trkpt>
      <trkpt lat="48.852" lon="2.35622">
        <ele>36.1</ele>
        <time>2026-01-22T10:58:23Z</time>
      </trkpt>
      <trkpt lat="48.85202" lon="2.35616">
        <ele>38</ele>
        <time>2026-01-22T10:58:29Z</time>
      </trkpt>
      <trkpt lat="48.85203" lon="2.35609">
        <ele>32</ele>
        <time>2026-01-22T10:59:01Z</time>
      </trkpt>
      <trkpt lat="48.85206" lon="2.35603">
        <ele>32</ele>
        <time>2026-01-22T10:59:05Z</time>
      </trkpt>
      <trkpt lat="48.8521" lon="2.356">
        <ele>32</ele>
        <time>2026-01-22T10:59:09Z</time>
      </trkpt>
      <trkpt lat="48.85212" lon="2.35592">
        <ele>31.4</ele>
        <time>2026-01-22T10:59:16Z</time>
      </trkpt>
      <trkpt lat="48.85209" lon="2.35585">
        <ele>31.4</ele>
        <time>2026-01-22T10:59:23Z</time>
      </trkpt>
      <trkpt lat="48.85219" lon="2.35579">
        <ele>31</ele>
        <time>2026-01-22T10:59:47Z</time>
      </trkpt>
      <trkpt lat="48.85223" lon="2.35575">
        <ele>33.1</ele>
        <time>2026-01-22T10:59:52Z</time>
      </trkpt>
      <trkpt lat="48.85226" lon="2.35569">
        <ele>33</ele>
        <time>2026-01-22T10:59:59Z</time>
      </trkpt>
      <trkpt lat="48.85229" lon="2.35563">
        <ele>32</ele>
        <time>2026-01-22T11:00:05Z</time>
      </trkpt>
      <trkpt lat="48.85231" lon="2.35556">
        <ele>30.3</ele>
        <time>2026-01-22T11:00:11Z</time>
      </trkpt>
      <trkpt lat="48.85233" lon="2.3555">
        <ele>29.9</ele>
        <time>2026-01-22T11:00:16Z</time>
      </trkpt>
      <trkpt lat="48.85236" lon="2.35543">
        <ele>29.8</ele>
        <time>2026-01-22T11:00:22Z</time>
      </trkpt>
      <trkpt lat="48.85238" lon="2.35536">
        <ele>29</ele>
        <time>2026-01-22T11:00:31Z</time>
      </trkpt>
      <trkpt lat="48.85237" lon="2.35529">
        <ele>28.7</ele>
        <time>2026-01-22T11:00:36Z</time>
      </trkpt>
      <trkpt lat="48.85239" lon="2.35521">
        <ele>28.3</ele>
        <time>2026-01-22T11:00:41Z</time>
      </trkpt>
      <trkpt lat="48.85241" lon="2.35515">
        <ele>27.1</ele>
        <time>2026-01-22T11:00:50Z</time>
      </trkpt>
      <trkpt lat="48.85243" lon="2.35508">
        <ele>25.6</ele>
        <time>2026-01-22T11:00:57Z</time>
      </trkpt>
      <trkpt lat="48.85246" lon="2.35501">
        <ele>24.5</ele>
        <time>2026-01-22T11:01:04Z</time>
      </trkpt>
      <trkpt lat="48.85249" lon="2.35494">
        <ele>24.9</ele>
        <time>2026-01-22T11:01:08Z</time>
      </trkpt>
      <trkpt lat="48.8525" lon="2.35487">
        <ele>24.6</ele>
        <time>2026-01-22T11:01:15Z</time>
      </trkpt>
      <trkpt lat="48.8525" lon="2.35477">
        <ele>22.5</ele>
        <time>2026-01-22T11:01:25Z</time>
      </trkpt>
      <trkpt lat="48.8525" lon="2.3547">
        <ele>21.3</ele>
        <time>2026-01-22T11:01:32Z</time>
      </trkpt>
      <trkpt lat="48.85252" lon="2.35464">
        <ele>20.2</ele>
        <time>2026-01-22T11:01:36Z</time>
      </trkpt>
      <trkpt lat="48.85255" lon="2.35457">
        <ele>19.7</ele>
        <time>2026-01-22T11:01:40Z</time>
      </trkpt>
      <trkpt lat="48.85257" lon="2.3545">
        <ele>19.1</ele>
        <time>2026-01-22T11:01:44Z</time>
      </trkpt>
      <trkpt lat="48.8526" lon="2.35443">
        <ele>17.3</ele>
        <time>2026-01-22T11:01:52Z</time>
      </trkpt>
      <trkpt lat="48.85262" lon="2.35436">
        <ele>16.3</ele>
        <time>2026-01-22T11:01:58Z</time>
      </trkpt>
      <trkpt lat="48.85267" lon="2.35433">
        <ele>15</ele>
        <time>2026-01-22T11:02:08Z</time>
      </trkpt>
      <trkpt lat="48.85272" lon="2.3543">
        <ele>15.9</ele>
        <time>2026-01-22T11:02:14Z</time>
      </trkpt>
      <trkpt lat="48.85273" lon="2.35423">
        <ele>17.7</ele>
        <time>2026-01-22T11:02:19Z</time>
      </trkpt>
      <trkpt lat="48.85276" lon="2.35417">
        <ele>17.8</ele>
        <time>2026-01-22T11:02:23Z</time>
      </trkpt>
      <trkpt lat="48.85278" lon="2.3541">
        <ele>18.4</ele>
        <time>2026-01-22T11:02:29Z</time>
      </trkpt>
      <trkpt lat="48.8528" lon="2.35404">
        <ele>18.3</ele>
        <time>2026-01-22T11:02:35Z</time>
      </trkpt>
      <trkpt lat="48.85284" lon="2.35397">
        <ele>19.5</ele>
        <time>2026-01-22T11:02:41Z</time>
      </trkpt>
      <trkpt lat="48.85287" lon="2.35392">
        <ele>19.5</ele>
        <time>2026-01-22T11:02:47Z</time>
      </trkpt>
      <trkpt lat="48.85284" lon="2.35383">
        <ele>19.9</ele>
        <time>2026-01-22T11:02:51Z</time>
      </trkpt>
      <trkpt lat="48.85287" lon="2.35376">
        <ele>20.1</ele>
        <time>2026-01-22T11:02:55Z</time>
      </trkpt>
      <trkpt lat="48.85291" lon="2.35371">
        <ele>22.3</ele>
        <time>2026-01-22T11:03:01Z</time>
      </trkpt>
      <trkpt lat="48.8529" lon="2.35363">
        <ele>23.5</ele>
        <time>2026-01-22T11:03:07Z</time>
      </trkpt>
      <trkpt lat="48.85288" lon="2.35354">
        <ele>25.7</ele>
        <time>2026-01-22T11:03:16Z</time>
      </trkpt>
      <trkpt lat="48.85285" lon="2.35348">
        <ele>25.8</ele>
        <time>2026-01-22T11:03:20Z</time>
      </trkpt>
      <trkpt lat="48.85283" lon="2.35342">
        <ele>24.9</ele>
        <time>2026-01-22T11:03:25Z</time>
      </trkpt>
      <trkpt lat="48.85279" lon="2.35335">
        <ele>24</ele>
        <time>2026-01-22T11:03:30Z</time>
      </trkpt>
      <trkpt lat="48.85279" lon="2.35328">
        <ele>23.1</ele>
        <time>2026-01-22T11:03:35Z</time>
      </trkpt>
      <trkpt lat="48.85279" lon="2.35319">
        <ele>23.4</ele>
        <time>2026-01-22T11:03:38Z</time>
      </trkpt>
      <trkpt lat="48.85278" lon="2.35312">
        <ele>23.6</ele>
        <time>2026-01-22T11:03:43Z</time>
      </trkpt>
      <trkpt lat="48.85276" lon="2.35306">
        <ele>23.3</ele>
        <time>2026-01-22T11:03:49Z</time>
      </trkpt>
      <trkpt lat="48.85275" lon="2.35299">
        <ele>22.4</ele>
        <time>2026-01-22T11:03:56Z</time>
      </trkpt>
      <trkpt lat="48.85273" lon="2.35292">
        <ele>21.8</ele>
        <time>2026-01-22T11:04:02Z</time>
      </trkpt>
      <trkpt lat="48.85273" lon="2.35284">
        <ele>21.5</ele>
        <time>2026-01-22T11:04:08Z</time>
      </trkpt>
      <trkpt lat="48.85273" lon="2.35277">
        <ele>21.4</ele>
        <time>2026-01-22T11:04:13Z</time>
      </trkpt>
      <trkpt lat="48.85272" lon="2.3527">
        <ele>20.5</ele>
        <time>2026-01-22T11:04:19Z</time>
      </trkpt>
      <trkpt lat="48.85271" lon="2.35262">
        <ele>19.3</ele>
        <time>2026-01-22T11:04:26Z</time>
      </trkpt>
      <trkpt lat="48.85269" lon="2.35255">
        <ele>18.2</ele>
        <time>2026-01-22T11:04:30Z</time>
      </trkpt>
      <trkpt lat="48.85267" lon="2.35248">
        <ele>18.8</ele>
        <time>2026-01-22T11:04:35Z</time>
      </trkpt>
      <trkpt lat="48.85264" lon="2.35242">
        <ele>19.8</ele>
        <time>2026-01-22T11:04:42Z</time>
      </trkpt>
      <trkpt lat="48.8526" lon="2.3523">
        <ele>22</ele>
        <time>2026-01-22T11:05:14Z</time>
      </trkpt>
      <trkpt lat="48.85255" lon="2.35231">
        <ele>26.1</ele>
        <time>2026-01-22T11:05:32Z</time>
      </trkpt>
      <trkpt lat="48.8525" lon="2.35229">
        <ele>25.5</ele>
        <time>2026-01-22T11:05:37Z</time>
      </trkpt>
      <trkpt lat="48.85245" lon="2.35226">
        <ele>24.6</ele>
        <time>2026-01-22T11:05:42Z</time>
      </trkpt>
      <trkpt lat="48.8524" lon="2.35225">
        <ele>21.4</ele>
        <time>2026-01-22T11:05:50Z</time>
      </trkpt>
      <trkpt lat="48.85236" lon="2.35222">
        <ele>20.1</ele>
        <time>2026-01-22T11:05:54Z</time>
      </trkpt>
      <trkpt lat="48.85232" lon="2.35219">
        <ele>20.6</ele>
        <time>2026-01-22T11:06:01Z</time>
      </trkpt>
      <trkpt lat="48.85227" lon="2.35222">
        <ele>20.1</ele>
        <time>2026-01-22T11:06:13Z</time>
      </trkpt>
      <trkpt lat="48.85223" lon="2.35219">
        <ele>20.9</ele>
        <time>2026-01-22T11:06:20Z</time>
      </trkpt>
      <trkpt lat="48.85218" lon="2.35216">
        <ele>22.3</ele>
        <time>2026-01-22T11:06:26Z</time>
      </trkpt>
      <trkpt lat="48.85213" lon="2.35213">
        <ele>22.5</ele>
        <time>2026-01-22T11:06:32Z</time>
      </trkpt>
      <trkpt lat="48.85209" lon="2.3521">
        <ele>22</ele>
        <time>2026-01-22T11:06:38Z</time>
      </trkpt>
      <trkpt lat="48.85198" lon="2.35206">
        <ele>22.2</ele>
        <time>2026-01-22T11:06:58Z</time>
      </trkpt>
      <trkpt lat="48.85187" lon="2.35203">
        <ele>21.8</ele>
        <time>2026-01-22T11:09:06Z</time>
      </trkpt>
      <trkpt lat="48.85194" lon="2.35204">
        <ele>23.5</ele>
        <time>2026-01-22T11:09:52Z</time>
      </trkpt>
      <trkpt lat="48.85201" lon="2.35204">
        <ele>24</ele>
        <time>2026-01-22T11:14:33Z</time>
      </trkpt>
      <trkpt lat="48.85194" lon="2.35201">
        <ele>25.2</ele>
        <time>2026-01-22T11:16:37Z</time>
      </trkpt>
      <trkpt lat="48.852" lon="2.35205">
        <ele>24.7</ele>
        <time>2026-01-22T11:33:12Z</time>
      </trkpt>
      <trkpt lat="48.85209" lon="2.35215">
        <ele>24.4</ele>
        <time>2026-01-22T11:35:51Z</time>
      </trkpt>
      <trkpt lat="48.85216" lon="2.35222">
        <ele>23</ele>
        <time>2026-01-22T11:38:02Z</time>
      </trkpt>
      <trkpt lat="48.8522" lon="2.35225">
        <ele>23</ele>
        <time>2026-01-22T11:40:14Z</time>
      </trkpt>
      <trkpt lat="48.85225" lon="2.35226">
        <ele>23.3</ele>
        <time>2026-01-22T11:40:39Z</time>
      </trkpt>
      <trkpt lat="48.8523" lon="2.35224">
        <ele>23.2</ele>
        <time>2026-01-22T11:40:45Z</time>
      </trkpt>
      <trkpt lat="48.85233" lon="2.35219">
        <ele>23.3</ele>
        <time>2026-01-22T11:40:55Z</time>
      </trkpt>
      <trkpt lat="48.8524" lon="2.35219">
        <ele>23.5</ele>
        <time>2026-01-22T11:41:48Z</time>
      </trkpt>
      <trkpt lat="48.85245" lon="2.3522">
        <ele>25.5</ele>
        <time>2026-01-22T11:41:54Z</time>
      </trkpt>
      <trkpt lat="48.8525" lon="2.35222">
        <ele>25.5</ele>
        <time>2026-01-22T11:42:02Z</time>
      </trkpt>
      <trkpt lat="48.85254" lon="2.35224">
        <ele>24.4</ele>
        <time>2026-01-22T11:42:08Z</time>
      </trkpt>
      <trkpt lat="48.85262" lon="2.35225">
        <ele>26.3</ele>
        <time>2026-01-22T11:42:29Z</time>
      </trkpt>
      <trkpt lat="48.85266" lon="2.35228">
        <ele>29</ele>
        <time>2026-01-22T11:42:35Z</time>
      </trkpt>
      <trkpt lat="48.85271" lon="2.3523">
        <ele>29.5</ele>
        <time>2026-01-22T11:42:41Z</time>
      </trkpt>
      <trkpt lat="48.85275" lon="2.35226">
        <ele>29.6</ele>
        <time>2026-01-22T11:42:49Z</time>
      </trkpt>
      <trkpt lat="48.85279" lon="2.35223">
        <ele>29.8</ele>
        <time>2026-01-22T11:42:53Z</time>
      </trkpt>
      <trkpt lat="48.85283" lon="2.3522">
        <ele>29.7</ele>
        <time>2026-01-22T11:42:57Z</time>
      </trkpt>
      <trkpt lat="48.85289" lon="2.35219">
        <ele>29.9</ele>
        <time>2026-01-22T11:43:01Z</time>
      </trkpt>
      <trkpt lat="48.85294" lon="2.35218">
        <ele>29.9</ele>
        <time>2026-01-22T11:43:05Z</time>
      </trkpt>
      <trkpt lat="48.85299" lon="2.35218">
        <ele>30.7</ele>
        <time>2026-01-22T11:43:12Z</time>
      </trkpt>
      <trkpt lat="48.85303" lon="2.35213">
        <ele>30.2</ele>
        <time>2026-01-22T11:43:21Z</time>
      </trkpt>
      <trkpt lat="48.85308" lon="2.35212">
        <ele>29.6</ele>
        <time>2026-01-22T11:43:27Z</time>
      </trkpt>
      <trkpt lat="48.85313" lon="2.35212">
        <ele>28.4</ele>
        <time>2026-01-22T11:43:32Z</time>
      </trkpt>
      <trkpt lat="48.85317" lon="2.35211">
        <ele>26.3</ele>
        <time>2026-01-22T11:43:39Z</time>
      </trkpt>
      <trkpt lat="48.85322" lon="2.3521">
        <ele>25.9</ele>
        <time>2026-01-22T11:43:46Z</time>
      </trkpt>
      <trkpt lat="48.85327" lon="2.35204">
        <ele>24.1</ele>
        <time>2026-01-22T11:43:53Z</time>
      </trkpt>
      <trkpt lat="48.85329" lon="2.35197">
        <ele>23.2</ele>
        <time>2026-01-22T11:43:56Z</time>
      </trkpt>
      <trkpt lat="48.85332" lon="2.3519">
        <ele>22.5</ele>
        <time>2026-01-22T11:44:00Z</time>
      </trkpt>
      <trkpt lat="48.85337" lon="2.35191">
        <ele>20.9</ele>
        <time>2026-01-22T11:44:08Z</time>
      </trkpt>
      <trkpt lat="48.85342" lon="2.35191">
        <ele>19.8</ele>
        <time>2026-01-22T11:44:14Z</time>
      </trkpt>
      <trkpt lat="48.85347" lon="2.35189">
        <ele>18.9</ele>
        <time>2026-01-22T11:44:20Z</time>
      </trkpt>
      <trkpt lat="48.85352" lon="2.35188">
        <ele>18.4</ele>
        <time>2026-01-22T11:44:24Z</time>
      </trkpt>
      <trkpt lat="48.85357" lon="2.35186">
        <ele>18.1</ele>
        <time>2026-01-22T11:44:29Z</time>
      </trkpt>
      <trkpt lat="48.85362" lon="2.35184">
        <ele>18.4</ele>
        <time>2026-01-22T11:44:53Z</time>
      </trkpt>
      <trkpt lat="48.85367" lon="2.35183">
        <ele>18.7</ele>
        <time>2026-01-22T11:45:00Z</time>
      </trkpt>
      <trkpt lat="48.85376" lon="2.35183">
        <ele>19.7</ele>
        <time>2026-01-22T11:46:56Z</time>
      </trkpt>
      <trkpt lat="48.85381" lon="2.35184">
        <ele>22.6</ele>
        <time>2026-01-22T11:47:07Z</time>
      </trkpt>
      <trkpt lat="48.85385" lon="2.35179">
        <ele>25</ele>
        <time>2026-01-22T11:47:15Z</time>
      </trkpt>
      <trkpt lat="48.85389" lon="2.35175">
        <ele>25.1</ele>
        <time>2026-01-22T11:47:21Z</time>
      </trkpt>
      <trkpt lat="48.85393" lon="2.35172">
        <ele>25.8</ele>
        <time>2026-01-22T11:47:26Z</time>
      </trkpt>
      <trkpt lat="48.85396" lon="2.35167">
        <ele>25.1</ele>
        <time>2026-01-22T11:48:04Z</time>
      </trkpt>
      <trkpt lat="48.85388" lon="2.35169">
        <ele>24.1</ele>
        <time>2026-01-22T11:48:26Z</time>
      </trkpt>
      <trkpt lat="48.85391" lon="2.35162">
        <ele>24.2</ele>
        <time>2026-01-22T11:49:01Z</time>
      </trkpt>
      <trkpt lat="48.85394" lon="2.35158">
        <ele>24.3</ele>
        <time>2026-01-22T11:49:08Z</time>
      </trkpt>
      <trkpt lat="48.85399" lon="2.35156">
        <ele>24.7</ele>
        <time>2026-01-22T11:49:15Z</time>
      </trkpt>
      <trkpt lat="48.85404" lon="2.35153">
        <ele>25.8</ele>
        <time>2026-01-22T11:49:21Z</time>
      </trkpt>
      <trkpt lat="48.85408" lon="2.35148">
        <ele>27.2</ele>
        <time>2026-01-22T11:49:27Z</time>
      </trkpt>
      <trkpt lat="48.85412" lon="2.35144">
        <ele>29.5</ele>
        <time>2026-01-22T11:49:36Z</time>
      </trkpt>
      <trkpt lat="48.85416" lon="2.35139">
        <ele>29</ele>
        <time>2026-01-22T11:49:42Z</time>
      </trkpt>
      <trkpt lat="48.85419" lon="2.35133">
        <ele>27.4</ele>
        <time>2026-01-22T11:49:49Z</time>
      </trkpt>
      <trkpt lat="48.85423" lon="2.35129">
        <ele>25.7</ele>
        <time>2026-01-22T11:49:54Z</time>
      </trkpt>
      <trkpt lat="48.85426" lon="2.35123">
        <ele>24.1</ele>
        <time>2026-01-22T11:49:59Z</time>
      </trkpt>
      <trkpt lat="48.85428" lon="2.35116">
        <ele>23.7</ele>
        <time>2026-01-22T11:50:05Z</time>
      </trkpt>
      <trkpt lat="48.85433" lon="2.35113">
        <ele>23.3</ele>
        <time>2026-01-22T11:50:08Z</time>
      </trkpt>
      <trkpt lat="48.85438" lon="2.35111">
        <ele>22.8</ele>
        <time>2026-01-22T11:50:11Z</time>
      </trkpt>
      <trkpt lat="48.85442" lon="2.35106">
        <ele>23.2</ele>
        <time>2026-01-22T11:50:17Z</time>
      </trkpt>
      <trkpt lat="48.85446" lon="2.351">
        <ele>22.1</ele>
        <time>2026-01-22T11:50:25Z</time>
      </trkpt>
      <trkpt lat="48.85447" lon="2.35093">
        <ele>22.4</ele>
        <time>2026-01-22T11:50:30Z</time>
      </trkpt>
      <trkpt lat="48.8545" lon="2.35088">
        <ele>24.3</ele>
        <time>2026-01-22T11:50:40Z</time>
      </trkpt>
      <trkpt lat="48.85455" lon="2.35085">
        <ele>24.4</ele>
        <time>2026-01-22T11:50:48Z</time>
      </trkpt>
      <trkpt lat="48.8546" lon="2.35083">
        <ele>24.6</ele>
        <time>2026-01-22T11:50:52Z</time>
      </trkpt>
      <trkpt lat="48.85465" lon="2.3508">
        <ele>24.8</ele>
        <time>2026-01-22T11:50:55Z</time>
      </trkpt>
      <trkpt lat="48.85465" lon="2.3507">
        <ele>24.8</ele>
        <time>2026-01-22T11:51:03Z</time>
      </trkpt>
      <trkpt lat="48.85468" lon="2.35055">
        <ele>26.9</ele>
        <time>2026-01-22T11:51:22Z</time>
      </trkpt>
      <trkpt lat="48.85472" lon="2.3505">
        <ele>29.8</ele>
        <time>2026-01-22T11:51:25Z</time>
      </trkpt>
      <trkpt lat="48.85467" lon="2.35049">
        <ele>32</ele>
        <time>2026-01-22T11:51:36Z</time>
      </trkpt>
      <trkpt lat="48.85464" lon="2.35054">
        <ele>30.9</ele>
        <time>2026-01-22T11:51:45Z</time>
      </trkpt>
      <trkpt lat="48.85468" lon="2.35058">
        <ele>29.5</ele>
        <time>2026-01-22T11:51:54Z</time>
      </trkpt>
      <trkpt lat="48.85472" lon="2.35062">
        <ele>30.1</ele>
        <time>2026-01-22T11:51:59Z</time>
      </trkpt>
      <trkpt lat="48.85467" lon="2.3506">
        <ele>30.5</ele>
        <time>2026-01-22T11:52:25Z</time>
      </trkpt>
      <trkpt lat="48.85462" lon="2.35058">
        <ele>27.5</ele>
        <time>2026-01-22T11:52:58Z</time>
      </trkpt>
      <trkpt lat="48.85458" lon="2.35053">
        <ele>25.9</ele>
        <time>2026-01-22T11:53:06Z</time>
      </trkpt>
      <trkpt lat="48.85454" lon="2.35049">
        <ele>24.9</ele>
        <time>2026-01-22T11:53:11Z</time>
      </trkpt>
      <trkpt lat="48.85456" lon="2.35042">
        <ele>24.4</ele>
        <time>2026-01-22T11:53:14Z</time>
      </trkpt>
      <trkpt lat="48.85459" lon="2.35035">
        <ele>24.5</ele>
        <time>2026-01-22T11:53:17Z</time>
      </trkpt>
      <trkpt lat="48.85459" lon="2.35028">
        <ele>25</ele>
        <time>2026-01-22T11:53:21Z</time>
      </trkpt>
      <trkpt lat="48.85456" lon="2.35022">
        <ele>25.7</ele>
        <time>2026-01-22T11:53:25Z</time>
      </trkpt>
      <trkpt lat="48.85453" lon="2.35016">
        <ele>28.3</ele>
        <time>2026-01-22T11:53:34Z</time>
      </trkpt>
      <trkpt lat="48.85448" lon="2.35014">
        <ele>28.9</ele>
        <time>2026-01-22T11:53:37Z</time>
      </trkpt>
      <trkpt lat="48.85443" lon="2.35012">
        <ele>28.1</ele>
        <time>2026-01-22T11:53:41Z</time>
      </trkpt>
      <trkpt lat="48.85438" lon="2.35013">
        <ele>26</ele>
        <time>2026-01-22T11:53:49Z</time>
      </trkpt>
      <trkpt lat="48.85433" lon="2.35005">
        <ele>23.3</ele>
        <time>2026-01-22T11:54:20Z</time>
      </trkpt>
      <trkpt lat="48.85427" lon="2.35007">
        <ele>25.4</ele>
        <time>2026-01-22T11:54:26Z</time>
      </trkpt>
      <trkpt lat="48.85422" lon="2.35011">
        <ele>23.4</ele>
        <time>2026-01-22T11:54:35Z</time>
      </trkpt>
      <trkpt lat="48.85418" lon="2.35027">
        <ele>20.7</ele>
        <time>2026-01-22T11:54:58Z</time>
      </trkpt>
      <trkpt lat="48.85416" lon="2.35034">
        <ele>18.7</ele>
        <time>2026-01-22T11:55:04Z</time>
      </trkpt>
      <trkpt lat="48.85412" lon="2.35041">
        <ele>19.8</ele>
        <time>2026-01-22T11:55:09Z</time>
      </trkpt>
      <trkpt lat="48.8541" lon="2.35047">
        <ele>22.4</ele>
        <time>2026-01-22T11:55:16Z</time>
      </trkpt>
      <trkpt lat="48.85406" lon="2.35051">
        <ele>23.5</ele>
        <time>2026-01-22T11:55:27Z</time>
      </trkpt>
      <trkpt lat="48.85399" lon="2.35063">
        <ele>23.8</ele>
        <time>2026-01-22T11:55:47Z</time>
      </trkpt>
      <trkpt lat="48.85394" lon="2.3507">
        <ele>24.6</ele>
        <time>2026-01-22T11:55:52Z</time>
      </trkpt>
      <trkpt lat="48.85388" lon="2.35074">
        <ele>24.8</ele>
        <time>2026-01-22T11:55:58Z</time>
      </trkpt>
      <trkpt lat="48.85383" lon="2.35077">
        <ele>26</ele>
        <time>2026-01-22T11:56:02Z</time>
      </trkpt>
      <trkpt lat="48.85378" lon="2.35078">
        <ele>26.3</ele>
        <time>2026-01-22T11:56:06Z</time>
      </trkpt>
      <trkpt lat="48.85374" lon="2.3508">
        <ele>26.7</ele>
        <time>2026-01-22T11:56:10Z</time>
      </trkpt>
      <trkpt lat="48.8537" lon="2.35084">
        <ele>27.7</ele>
        <time>2026-01-22T11:56:14Z</time>
      </trkpt>
      <trkpt lat="48.85365" lon="2.35085">
        <ele>27.9</ele>
        <time>2026-01-22T11:56:19Z</time>
      </trkpt>
      <trkpt lat="48.85361" lon="2.35089">
        <ele>28.5</ele>
        <time>2026-01-22T11:56:25Z</time>
      </trkpt>
      <trkpt lat="48.85352" lon="2.3509">
        <ele>35.1</ele>
        <time>2026-01-22T11:57:21Z</time>
      </trkpt>
      <trkpt lat="48.85344" lon="2.35083">
        <ele>43.4</ele>
        <time>2026-01-22T11:57:37Z</time>
      </trkpt>
      <trkpt lat="48.85339" lon="2.35082">
        <ele>43.4</ele>
        <time>2026-01-22T11:57:43Z</time>
      </trkpt>
      <trkpt lat="48.85334" lon="2.3508">
        <ele>43.1</ele>
        <time>2026-01-22T11:57:47Z</time>
      </trkpt>
      <trkpt lat="48.8533" lon="2.35076">
        <ele>41.9</ele>
        <time>2026-01-22T11:57:52Z</time>
      </trkpt>
      <trkpt lat="48.85326" lon="2.35072">
        <ele>42.1</ele>
        <time>2026-01-22T11:57:59Z</time>
      </trkpt>
      <trkpt lat="48.85315" lon="2.35064">
        <ele>42.6</ele>
        <time>2026-01-22T11:58:10Z</time>
      </trkpt>
      <trkpt lat="48.85316" lon="2.35055">
        <ele>43.6</ele>
        <time>2026-01-22T11:58:22Z</time>
      </trkpt>
      <trkpt lat="48.85318" lon="2.35047">
        <ele>41.9</ele>
        <time>2026-01-22T11:58:26Z</time>
      </trkpt>
      <trkpt lat="48.8532" lon="2.35039">
        <ele>40.5</ele>
        <time>2026-01-22T11:58:30Z</time>
      </trkpt>
      <trkpt lat="48.85324" lon="2.35033">
        <ele>38.9</ele>
        <time>2026-01-22T11:58:35Z</time>
      </trkpt>
      <trkpt lat="48.85326" lon="2.35027">
        <ele>37.2</ele>
        <time>2026-01-22T11:58:40Z</time>
      </trkpt>
      <trkpt lat="48.85329" lon="2.35018">
        <ele>36.9</ele>
        <time>2026-01-22T11:58:44Z</time>
      </trkpt>
      <trkpt lat="48.85331" lon="2.35012">
        <ele>37.7</ele>
        <time>2026-01-22T11:58:50Z</time>
      </trkpt>
      <trkpt lat="48.85333" lon="2.35005">
        <ele>38.4</ele>
        <time>2026-01-22T11:58:57Z</time>
      </trkpt>
      <trkpt lat="48.85335" lon="2.34998">
        <ele>39.7</ele>
        <time>2026-01-22T11:59:02Z</time>
      </trkpt>
      <trkpt lat="48.85336" lon="2.3499">
        <ele>41.3</ele>
        <time>2026-01-22T11:59:09Z</time>
      </trkpt>
      <trkpt lat="48.85341" lon="2.34985">
        <ele>41.6</ele>
        <time>2026-01-22T11:59:21Z</time>
      </trkpt>
      <trkpt lat="48.85346" lon="2.34983">
        <ele>40.9</ele>
        <time>2026-01-22T11:59:26Z</time>
      </trkpt>
      <trkpt lat="48.85347" lon="2.34975">
        <ele>39.5</ele>
        <time>2026-01-22T11:59:31Z</time>
      </trkpt>
      <trkpt lat="48.85345" lon="2.34967">
        <ele>40.1</ele>
        <time>2026-01-22T11:59:35Z</time>
      </trkpt>
      <trkpt lat="48.85344" lon="2.34961">
        <ele>40.3</ele>
        <time>2026-01-22T11:59:41Z</time>
      </trkpt>
      <trkpt lat="48.85346" lon="2.34953">
        <ele>39.2</ele>
        <time>2026-01-22T11:59:49Z</time>
      </trkpt>
      <trkpt lat="48.85345" lon="2.34946">
        <ele>39.1</ele>
        <time>2026-01-22T11:59:55Z</time>
      </trkpt>
      <trkpt lat="48.85346" lon="2.3494">
        <ele>39.1</ele>
        <time>2026-01-22T12:00:01Z</time>
      </trkpt>
      <trkpt lat="48.8535" lon="2.34935">
        <ele>37.8</ele>
        <time>2026-01-22T12:00:09Z</time>
      </trkpt>
      <trkpt lat="48.85352" lon="2.34928">
        <ele>36.8</ele>
        <time>2026-01-22T12:00:15Z</time>
      </trkpt>
      <trkpt lat="48.85357" lon="2.34924">
        <ele>36.6</ele>
        <time>2026-01-22T12:00:25Z</time>
      </trkpt>
      <trkpt lat="48.8536" lon="2.34919">
        <ele>34.9</ele>
        <time>2026-01-22T12:00:33Z</time>
      </trkpt>
      <trkpt lat="48.85365" lon="2.34914">
        <ele>34.1</ele>
        <time>2026-01-22T12:00:41Z</time>
      </trkpt>
      <trkpt lat="48.85367" lon="2.34908">
        <ele>32.7</ele>
        <time>2026-01-22T12:00:48Z</time>
      </trkpt>
      <trkpt lat="48.85365" lon="2.349">
        <ele>31</ele>
        <time>2026-01-22T12:00:57Z</time>
      </trkpt>
      <trkpt lat="48.85367" lon="2.34894">
        <ele>29.6</ele>
        <time>2026-01-22T12:01:09Z</time>
      </trkpt>
      <trkpt lat="48.85369" lon="2.34886">
        <ele>28.7</ele>
        <time>2026-01-22T12:01:20Z</time>
      </trkpt>
      <trkpt lat="48.85372" lon="2.34879">
        <ele>28.3</ele>
        <time>2026-01-22T12:01:26Z</time>
      </trkpt>
      <trkpt lat="48.85374" lon="2.34873">
        <ele>27.7</ele>
        <time>2026-01-22T12:01:32Z</time>
      </trkpt>
      <trkpt lat="48.85376" lon="2.34865">
        <ele>26.9</ele>
        <time>2026-01-22T12:01:39Z</time>
      </trkpt>
      <trkpt lat="48.8538" lon="2.3486">
        <ele>26.8</ele>
        <time>2026-01-22T12:01:45Z</time>
      </trkpt>
      <trkpt lat="48.85383" lon="2.34853">
        <ele>26.4</ele>
        <time>2026-01-22T12:01:52Z</time>
      </trkpt>
      <trkpt lat="48.85385" lon="2.34846">
        <ele>25.8</ele>
        <time>2026-01-22T12:01:57Z</time>
      </trkpt>
      <trkpt lat="48.85387" lon="2.34839">
        <ele>25.3</ele>
        <time>2026-01-22T12:02:04Z</time>
      </trkpt>
      <trkpt lat="48.85389" lon="2.34833">
        <ele>24.9</ele>
        <time>2026-01-22T12:02:11Z</time>
      </trkpt>
      <trkpt lat="48.85391" lon="2.34826">
        <ele>24.8</ele>
        <time>2026-01-22T12:02:17Z</time>
      </trkpt>
      <trkpt lat="48.85393" lon="2.3482">
        <ele>24.6</ele>
        <time>2026-01-22T12:02:23Z</time>
      </trkpt>
      <trkpt lat="48.85393" lon="2.34811">
        <ele>25</ele>
        <time>2026-01-22T12:02:27Z</time>
      </trkpt>
      <trkpt lat="48.85396" lon="2.34804">
        <ele>25.2</ele>
        <time>2026-01-22T12:02:32Z</time>
      </trkpt>
      <trkpt lat="48.85398" lon="2.34798">
        <ele>25.1</ele>
        <time>2026-01-22T12:02:36Z</time>
      </trkpt>
      <trkpt lat="48.854" lon="2.34791">
        <ele>26.3</ele>
        <time>2026-01-22T12:02:42Z</time>
      </trkpt>
      <trkpt lat="48.85405" lon="2.34789">
        <ele>25.5</ele>
        <time>2026-01-22T12:02:52Z</time>
      </trkpt>
      <trkpt lat="48.85407" lon="2.34784">
        <ele>24.8</ele>
        <time>2026-01-22T12:03:00Z</time>
      </trkpt>
      <trkpt lat="48.85409" lon="2.34777">
        <ele>25</ele>
        <time>2026-01-22T12:03:06Z</time>
      </trkpt>
      <trkpt lat="48.85412" lon="2.34772">
        <ele>24.3</ele>
        <time>2026-01-22T12:03:11Z</time>
      </trkpt>
      <trkpt lat="48.85412" lon="2.34764">
        <ele>25.6</ele>
        <time>2026-01-22T12:03:15Z</time>
      </trkpt>
      <trkpt lat="48.85415" lon="2.34757">
        <ele>27.5</ele>
        <time>2026-01-22T12:03:23Z</time>
      </trkpt>
      <trkpt lat="48.85413" lon="2.34744">
        <ele>29.3</ele>
        <time>2026-01-22T12:03:34Z</time>
      </trkpt>
      <trkpt lat="48.85417" lon="2.34739">
        <ele>30.2</ele>
        <time>2026-01-22T12:03:42Z</time>
      </trkpt>
      <trkpt lat="48.85422" lon="2.34741">
        <ele>30.3</ele>
        <time>2026-01-22T12:03:47Z</time>
      </trkpt>
      <trkpt lat="48.85427" lon="2.3474">
        <ele>30.5</ele>
        <time>2026-01-22T12:03:51Z</time>
      </trkpt>
      <trkpt lat="48.85433" lon="2.34742">
        <ele>31</ele>
        <time>2026-01-22T12:03:55Z</time>
      </trkpt>
      <trkpt lat="48.85437" lon="2.34746">
        <ele>34.5</ele>
        <time>2026-01-22T12:04:01Z</time>
      </trkpt>
      <trkpt lat="48.85442" lon="2.34748">
        <ele>36.6</ele>
        <time>2026-01-22T12:04:11Z</time>
      </trkpt>
      <trkpt lat="48.85445" lon="2.34752">
        <ele>36.2</ele>
        <time>2026-01-22T12:04:15Z</time>
      </trkpt>
      <trkpt lat="48.8545" lon="2.34756">
        <ele>36</ele>
        <time>2026-01-22T12:04:20Z</time>
      </trkpt>
      <trkpt lat="48.85455" lon="2.34761">
        <ele>35.7</ele>
        <time>2026-01-22T12:04:24Z</time>
      </trkpt>
      <trkpt lat="48.85459" lon="2.34766">
        <ele>35.7</ele>
        <time>2026-01-22T12:04:28Z</time>
      </trkpt>
      <trkpt lat="48.85463" lon="2.3477">
        <ele>34.9</ele>
        <time>2026-01-22T12:04:33Z</time>
      </trkpt>
      <trkpt lat="48.85467" lon="2.34773">
        <ele>34</ele>
        <time>2026-01-22T12:04:38Z</time>
      </trkpt>
      <trkpt lat="48.8547" lon="2.34779">
        <ele>33.7</ele>
        <time>2026-01-22T12:04:44Z</time>
      </trkpt>
      <trkpt lat="48.85475" lon="2.34782">
        <ele>33.3</ele>
        <time>2026-01-22T12:04:48Z</time>
      </trkpt>
      <trkpt lat="48.85479" lon="2.34785">
        <ele>33</ele>
        <time>2026-01-22T12:04:52Z</time>
      </trkpt>
      <trkpt lat="48.85485" lon="2.34787">
        <ele>32.5</ele>
        <time>2026-01-22T12:04:57Z</time>
      </trkpt>
      <trkpt lat="48.85489" lon="2.34792">
        <ele>32.5</ele>
        <time>2026-01-22T12:05:00Z</time>
      </trkpt>
      <trkpt lat="48.85496" lon="2.34798">
        <ele>32.3</ele>
        <time>2026-01-22T12:05:04Z</time>
      </trkpt>
      <trkpt lat="48.85499" lon="2.34802">
        <ele>32.3</ele>
        <time>2026-01-22T12:05:07Z</time>
      </trkpt>
      <trkpt lat="48.85504" lon="2.34804">
        <ele>32.5</ele>
        <time>2026-01-22T12:05:11Z</time>
      </trkpt>
      <trkpt lat="48.85509" lon="2.34806">
        <ele>32.5</ele>
        <time>2026-01-22T12:05:19Z</time>
      </trkpt>
      <trkpt lat="48.85514" lon="2.34809">
        <ele>30.9</ele>
        <time>2026-01-22T12:05:24Z</time>
      </trkpt>
      <trkpt lat="48.85519" lon="2.34812">
        <ele>29.1</ele>
        <time>2026-01-22T12:05:29Z</time>
      </trkpt>
      <trkpt lat="48.85523" lon="2.34815">
        <ele>28.3</ele>
        <time>2026-01-22T12:05:35Z</time>
      </trkpt>
      <trkpt lat="48.85528" lon="2.34815">
        <ele>28.3</ele>
        <time>2026-01-22T12:05:40Z</time>
      </trkpt>
      <trkpt lat="48.85532" lon="2.34817">
        <ele>27.7</ele>
        <time>2026-01-22T12:05:45Z</time>
      </trkpt>
      <trkpt lat="48.85538" lon="2.3482">
        <ele>26.9</ele>
        <time>2026-01-22T12:05:50Z</time>
      </trkpt>
      <trkpt lat="48.85543" lon="2.34823">
        <ele>26.9</ele>
        <time>2026-01-22T12:05:54Z</time>
      </trkpt>
      <trkpt lat="48.85547" lon="2.34825">
        <ele>27.9</ele>
        <time>2026-01-22T12:05:57Z</time>
      </trkpt>
      <trkpt lat="48.85552" lon="2.34829">
        <ele>28.1</ele>
        <time>2026-01-22T12:06:01Z</time>
      </trkpt>
      <trkpt lat="48.85557" lon="2.34831">
        <ele>27.5</ele>
        <time>2026-01-22T12:06:04Z</time>
      </trkpt>
      <trkpt lat="48.85561" lon="2.34834">
        <ele>26.2</ele>
        <time>2026-01-22T12:06:07Z</time>
      </trkpt>
      <trkpt lat="48.85566" lon="2.34837">
        <ele>27</ele>
        <time>2026-01-22T12:06:12Z</time>
      </trkpt>
      <trkpt lat="48.8557" lon="2.3484">
        <ele>27.6</ele>
        <time>2026-01-22T12:06:15Z</time>
      </trkpt>
      <trkpt lat="48.85571" lon="2.34847">
        <ele>27.7</ele>
        <time>2026-01-22T12:06:20Z</time>
      </trkpt>
      <trkpt lat="48.85575" lon="2.34853">
        <ele>26.8</ele>
        <time>2026-01-22T12:06:26Z</time>
      </trkpt>
      <trkpt lat="48.85579" lon="2.34856">
        <ele>26.1</ele>
        <time>2026-01-22T12:06:31Z</time>
      </trkpt>
      <trkpt lat="48.85585" lon="2.34858">
        <ele>25.1</ele>
        <time>2026-01-22T12:06:39Z</time>
      </trkpt>
      <trkpt lat="48.8559" lon="2.3486">
        <ele>24.5</ele>
        <time>2026-01-22T12:06:45Z</time>
      </trkpt>
      <trkpt lat="48.85595" lon="2.34862">
        <ele>25.5</ele>
        <time>2026-01-22T12:06:49Z</time>
      </trkpt>
      <trkpt lat="48.85599" lon="2.34864">
        <ele>26.7</ele>
        <time>2026-01-22T12:06:54Z</time>
      </trkpt>
      <trkpt lat="48.85604" lon="2.34867">
        <ele>27.2</ele>
        <time>2026-01-22T12:06:59Z</time>
      </trkpt>
      <trkpt lat="48.85608" lon="2.34871">
        <ele>26.7</ele>
        <time>2026-01-22T12:07:04Z</time>
      </trkpt>
      <trkpt lat="48.85613" lon="2.34873">
        <ele>26</ele>
        <time>2026-01-22T12:07:09Z</time>
      </trkpt>
      <trkpt lat="48.85618" lon="2.34874">
        <ele>25.3</ele>
        <time>2026-01-22T12:07:15Z</time>
      </trkpt>
      <trkpt lat="48.85623" lon="2.34877">
        <ele>23.7</ele>
        <time>2026-01-22T12:07:20Z</time>
      </trkpt>
      <trkpt lat="48.85627" lon="2.3488">
        <ele>23.6</ele>
        <time>2026-01-22T12:07:24Z</time>
      </trkpt>
      <trkpt lat="48.85632" lon="2.34884">
        <ele>23.7</ele>
        <time>2026-01-22T12:07:28Z</time>
      </trkpt>
      <trkpt lat="48.85636" lon="2.34886">
        <ele>24.1</ele>
        <time>2026-01-22T12:07:33Z</time>
      </trkpt>
      <trkpt lat="48.85641" lon="2.3489">
        <ele>23.6</ele>
        <time>2026-01-22T12:07:38Z</time>
      </trkpt>
      <trkpt lat="48.85645" lon="2.34893">
        <ele>23.3</ele>
        <time>2026-01-22T12:07:43Z</time>
      </trkpt>
      <trkpt lat="48.8565" lon="2.34896">
        <ele>23.2</ele>
        <time>2026-01-22T12:07:47Z</time>
      </trkpt>
      <trkpt lat="48.85654" lon="2.34899">
        <ele>22.7</ele>
        <time>2026-01-22T12:07:52Z</time>
      </trkpt>
      <trkpt lat="48.85658" lon="2.34903">
        <ele>22.2</ele>
        <time>2026-01-22T12:07:59Z</time>
      </trkpt>
      <trkpt lat="48.85662" lon="2.34896">
        <ele>27.2</ele>
        <time>2026-01-22T12:08:38Z</time>
      </trkpt>
      <trkpt lat="48.85665" lon="2.3489">
        <ele>27.9</ele>
        <time>2026-01-22T12:08:42Z</time>
      </trkpt>
      <trkpt lat="48.85668" lon="2.34884">
        <ele>26.6</ele>
        <time>2026-01-22T12:08:47Z</time>
      </trkpt>
      <trkpt lat="48.8567" lon="2.34877">
        <ele>26.4</ele>
        <time>2026-01-22T12:08:54Z</time>
      </trkpt>
      <trkpt lat="48.85675" lon="2.3488">
        <ele>25</ele>
        <time>2026-01-22T12:09:15Z</time>
      </trkpt>
      <trkpt lat="48.8568" lon="2.34882">
        <ele>24.6</ele>
        <time>2026-01-22T12:09:18Z</time>
      </trkpt>
      <trkpt lat="48.85685" lon="2.34887">
        <ele>24.6</ele>
        <time>2026-01-22T12:09:22Z</time>
      </trkpt>
      <trkpt lat="48.8569" lon="2.34889">
        <ele>23.7</ele>
        <time>2026-01-22T12:09:31Z</time>
      </trkpt>
      <trkpt lat="48.85694" lon="2.34891">
        <ele>22</ele>
        <time>2026-01-22T12:09:37Z</time>
      </trkpt>
      <trkpt lat="48.85699" lon="2.34893">
        <ele>21.8</ele>
        <time>2026-01-22T12:09:42Z</time>
      </trkpt>
      <trkpt lat="48.85703" lon="2.34895">
        <ele>19.6</ele>
        <time>2026-01-22T12:09:51Z</time>
      </trkpt>
      <trkpt lat="48.85708" lon="2.34897">
        <ele>18.5</ele>
        <time>2026-01-22T12:09:58Z</time>
      </trkpt>
      <trkpt lat="48.85713" lon="2.349">
        <ele>16.9</ele>
        <time>2026-01-22T12:10:04Z</time>
      </trkpt>
      <trkpt lat="48.85717" lon="2.34903">
        <ele>15.9</ele>
        <time>2026-01-22T12:10:16Z</time>
      </trkpt>
      <trkpt lat="48.85721" lon="2.34904">
        <ele>16.4</ele>
        <time>2026-01-22T12:10:22Z</time>
      </trkpt>
      <trkpt lat="48.85726" lon="2.34905">
        <ele>16.4</ele>
        <time>2026-01-22T12:10:29Z</time>
      </trkpt>
      <trkpt lat="48.85731" lon="2.34906">
        <ele>16.6</ele>
        <time>2026-01-22T12:10:33Z</time>
      </trkpt>
      <trkpt lat="48.85735" lon="2.34909">
        <ele>16.3</ele>
        <time>2026-01-22T12:10:37Z</time>
      </trkpt>
      <trkpt lat="48.8574" lon="2.34912">
        <ele>16.2</ele>
        <time>2026-01-22T12:10:43Z</time>
      </trkpt>
      <trkpt lat="48.85744" lon="2.34917">
        <ele>16.5</ele>
        <time>2026-01-22T12:10:51Z</time>
      </trkpt>
      <trkpt lat="48.85748" lon="2.3492">
        <ele>17.3</ele>
        <time>2026-01-22T12:10:56Z</time>
      </trkpt>
      <trkpt lat="48.85753" lon="2.3492">
        <ele>20.5</ele>
        <time>2026-01-22T12:11:05Z</time>
      </trkpt>
      <trkpt lat="48.85757" lon="2.34916">
        <ele>22.2</ele>
        <time>2026-01-22T12:11:10Z</time>
      </trkpt>
      <trkpt lat="48.85762" lon="2.34915">
        <ele>23.1</ele>
        <time>2026-01-22T12:11:16Z</time>
      </trkpt>
      <trkpt lat="48.85767" lon="2.34916">
        <ele>22.6</ele>
        <time>2026-01-22T12:11:20Z</time>
      </trkpt>
      <trkpt lat="48.85772" lon="2.3492">
        <ele>22.7</ele>
        <time>2026-01-22T12:11:25Z</time>
      </trkpt>
      <trkpt lat="48.85776" lon="2.34923">
        <ele>22.6</ele>
        <time>2026-01-22T12:11:30Z</time>
      </trkpt>
      <trkpt lat="48.8578" lon="2.34926">
        <ele>22.9</ele>
        <time>2026-01-22T12:11:37Z</time>
      </trkpt>
      <trkpt lat="48.85778" lon="2.34935">
        <ele>22.8</ele>
        <time>2026-01-22T12:13:13Z</time>
      </trkpt>
      <trkpt lat="48.85784" lon="2.34927">
        <ele>22</ele>
        <time>2026-01-22T12:16:43Z</time>
      </trkpt>
      <trkpt lat="48.8578" lon="2.34935">
        <ele>24.6</ele>
        <time>2026-01-22T12:18:25Z</time>
      </trkpt>
      <trkpt lat="48.85786" lon="2.34931">
        <ele>25.6</ele>
        <time>2026-01-22T12:21:46Z</time>
      </trkpt>
      <trkpt lat="48.85789" lon="2.34938">
        <ele>25.9</ele>
        <time>2026-01-22T12:22:15Z</time>
      </trkpt>
      <trkpt lat="48.8579" lon="2.34926">
        <ele>27.2</ele>
        <time>2026-01-22T12:25:37Z</time>
      </trkpt>
      <trkpt lat="48.85793" lon="2.34931">
        <ele>30.1</ele>
        <time>2026-01-22T12:28:09Z</time>
      </trkpt>
      <trkpt lat="48.85797" lon="2.34935">
        <ele>29.4</ele>
        <time>2026-01-22T12:28:15Z</time>
      </trkpt>
      <trkpt lat="48.858" lon="2.34941">
        <ele>28.5</ele>
        <time>2026-01-22T12:28:21Z</time>
      </trkpt>
      <trkpt lat="48.85805" lon="2.34945">
        <ele>28.6</ele>
        <time>2026-01-22T12:28:43Z</time>
      </trkpt>
      <trkpt lat="48.85809" lon="2.34941">
        <ele>28.9</ele>
        <time>2026-01-22T12:28:50Z</time>
      </trkpt>
      <trkpt lat="48.85814" lon="2.34938">
        <ele>29.1</ele>
        <time>2026-01-22T12:28:54Z</time>
      </trkpt>
      <trkpt lat="48.85816" lon="2.34932">
        <ele>29.6</ele>
        <time>2026-01-22T12:28:59Z</time>
      </trkpt>
      <trkpt lat="48.85818" lon="2.34926">
        <ele>31.7</ele>
        <time>2026-01-22T12:29:05Z</time>
      </trkpt>
      <trkpt lat="48.8582" lon="2.34919">
        <ele>33</ele>
        <time>2026-01-22T12:29:10Z</time>
      </trkpt>
      <trkpt lat="48.85822" lon="2.34912">
        <ele>32.5</ele>
        <time>2026-01-22T12:29:20Z</time>
      </trkpt>
      <trkpt lat="48.85824" lon="2.34905">
        <ele>32.3</ele>
        <time>2026-01-22T12:29:25Z</time>
      </trkpt>
      <trkpt lat="48.85827" lon="2.34898">
        <ele>33.8</ele>
        <time>2026-01-22T12:29:32Z</time>
      </trkpt>
      <trkpt lat="48.85829" lon="2.34891">
        <ele>34</ele>
        <time>2026-01-22T12:29:37Z</time>
      </trkpt>
      <trkpt lat="48.85831" lon="2.34885">
        <ele>33.9</ele>
        <time>2026-01-22T12:29:43Z</time>
      </trkpt>
      <trkpt lat="48.85834" lon="2.34878">
        <ele>34.4</ele>
        <time>2026-01-22T12:29:49Z</time>
      </trkpt>
      <trkpt lat="48.85836" lon="2.34872">
        <ele>33.9</ele>
        <time>2026-01-22T12:29:55Z</time>
      </trkpt>
      <trkpt lat="48.85838" lon="2.34865">
        <ele>33.4</ele>
        <time>2026-01-22T12:30:00Z</time>
      </trkpt>
      <trkpt lat="48.8584" lon="2.34858">
        <ele>33</ele>
        <time>2026-01-22T12:30:05Z</time>
      </trkpt>
      <trkpt lat="48.85843" lon="2.34851">
        <ele>32.8</ele>
        <time>2026-01-22T12:30:10Z</time>
      </trkpt>
      <trkpt lat="48.85845" lon="2.34845">
        <ele>32</ele>
        <time>2026-01-22T12:30:15Z</time>
      </trkpt>
      <trkpt lat="48.85847" lon="2.34839">
        <ele>30.7</ele>
        <time>2026-01-22T12:30:20Z</time>
      </trkpt>
      <trkpt lat="48.85845" lon="2.34832">
        <ele>30.3</ele>
        <time>2026-01-22T12:30:25Z</time>
      </trkpt>
      <trkpt lat="48.85845" lon="2.34821">
        <ele>30.8</ele>
        <time>2026-01-22T12:31:02Z</time>
      </trkpt>
      <trkpt lat="48.85846" lon="2.34813">
        <ele>32</ele>
        <time>2026-01-22T12:31:06Z</time>
      </trkpt>
      <trkpt lat="48.85849" lon="2.34807">
        <ele>32.1</ele>
        <time>2026-01-22T12:31:10Z</time>
      </trkpt>
      <trkpt lat="48.8585" lon="2.34801">
        <ele>31.9</ele>
        <time>2026-01-22T12:31:17Z</time>
      </trkpt>
      <trkpt lat="48.85853" lon="2.34794">
        <ele>31.9</ele>
        <time>2026-01-22T12:31:25Z</time>
      </trkpt>
      <trkpt lat="48.85855" lon="2.34787">
        <ele>32</ele>
        <time>2026-01-22T12:31:32Z</time>
      </trkpt>
      <trkpt lat="48.85857" lon="2.34779">
        <ele>31.2</ele>
        <time>2026-01-22T12:31:37Z</time>
      </trkpt>
      <trkpt lat="48.85859" lon="2.34773">
        <ele>30.4</ele>
        <time>2026-01-22T12:31:42Z</time>
      </trkpt>
      <trkpt lat="48.85861" lon="2.34767">
        <ele>29.6</ele>
        <time>2026-01-22T12:31:47Z</time>
      </trkpt>
      <trkpt lat="48.85863" lon="2.3476">
        <ele>27.9</ele>
        <time>2026-01-22T12:31:53Z</time>
      </trkpt>
      <trkpt lat="48.85865" lon="2.34753">
        <ele>28</ele>
        <time>2026-01-22T12:31:59Z</time>
      </trkpt>
      <trkpt lat="48.85866" lon="2.34745">
        <ele>31.4</ele>
        <time>2026-01-22T12:32:18Z</time>
      </trkpt>
      <trkpt lat="48.85869" lon="2.34739">
        <ele>32.6</ele>
        <time>2026-01-22T12:32:21Z</time>
      </trkpt>
      <trkpt lat="48.8587" lon="2.34731">
        <ele>32.5</ele>
        <time>2026-01-22T12:32:30Z</time>
      </trkpt>
      <trkpt lat="48.85871" lon="2.34724">
        <ele>32.5</ele>
        <time>2026-01-22T12:32:35Z</time>
      </trkpt>
      <trkpt lat="48.85874" lon="2.34717">
        <ele>32.3</ele>
        <time>2026-01-22T12:32:40Z</time>
      </trkpt>
      <trkpt lat="48.85876" lon="2.3471">
        <ele>31.5</ele>
        <time>2026-01-22T12:32:47Z</time>
      </trkpt>
      <trkpt lat="48.85878" lon="2.34704">
        <ele>29.8</ele>
        <time>2026-01-22T12:32:53Z</time>
      </trkpt>
      <trkpt lat="48.8588" lon="2.34697">
        <ele>28.1</ele>
        <time>2026-01-22T12:32:59Z</time>
      </trkpt>
      <trkpt lat="48.85882" lon="2.34691">
        <ele>26.8</ele>
        <time>2026-01-22T12:33:04Z</time>
      </trkpt>
      <trkpt lat="48.85884" lon="2.34684">
        <ele>25.6</ele>
        <time>2026-01-22T12:33:10Z</time>
      </trkpt>
      <trkpt lat="48.85886" lon="2.34678">
        <ele>24.3</ele>
        <time>2026-01-22T12:33:16Z</time>
      </trkpt>
      <trkpt lat="48.85888" lon="2.34671">
        <ele>23.1</ele>
        <time>2026-01-22T12:33:20Z</time>
      </trkpt>
      <trkpt lat="48.85891" lon="2.34663">
        <ele>22</ele>
        <time>2026-01-22T12:33:25Z</time>
      </trkpt>
      <trkpt lat="48.85893" lon="2.34657">
        <ele>22.7</ele>
        <time>2026-01-22T12:33:28Z</time>
      </trkpt>
      <trkpt lat="48.85896" lon="2.34649">
        <ele>22.9</ele>
        <time>2026-01-22T12:33:33Z</time>
      </trkpt>
      <trkpt lat="48.859" lon="2.34643">
        <ele>23.5</ele>
        <time>2026-01-22T12:33:47Z</time>
      </trkpt>
      <trkpt lat="48.85903" lon="2.34637">
        <ele>24.3</ele>
        <time>2026-01-22T12:33:51Z</time>
      </trkpt>
      <trkpt lat="48.85906" lon="2.34631">
        <ele>24.9</ele>
        <time>2026-01-22T12:33:55Z</time>
      </trkpt>
      <trkpt lat="48.85908" lon="2.34624">
        <ele>25.1</ele>
        <time>2026-01-22T12:34:01Z</time>
      </trkpt>
      <trkpt lat="48.8591" lon="2.34618">
        <ele>25.1</ele>
        <time>2026-01-22T12:34:07Z</time>
      </trkpt>
      <trkpt lat="48.85912" lon="2.34611">
        <ele>24.2</ele>
        <time>2026-01-22T12:34:15Z</time>
      </trkpt>
      <trkpt lat="48.85914" lon="2.34605">
        <ele>23.6</ele>
        <time>2026-01-22T12:34:20Z</time>
      </trkpt>
      <trkpt lat="48.85917" lon="2.34596">
        <ele>22.4</ele>
        <time>2026-01-22T12:34:26Z</time>
      </trkpt>
      <trkpt lat="48.85919" lon="2.34589">
        <ele>23.2</ele>
        <time>2026-01-22T12:34:30Z</time>
      </trkpt>
      <trkpt lat="48.85922" lon="2.34582">
        <ele>22.5</ele>
        <time>2026-01-22T12:34:37Z</time>
      </trkpt>
      <trkpt lat="48.85924" lon="2.34575">
        <ele>22.3</ele>
        <time>2026-01-22T12:34:42Z</time>
      </trkpt>
      <trkpt lat="48.85926" lon="2.34568">
        <ele>23.1</ele>
        <time>2026-01-22T12:34:46Z</time>
      </trkpt>
      <trkpt lat="48.85928" lon="2.34561">
        <ele>23.4</ele>
        <time>2026-01-22T12:34:50Z</time>
      </trkpt>
      <trkpt lat="48.85931" lon="2.34554">
        <ele>24.8</ele>
        <time>2026-01-22T12:34:54Z</time>
      </trkpt>
      <trkpt lat="48.85933" lon="2.34547">
        <ele>25.4</ele>
        <time>2026-01-22T12:34:58Z</time>
      </trkpt>
      <trkpt lat="48.85935" lon="2.3454">
        <ele>27.7</ele>
        <time>2026-01-22T12:35:02Z</time>
      </trkpt>
      <trkpt lat="48.85937" lon="2.34533">
        <ele>27.8</ele>
        <time>2026-01-22T12:35:09Z</time>
      </trkpt>
      <trkpt lat="48.8594" lon="2.34525">
        <ele>27.5</ele>
        <time>2026-01-22T12:35:13Z</time>
      </trkpt>
      <trkpt lat="48.85943" lon="2.34517">
        <ele>28</ele>
        <time>2026-01-22T12:35:18Z</time>
      </trkpt>
      <trkpt lat="48.85945" lon="2.34511">
        <ele>28.2</ele>
        <time>2026-01-22T12:35:25Z</time>
      </trkpt>
      <trkpt lat="48.85947" lon="2.34504">
        <ele>27.5</ele>
        <time>2026-01-22T12:35:32Z</time>
      </trkpt>
      <trkpt lat="48.85951" lon="2.34496">
        <ele>26.8</ele>
        <time>2026-01-22T12:35:38Z</time>
      </trkpt>
      <trkpt lat="48.85953" lon="2.34489">
        <ele>27.2</ele>
        <time>2026-01-22T12:35:42Z</time>
      </trkpt>
      <trkpt lat="48.85955" lon="2.34483">
        <ele>26.9</ele>
        <time>2026-01-22T12:35:45Z</time>
      </trkpt>
      <trkpt lat="48.85958" lon="2.34476">
        <ele>26.8</ele>
        <time>2026-01-22T12:35:49Z</time>
      </trkpt>
      <trkpt lat="48.8596" lon="2.3447">
        <ele>26.9</ele>
        <time>2026-01-22T12:35:53Z</time>
      </trkpt>
      <trkpt lat="48.85963" lon="2.34464">
        <ele>25.6</ele>
        <time>2026-01-22T12:36:03Z</time>
      </trkpt>
      <trkpt lat="48.85972" lon="2.34467">
        <ele>26.3</ele>
        <time>2026-01-22T12:36:18Z</time>
      </trkpt>
      <trkpt lat="48.85981" lon="2.34465">
        <ele>28.8</ele>
        <time>2026-01-22T12:36:53Z</time>
      </trkpt>
      <trkpt lat="48.85986" lon="2.34463">
        <ele>31.4</ele>
        <time>2026-01-22T12:36:56Z</time>
      </trkpt>
      <trkpt lat="48.85991" lon="2.34455">
        <ele>32.5</ele>
        <time>2026-01-22T12:37:06Z</time>
      </trkpt>
      <trkpt lat="48.85995" lon="2.34449">
        <ele>33.8</ele>
        <time>2026-01-22T12:37:10Z</time>
      </trkpt>
      <trkpt lat="48.85997" lon="2.34441">
        <ele>33.9</ele>
        <time>2026-01-22T12:37:15Z</time>
      </trkpt>
      <trkpt lat="48.85999" lon="2.34435">
        <ele>34.2</ele>
        <time>2026-01-22T12:37:20Z</time>
      </trkpt>
      <trkpt lat="48.86002" lon="2.34428">
        <ele>35</ele>
        <time>2026-01-22T12:37:26Z</time>
      </trkpt>
      <trkpt lat="48.85995" lon="2.3442">
        <ele>34.8</ele>
        <time>2026-01-22T12:37:29Z</time>
      </trkpt>
      <trkpt lat="48.85991" lon="2.34415">
        <ele>34.5</ele>
        <time>2026-01-22T12:37:31Z</time>
      </trkpt>
      <trkpt lat="48.85988" lon="2.34408">
        <ele>34.3</ele>
        <time>2026-01-22T12:37:33Z</time>
      </trkpt>
      <trkpt lat="48.85984" lon="2.34402">
        <ele>34</ele>
        <time>2026-01-22T12:37:35Z</time>
      </trkpt>
      <trkpt lat="48.85982" lon="2.34395">
        <ele>34.2</ele>
        <time>2026-01-22T12:37:39Z</time>
      </trkpt>
      <trkpt lat="48.85983" lon="2.34388">
        <ele>35.4</ele>
        <time>2026-01-22T12:37:48Z</time>
      </trkpt>
      <trkpt lat="48.85984" lon="2.3438">
        <ele>37.3</ele>
        <time>2026-01-22T12:38:05Z</time>
      </trkpt>
      <trkpt lat="48.85988" lon="2.34376">
        <ele>39.7</ele>
        <time>2026-01-22T12:38:11Z</time>
      </trkpt>
      <trkpt lat="48.85993" lon="2.34377">
        <ele>39.7</ele>
        <time>2026-01-22T12:38:17Z</time>
      </trkpt>
      <trkpt lat="48.85997" lon="2.34379">
        <ele>39.2</ele>
        <time>2026-01-22T12:38:25Z</time>
      </trkpt>
      <trkpt lat="48.86007" lon="2.34381">
        <ele>39.2</ele>
        <time>2026-01-22T12:38:46Z</time>
      </trkpt>
      <trkpt lat="48.86004" lon="2.34372">
        <ele>37.8</ele>
        <time>2026-01-22T12:39:09Z</time>
      </trkpt>
      <trkpt lat="48.86005" lon="2.34365">
        <ele>36</ele>
        <time>2026-01-22T12:39:15Z</time>
      </trkpt>
      <trkpt lat="48.86006" lon="2.34358">
        <ele>35.6</ele>
        <time>2026-01-22T12:39:20Z</time>
      </trkpt>
      <trkpt lat="48.86006" lon="2.34351">
        <ele>35.9</ele>
        <time>2026-01-22T12:39:24Z</time>
      </trkpt>
      <trkpt lat="48.86009" lon="2.34344">
        <ele>35.9</ele>
        <time>2026-01-22T12:39:28Z</time>
      </trkpt>
      <trkpt lat="48.86011" lon="2.34337">
        <ele>36.2</ele>
        <time>2026-01-22T12:39:31Z</time>
      </trkpt>
      <trkpt lat="48.86014" lon="2.34342">
        <ele>38.6</ele>
        <time>2026-01-22T12:39:47Z</time>
      </trkpt>
      <trkpt lat="48.86021" lon="2.34345">
        <ele>38.5</ele>
        <time>2026-01-22T12:39:51Z</time>
      </trkpt>
      <trkpt lat="48.86025" lon="2.34346">
        <ele>38</ele>
        <time>2026-01-22T12:39:53Z</time>
      </trkpt>
      <trkpt lat="48.8603" lon="2.34348">
        <ele>37.6</ele>
        <time>2026-01-22T12:39:56Z</time>
      </trkpt>
      <trkpt lat="48.86035" lon="2.34352">
        <ele>37.1</ele>
        <time>2026-01-22T12:40:03Z</time>
      </trkpt>
      <trkpt lat="48.86031" lon="2.34358">
        <ele>35.7</ele>
        <time>2026-01-22T12:40:25Z</time>
      </trkpt>
      <trkpt lat="48.86035" lon="2.34361">
        <ele>34.5</ele>
        <time>2026-01-22T12:40:36Z</time>
      </trkpt>
      <trkpt lat="48.86041" lon="2.34365">
        <ele>33.2</ele>
        <time>2026-01-22T12:40:42Z</time>
      </trkpt>
      <trkpt lat="48.86046" lon="2.34365">
        <ele>32.4</ele>
        <time>2026-01-22T12:40:45Z</time>
      </trkpt>
      <trkpt lat="48.86051" lon="2.34365">
        <ele>31.1</ele>
        <time>2026-01-22T12:40:49Z</time>
      </trkpt>
      <trkpt lat="48.86056" lon="2.34364">
        <ele>28.7</ele>
        <time>2026-01-22T12:40:55Z</time>
      </trkpt>
      <trkpt lat="48.86058" lon="2.3437">
        <ele>27.2</ele>
        <time>2026-01-22T12:41:02Z</time>
      </trkpt>
      <trkpt lat="48.86061" lon="2.34376">
        <ele>25</ele>
        <time>2026-01-22T12:41:11Z</time>
      </trkpt>
      <trkpt lat="48.86064" lon="2.34381">
        <ele>24.6</ele>
        <time>2026-01-22T12:41:15Z</time>
      </trkpt>
      <trkpt lat="48.8607" lon="2.34382">
        <ele>23.2</ele>
        <time>2026-01-22T12:41:24Z</time>
      </trkpt>
      <trkpt lat="48.86075" lon="2.3438">
        <ele>22.6</ele>
        <time>2026-01-22T12:41:31Z</time>
      </trkpt>
      <trkpt lat="48.8608" lon="2.34381">
        <ele>20.4</ele>
        <time>2026-01-22T12:41:37Z</time>
      </trkpt>
      <trkpt lat="48.86085" lon="2.34382">
        <ele>19.2</ele>
        <time>2026-01-22T12:41:41Z</time>
      </trkpt>
      <trkpt lat="48.8609" lon="2.34383">
        <ele>19.2</ele>
        <time>2026-01-22T12:41:47Z</time>
      </trkpt>
      <trkpt lat="48.86095" lon="2.34384">
        <ele>18.8</ele>
        <time>2026-01-22T12:41:54Z</time>
      </trkpt>
      <trkpt lat="48.86099" lon="2.34385">
        <ele>16.9</ele>
        <time>2026-01-22T12:42:01Z</time>
      </trkpt>
      <trkpt lat="48.86104" lon="2.34387">
        <ele>16.4</ele>
        <time>2026-01-22T12:42:06Z</time>
      </trkpt>
      <trkpt lat="48.8611" lon="2.34389">
        <ele>15.8</ele>
        <time>2026-01-22T12:42:10Z</time>
      </trkpt>
      <trkpt lat="48.86115" lon="2.34392">
        <ele>14.2</ele>
        <time>2026-01-22T12:42:15Z</time>
      </trkpt>
      <trkpt lat="48.86119" lon="2.34395">
        <ele>13</ele>
        <time>2026-01-22T12:42:20Z</time>
      </trkpt>
      <trkpt lat="48.86124" lon="2.34397">
        <ele>11.9</ele>
        <time>2026-01-22T12:42:25Z</time>
      </trkpt>
      <trkpt lat="48.86129" lon="2.34399">
        <ele>10.4</ele>
        <time>2026-01-22T12:42:30Z</time>
      </trkpt>
      <trkpt lat="48.86135" lon="2.34402">
        <ele>8.8</ele>
        <time>2026-01-22T12:42:35Z</time>
      </trkpt>
      <trkpt lat="48.86139" lon="2.34404">
        <ele>7.8</ele>
        <time>2026-01-22T12:42:40Z</time>
      </trkpt>
      <trkpt lat="48.86144" lon="2.34406">
        <ele>6.1</ele>
        <time>2026-01-22T12:42:46Z</time>
      </trkpt>
      <trkpt lat="48.86148" lon="2.34408">
        <ele>5</ele>
        <time>2026-01-22T12:42:51Z</time>
      </trkpt>
      <trkpt lat="48.86152" lon="2.3441">
        <ele>4.3</ele>
        <time>2026-01-22T12:42:55Z</time>
      </trkpt>
      <trkpt lat="48.86158" lon="2.34413">
        <ele>4.3</ele>
        <time>2026-01-22T12:43:00Z</time>
      </trkpt>
      <trkpt lat="48.86162" lon="2.34415">
        <ele>4.3</ele>
        <time>2026-01-22T12:43:05Z</time>
      </trkpt>
      <trkpt lat="48.86167" lon="2.34417">
        <ele>4.9</ele>
        <time>2026-01-22T12:43:11Z</time>
      </trkpt>
      <trkpt lat="48.86171" lon="2.34418">
        <ele>7.5</ele>
        <time>2026-01-22T12:43:16Z</time>
      </trkpt>
      <trkpt lat="48.86175" lon="2.34422">
        <ele>11.3</ele>
        <time>2026-01-22T12:43:20Z</time>
      </trkpt>
      <trkpt lat="48.8618" lon="2.34425">
        <ele>14.2</ele>
        <time>2026-01-22T12:43:24Z</time>
      </trkpt>
      <trkpt lat="48.86182" lon="2.34432">
        <ele>21.2</ele>
        <time>2026-01-22T12:43:43Z</time>
      </trkpt>
      <trkpt lat="48.86187" lon="2.34434">
        <ele>21.8</ele>
        <time>2026-01-22T12:43:50Z</time>
      </trkpt>
      <trkpt lat="48.86192" lon="2.34435">
        <ele>22.4</ele>
        <time>2026-01-22T12:43:54Z</time>
      </trkpt>
      <trkpt lat="48.86196" lon="2.34438">
        <ele>23.2</ele>
        <time>2026-01-22T12:43:58Z</time>
      </trkpt>
      <trkpt lat="48.86201" lon="2.3444">
        <ele>24.2</ele>
        <time>2026-01-22T12:44:04Z</time>
      </trkpt>
      <trkpt lat="48.86206" lon="2.34442">
        <ele>24.1</ele>
        <time>2026-01-22T12:44:11Z</time>
      </trkpt>
      <trkpt lat="48.86211" lon="2.34444">
        <ele>24.9</ele>
        <time>2026-01-22T12:44:19Z</time>
      </trkpt>
      <trkpt lat="48.86216" lon="2.34446">
        <ele>25.1</ele>
        <time>2026-01-22T12:44:26Z</time>
      </trkpt>
      <trkpt lat="48.86221" lon="2.34448">
        <ele>27</ele>
        <time>2026-01-22T12:44:31Z</time>
      </trkpt>
      <trkpt lat="48.86226" lon="2.34449">
        <ele>27.6</ele>
        <time>2026-01-22T12:44:37Z</time>
      </trkpt>
      <trkpt lat="48.8623" lon="2.34454">
        <ele>28.5</ele>
        <time>2026-01-22T12:44:46Z</time>
      </trkpt>
      <trkpt lat="48.86235" lon="2.34454">
        <ele>28.4</ele>
        <time>2026-01-22T12:44:54Z</time>
      </trkpt>
      <trkpt lat="48.86239" lon="2.34458">
        <ele>29.8</ele>
        <time>2026-01-22T12:44:59Z</time>
      </trkpt>
      <trkpt lat="48.86243" lon="2.34461">
        <ele>31.1</ele>
        <time>2026-01-22T12:45:04Z</time>
      </trkpt>
      <trkpt lat="48.86248" lon="2.34465">
        <ele>28.7</ele>
        <time>2026-01-22T12:45:26Z</time>
      </trkpt>
      <trkpt lat="48.86253" lon="2.34468">
        <ele>27.6</ele>
        <time>2026-01-22T12:45:31Z</time>
      </trkpt>
      <trkpt lat="48.86258" lon="2.34471">
        <ele>27.3</ele>
        <time>2026-01-22T12:45:37Z</time>
      </trkpt>
      <trkpt lat="48.86262" lon="2.34475">
        <ele>27.8</ele>
        <time>2026-01-22T12:45:44Z</time>
      </trkpt>
      <trkpt lat="48.86268" lon="2.34476">
        <ele>28.2</ele>
        <time>2026-01-22T12:45:49Z</time>
      </trkpt>
      <trkpt lat="48.86272" lon="2.34478">
        <ele>27.7</ele>
        <time>2026-01-22T12:45:57Z</time>
      </trkpt>
      <trkpt lat="48.86276" lon="2.34481">
        <ele>27.1</ele>
        <time>2026-01-22T12:46:37Z</time>
      </trkpt>
      <trkpt lat="48.86281" lon="2.34484">
        <ele>27.5</ele>
        <time>2026-01-22T12:46:43Z</time>
      </trkpt>
      <trkpt lat="48.86286" lon="2.34486">
        <ele>29</ele>
        <time>2026-01-22T12:46:49Z</time>
      </trkpt>
      <trkpt lat="48.8629" lon="2.34486">
        <ele>31</ele>
        <time>2026-01-22T12:46:59Z</time>
      </trkpt>
      <trkpt lat="48.86295" lon="2.34487">
        <ele>31.3</ele>
        <time>2026-01-22T12:47:06Z</time>
      </trkpt>
      <trkpt lat="48.863" lon="2.34491">
        <ele>31.6</ele>
        <time>2026-01-22T12:47:10Z</time>
      </trkpt>
      <trkpt lat="48.86305" lon="2.34494">
        <ele>32</ele>
        <time>2026-01-22T12:47:13Z</time>
      </trkpt>
      <trkpt lat="48.86309" lon="2.34496">
        <ele>33.4</ele>
        <time>2026-01-22T12:47:23Z</time>
      </trkpt>
      <trkpt lat="48.86315" lon="2.34502">
        <ele>33.9</ele>
        <time>2026-01-22T12:47:34Z</time>
      </trkpt>
      <trkpt lat="48.86318" lon="2.34508">
        <ele>34</ele>
        <time>2026-01-22T12:47:37Z</time>
      </trkpt>
      <trkpt lat="48.86323" lon="2.34511">
        <ele>33.1</ele>
        <time>2026-01-22T12:47:43Z</time>
      </trkpt>
      <trkpt lat="48.8632" lon="2.34517">
        <ele>31.9</ele>
        <time>2026-01-22T12:47:51Z</time>
      </trkpt>
      <trkpt lat="48.86316" lon="2.34522">
        <ele>31.1</ele>
        <time>2026-01-22T12:47:55Z</time>
      </trkpt>
      <trkpt lat="48.86314" lon="2.3453">
        <ele>30.3</ele>
        <time>2026-01-22T12:48:00Z</time>
      </trkpt>
      <trkpt lat="48.86314" lon="2.34537">
        <ele>29.9</ele>
        <time>2026-01-22T12:48:04Z</time>
      </trkpt>
      <trkpt lat="48.86313" lon="2.34544">
        <ele>29</ele>
        <time>2026-01-22T12:48:09Z</time>
      </trkpt>
      <trkpt lat="48.86313" lon="2.34551">
        <ele>28.7</ele>
        <time>2026-01-22T12:48:17Z</time>
      </trkpt>
      <trkpt lat="48.86311" lon="2.34561">
        <ele>30.1</ele>
        <time>2026-01-22T12:48:38Z</time>
      </trkpt>
      <trkpt lat="48.86311" lon="2.34569">
        <ele>30</ele>
        <time>2026-01-22T12:48:43Z</time>
      </trkpt>
      <trkpt lat="48.86314" lon="2.34578">
        <ele>27.2</ele>
        <time>2026-01-22T12:49:04Z</time>
      </trkpt>
      <trkpt lat="48.86315" lon="2.34584">
        <ele>26.8</ele>
        <time>2026-01-22T12:49:09Z</time>
      </trkpt>
      <trkpt lat="48.86317" lon="2.34591">
        <ele>26.1</ele>
        <time>2026-01-22T12:49:14Z</time>
      </trkpt>
      <trkpt lat="48.86317" lon="2.34598">
        <ele>25.1</ele>
        <time>2026-01-22T12:49:22Z</time>
      </trkpt>
      <trkpt lat="48.86321" lon="2.34602">
        <ele>25.9</ele>
        <time>2026-01-22T12:49:31Z</time>
      </trkpt>
      <trkpt lat="48.86325" lon="2.34605">
        <ele>25.4</ele>
        <time>2026-01-22T12:49:41Z</time>
      </trkpt>
      <trkpt lat="48.86326" lon="2.34612">
        <ele>25.2</ele>
        <time>2026-01-22T12:49:52Z</time>
      </trkpt>
      <trkpt lat="48.8633" lon="2.34618">
        <ele>24.5</ele>
        <time>2026-01-22T12:50:00Z</time>
      </trkpt>
      <trkpt lat="48.86334" lon="2.3462">
        <ele>23</ele>
        <time>2026-01-22T12:50:07Z</time>
      </trkpt>
      <trkpt lat="48.86339" lon="2.34621">
        <ele>21.4</ele>
        <time>2026-01-22T12:50:14Z</time>
      </trkpt>
      <trkpt lat="48.86344" lon="2.34623">
        <ele>17.8</ele>
        <time>2026-01-22T12:50:29Z</time>
      </trkpt>
      <trkpt lat="48.86349" lon="2.34621">
        <ele>15</ele>
        <time>2026-01-22T12:50:37Z</time>
      </trkpt>
      <trkpt lat="48.86354" lon="2.34622">
        <ele>9.7</ele>
        <time>2026-01-22T12:50:46Z</time>
      </trkpt>
      <trkpt lat="48.86359" lon="2.34625">
        <ele>7.4</ele>
        <time>2026-01-22T12:50:50Z</time>
      </trkpt>
      <trkpt lat="48.86363" lon="2.3463">
        <ele>5.9</ele>
        <time>2026-01-22T12:50:54Z</time>
      </trkpt>
      <trkpt lat="48.86365" lon="2.34637">
        <ele>7.8</ele>
        <time>2026-01-22T12:50:58Z</time>
      </trkpt>
      <trkpt lat="48.8637" lon="2.34639">
        <ele>10.8</ele>
        <time>2026-01-22T12:51:01Z</time>
      </trkpt>
      <trkpt lat="48.86375" lon="2.34641">
        <ele>16.7</ele>
        <time>2026-01-22T12:51:04Z</time>
      </trkpt>
      <trkpt lat="48.8638" lon="2.34641">
        <ele>18.1</ele>
        <time>2026-01-22T12:51:07Z</time>
      </trkpt>
      <trkpt lat="48.86385" lon="2.3464">
        <ele>18.7</ele>
        <time>2026-01-22T12:51:10Z</time>
      </trkpt>
      <trkpt lat="48.86391" lon="2.34642">
        <ele>19.4</ele>
        <time>2026-01-22T12:51:13Z</time>
      </trkpt>
      <trkpt lat="48.86396" lon="2.34642">
        <ele>24.2</ele>
        <time>2026-01-22T12:51:29Z</time>
      </trkpt>
      <trkpt lat="48.86399" lon="2.34637">
        <ele>25.3</ele>
        <time>2026-01-22T12:51:35Z</time>
      </trkpt>
      <trkpt lat="48.86403" lon="2.34642">
        <ele>25.9</ele>
        <time>2026-01-22T12:51:49Z</time>
      </trkpt>
      <trkpt lat="48.86407" lon="2.34641">
        <ele>23.9</ele>
        <time>2026-01-22T12:51:56Z</time>
      </trkpt>
      <trkpt lat="48.86412" lon="2.34644">
        <ele>23.6</ele>
        <time>2026-01-22T12:52:02Z</time>
      </trkpt>
      <trkpt lat="48.86416" lon="2.34646">
        <ele>22.7</ele>
        <time>2026-01-22T12:52:06Z</time>
      </trkpt>
      <trkpt lat="48.8642" lon="2.34651">
        <ele>23.5</ele>
        <time>2026-01-22T12:52:12Z</time>
      </trkpt>
      <trkpt lat="48.86425" lon="2.34651">
        <ele>25.1</ele>
        <time>2026-01-22T12:52:19Z</time>
      </trkpt>
      <trkpt lat="48.86427" lon="2.34657">
        <ele>28.5</ele>
        <time>2026-01-22T12:52:25Z</time>
      </trkpt>
      <trkpt lat="48.86432" lon="2.3466">
        <ele>31.8</ele>
        <time>2026-01-22T12:52:30Z</time>
      </trkpt>
      <trkpt lat="48.86437" lon="2.34664">
        <ele>34.6</ele>
        <time>2026-01-22T12:52:33Z</time>
      </trkpt>
      <trkpt lat="48.8644" lon="2.34669">
        <ele>38.5</ele>
        <time>2026-01-22T12:52:37Z</time>
      </trkpt>
      <trkpt lat="48.86445" lon="2.34672">
        <ele>41.5</ele>
        <time>2026-01-22T12:52:42Z</time>
      </trkpt>
      <trkpt lat="48.86451" lon="2.34675">
        <ele>43.8</ele>
        <time>2026-01-22T12:52:53Z</time>
      </trkpt>
      <trkpt lat="48.86456" lon="2.34675">
        <ele>43.4</ele>
        <time>2026-01-22T12:52:58Z</time>
      </trkpt>
      <trkpt lat="48.86454" lon="2.34668">
        <ele>41.4</ele>
        <time>2026-01-22T12:53:07Z</time>
      </trkpt>
      <trkpt lat="48.86465" lon="2.34669">
        <ele>41.7</ele>
        <time>2026-01-22T12:53:37Z</time>
      </trkpt>
      <trkpt lat="48.8647" lon="2.3467">
        <ele>44.6</ele>
        <time>2026-01-22T12:53:42Z</time>
      </trkpt>
      <trkpt lat="48.86476" lon="2.34672">
        <ele>44</ele>
        <time>2026-01-22T12:53:47Z</time>
      </trkpt>
      <trkpt lat="48.86481" lon="2.34674">
        <ele>43.6</ele>
        <time>2026-01-22T12:53:52Z</time>
      </trkpt>
      <trkpt lat="48.86485" lon="2.34676">
        <ele>42</ele>
        <time>2026-01-22T12:53:58Z</time>
      </trkpt>
      <trkpt lat="48.8649" lon="2.34678">
        <ele>43</ele>
        <time>2026-01-22T12:54:02Z</time>
      </trkpt>
      <trkpt lat="48.86494" lon="2.3468">
        <ele>43</ele>
        <time>2026-01-22T12:54:06Z</time>
      </trkpt>
      <trkpt lat="48.86499" lon="2.34682">
        <ele>43.5</ele>
        <time>2026-01-22T12:54:10Z</time>
      </trkpt>
      <trkpt lat="48.86504" lon="2.34682">
        <ele>43.7</ele>
        <time>2026-01-22T12:54:16Z</time>
      </trkpt>
      <trkpt lat="48.86509" lon="2.34685">
        <ele>42.8</ele>
        <time>2026-01-22T12:54:21Z</time>
      </trkpt>
      <trkpt lat="48.86514" lon="2.34686">
        <ele>38.7</ele>
        <time>2026-01-22T12:54:25Z</time>
      </trkpt>
      <trkpt lat="48.86518" lon="2.34689">
        <ele>39.6</ele>
        <time>2026-01-22T12:54:32Z</time>
      </trkpt>
      <trkpt lat="48.86523" lon="2.3469">
        <ele>38.5</ele>
        <time>2026-01-22T12:54:38Z</time>
      </trkpt>
      <trkpt lat="48.86518" lon="2.34687">
        <ele>46.9</ele>
        <time>2026-01-22T12:55:39Z</time>
      </trkpt>
      <trkpt lat="48.86523" lon="2.34692">
        <ele>47.8</ele>
        <time>2026-01-22T12:56:11Z</time>
      </trkpt>
      <trkpt lat="48.86521" lon="2.34683">
        <ele>50</ele>
        <time>2026-01-22T12:56:57Z</time>
      </trkpt>
      <trkpt lat="48.86522" lon="2.34696">
        <ele>50.9</ele>
        <time>2026-01-22T12:57:29Z</time>
      </trkpt>
      <trkpt lat="48.8653" lon="2.34698">
        <ele>51.4</ele>
        <time>2026-01-22T12:57:49Z</time>
      </trkpt>
      <trkpt lat="48.86525" lon="2.34693">
        <ele>48.4</ele>
        <time>2026-01-22T12:58:37Z</time>
      </trkpt>
      <trkpt lat="48.86532" lon="2.34697">
        <ele>49.6</ele>
        <time>2026-01-22T12:59:12Z</time>
      </trkpt>
      <trkpt lat="48.86536" lon="2.34698">
        <ele>51.2</ele>
        <time>2026-01-22T12:59:14Z</time>
      </trkpt>
      <trkpt lat="48.86541" lon="2.347">
        <ele>51.8</ele>
        <time>2026-01-22T12:59:19Z</time>
      </trkpt>
      <trkpt lat="48.86546" lon="2.34701">
        <ele>52.4</ele>
        <time>2026-01-22T12:59:25Z</time>
      </trkpt>
      <trkpt lat="48.86551" lon="2.34699">
        <ele>51.2</ele>
        <time>2026-01-22T12:59:34Z</time>
      </trkpt>
      <trkpt lat="48.86555" lon="2.34699">
        <ele>50.4</ele>
        <time>2026-01-22T12:59:39Z</time>
      </trkpt>
      <trkpt lat="48.8656" lon="2.34701">
        <ele>49.5</ele>
        <time>2026-01-22T12:59:44Z</time>
      </trkpt>
      <trkpt lat="48.86562" lon="2.34708">
        <ele>47.8</ele>
        <time>2026-01-22T12:59:50Z</time>
      </trkpt>
      <trkpt lat="48.86566" lon="2.34712">
        <ele>46.9</ele>
        <time>2026-01-22T12:59:56Z</time>
      </trkpt>
      <trkpt lat="48.86572" lon="2.34712">
        <ele>46.7</ele>
        <time>2026-01-22T13:00:01Z</time>
      </trkpt>
      <trkpt lat="48.86577" lon="2.3471">
        <ele>45.5</ele>
        <time>2026-01-22T13:00:08Z</time>
      </trkpt>
      <trkpt lat="48.8658" lon="2.34705">
        <ele>45.5</ele>
        <time>2026-01-22T13:00:14Z</time>
      </trkpt>
      <trkpt lat="48.86586" lon="2.34702">
        <ele>45.2</ele>
        <time>2026-01-22T13:00:23Z</time>
      </trkpt>
      <trkpt lat="48.8659" lon="2.34705">
        <ele>41.7</ele>
        <time>2026-01-22T13:00:44Z</time>
      </trkpt>
      <trkpt lat="48.86596" lon="2.34707">
        <ele>42.1</ele>
        <time>2026-01-22T13:00:48Z</time>
      </trkpt>
      <trkpt lat="48.86601" lon="2.3471">
        <ele>42.7</ele>
        <time>2026-01-22T13:00:56Z</time>
      </trkpt>
      <trkpt lat="48.86605" lon="2.34713">
        <ele>39</ele>
        <time>2026-01-22T13:01:07Z</time>
      </trkpt>
      <trkpt lat="48.86612" lon="2.34716">
        <ele>38.2</ele>
        <time>2026-01-22T13:01:13Z</time>
      </trkpt>
      <trkpt lat="48.86616" lon="2.34719">
        <ele>37.5</ele>
        <time>2026-01-22T13:01:16Z</time>
      </trkpt>
      <trkpt lat="48.86621" lon="2.34719">
        <ele>35.6</ele>
        <time>2026-01-22T13:01:21Z</time>
      </trkpt>
      <trkpt lat="48.86632" lon="2.34717">
        <ele>36.6</ele>
        <time>2026-01-22T13:01:52Z</time>
      </trkpt>
      <trkpt lat="48.86636" lon="2.34712">
        <ele>36.8</ele>
        <time>2026-01-22T13:01:56Z</time>
      </trkpt>
      <trkpt lat="48.86629" lon="2.34707">
        <ele>33.9</ele>
        <time>2026-01-22T13:05:35Z</time>
      </trkpt>
      <trkpt lat="48.86629" lon="2.34714">
        <ele>30.4</ele>
        <time>2026-01-22T13:06:02Z</time>
      </trkpt>
      <trkpt lat="48.86628" lon="2.34705">
        <ele>32.7</ele>
        <time>2026-01-22T13:07:11Z</time>
      </trkpt>
      <trkpt lat="48.8663" lon="2.34698">
        <ele>31.2</ele>
        <time>2026-01-22T13:07:15Z</time>
      </trkpt>
      <trkpt lat="48.86635" lon="2.34695">
        <ele>30.3</ele>
        <time>2026-01-22T13:07:19Z</time>
      </trkpt>
      <trkpt lat="48.86636" lon="2.34689">
        <ele>28.9</ele>
        <time>2026-01-22T13:07:24Z</time>
      </trkpt>
      <trkpt lat="48.86638" lon="2.34683">
        <ele>29</ele>
        <time>2026-01-22T13:07:29Z</time>
      </trkpt>
      <trkpt lat="48.8664" lon="2.34675">
        <ele>28.6</ele>
        <time>2026-01-22T13:07:35Z</time>
      </trkpt>
      <trkpt lat="48.86641" lon="2.34668">
        <ele>27.8</ele>
        <time>2026-01-22T13:07:41Z</time>
      </trkpt>
      <trkpt lat="48.86643" lon="2.34661">
        <ele>27.3</ele>
        <time>2026-01-22T13:07:46Z</time>
      </trkpt>
      <trkpt lat="48.86644" lon="2.34654">
        <ele>26.4</ele>
        <time>2026-01-22T13:07:51Z</time>
      </trkpt>
      <trkpt lat="48.86645" lon="2.34646">
        <ele>24.5</ele>
        <time>2026-01-22T13:07:58Z</time>
      </trkpt>
      <trkpt lat="48.86647" lon="2.3464">
        <ele>23.4</ele>
        <time>2026-01-22T13:08:09Z</time>
      </trkpt>
      <trkpt lat="48.86647" lon="2.34633">
        <ele>22.8</ele>
        <time>2026-01-22T13:08:15Z</time>
      </trkpt>
      <trkpt lat="48.86649" lon="2.34625">
        <ele>21.2</ele>
        <time>2026-01-22T13:08:23Z</time>
      </trkpt>
      <trkpt lat="48.86651" lon="2.34618">
        <ele>20.8</ele>
        <time>2026-01-22T13:08:27Z</time>
      </trkpt>
      <trkpt lat="48.86652" lon="2.3461">
        <ele>21.1</ele>
        <time>2026-01-22T13:08:32Z</time>
      </trkpt>
      <trkpt lat="48.86654" lon="2.34602">
        <ele>21</ele>
        <time>2026-01-22T13:08:38Z</time>
      </trkpt>
      <trkpt lat="48.86655" lon="2.34594">
        <ele>20.8</ele>
        <time>2026-01-22T13:08:44Z</time>
      </trkpt>
      <trkpt lat="48.86656" lon="2.34588">
        <ele>21</ele>
        <time>2026-01-22T13:08:49Z</time>
      </trkpt>
      <trkpt lat="48.86657" lon="2.3458">
        <ele>21.3</ele>
        <time>2026-01-22T13:08:55Z</time>
      </trkpt>
      <trkpt lat="48.86658" lon="2.34574">
        <ele>22.1</ele>
        <time>2026-01-22T13:08:59Z</time>
      </trkpt>
      <trkpt lat="48.86659" lon="2.34567">
        <ele>22.4</ele>
        <time>2026-01-22T13:09:04Z</time>
      </trkpt>
      <trkpt lat="48.8666" lon="2.3456">
        <ele>22</ele>
        <time>2026-01-22T13:09:08Z</time>
      </trkpt>
      <trkpt lat="48.86662" lon="2.34552">
        <ele>21.5</ele>
        <time>2026-01-22T13:09:13Z</time>
      </trkpt>
      <trkpt lat="48.86663" lon="2.34544">
        <ele>21.3</ele>
        <time>2026-01-22T13:09:18Z</time>
      </trkpt>
      <trkpt lat="48.86664" lon="2.34536">
        <ele>21.1</ele>
        <time>2026-01-22T13:09:23Z</time>
      </trkpt>
      <trkpt lat="48.86667" lon="2.34529">
        <ele>21.8</ele>
        <time>2026-01-22T13:09:30Z</time>
      </trkpt>
      <trkpt lat="48.86668" lon="2.3452">
        <ele>23</ele>
        <time>2026-01-22T13:09:35Z</time>
      </trkpt>
      <trkpt lat="48.86669" lon="2.34513">
        <ele>23.3</ele>
        <time>2026-01-22T13:09:39Z</time>
      </trkpt>
      <trkpt lat="48.8667" lon="2.34506">
        <ele>23.9</ele>
        <time>2026-01-22T13:09:43Z</time>
      </trkpt>
      <trkpt lat="48.8667" lon="2.34499">
        <ele>24.7</ele>
        <time>2026-01-22T13:09:47Z</time>
      </trkpt>
      <trkpt lat="48.86673" lon="2.34492">
        <ele>25.2</ele>
        <time>2026-01-22T13:09:52Z</time>
      </trkpt>
      <trkpt lat="48.86673" lon="2.34484">
        <ele>25</ele>
        <time>2026-01-22T13:09:57Z</time>
      </trkpt>
      <trkpt lat="48.86673" lon="2.34477">
        <ele>26.7</ele>
        <time>2026-01-22T13:10:03Z</time>
      </trkpt>
      <trkpt lat="48.86676" lon="2.34472">
        <ele>27.2</ele>
        <time>2026-01-22T13:10:08Z</time>
      </trkpt>
      <trkpt lat="48.86673" lon="2.34466">
        <ele>26.9</ele>
        <time>2026-01-22T13:10:14Z</time>
      </trkpt>
      <trkpt lat="48.86675" lon="2.34458">
        <ele>26.2</ele>
        <time>2026-01-22T13:10:21Z</time>
      </trkpt>
      <trkpt lat="48.86674" lon="2.3445">
        <ele>26.2</ele>
        <time>2026-01-22T13:10:25Z</time>
      </trkpt>
      <trkpt lat="48.86674" lon="2.34442">
        <ele>26.6</ele>
        <time>2026-01-22T13:10:29Z</time>
      </trkpt>
      <trkpt lat="48.86674" lon="2.34434">
        <ele>26.9</ele>
        <time>2026-01-22T13:10:35Z</time>
      </trkpt>
      <trkpt lat="48.86678" lon="2.3443">
        <ele>27.1</ele>
        <time>2026-01-22T13:10:43Z</time>
      </trkpt>
      <trkpt lat="48.86683" lon="2.34428">
        <ele>27.9</ele>
        <time>2026-01-22T13:10:51Z</time>
      </trkpt>
      <trkpt lat="48.86688" lon="2.34422">
        <ele>28.6</ele>
        <time>2026-01-22T13:11:05Z</time>
      </trkpt>
      <trkpt lat="48.86693" lon="2.34421">
        <ele>29.3</ele>
        <time>2026-01-22T13:11:11Z</time>
      </trkpt>
      <trkpt lat="48.86695" lon="2.34413">
        <ele>29.8</ele>
        <time>2026-01-22T13:11:30Z</time>
      </trkpt>
      <trkpt lat="48.86699" lon="2.34409">
        <ele>30.1</ele>
        <time>2026-01-22T13:11:38Z</time>
      </trkpt>
      <trkpt lat="48.86704" lon="2.3441">
        <ele>30.1</ele>
        <time>2026-01-22T13:11:42Z</time>
      </trkpt>
      <trkpt lat="48.86709" lon="2.34412">
        <ele>29.8</ele>
        <time>2026-01-22T13:11:47Z</time>
      </trkpt>
      <trkpt lat="48.86714" lon="2.34413">
        <ele>29</ele>
        <time>2026-01-22T13:11:53Z</time>
      </trkpt>
      <trkpt lat="48.86718" lon="2.34414">
        <ele>29.1</ele>
        <time>2026-01-22T13:11:58Z</time>
      </trkpt>
      <trkpt lat="48.86723" lon="2.34415">
        <ele>29.4</ele>
        <time>2026-01-22T13:12:03Z</time>
      </trkpt>
      <trkpt lat="48.86726" lon="2.34409">
        <ele>30.3</ele>
        <time>2026-01-22T13:12:06Z</time>
      </trkpt>
      <trkpt lat="48.86731" lon="2.34407">
        <ele>30.3</ele>
        <time>2026-01-22T13:12:09Z</time>
      </trkpt>
      <trkpt lat="48.86736" lon="2.34407">
        <ele>30.2</ele>
        <time>2026-01-22T13:12:13Z</time>
      </trkpt>
      <trkpt lat="48.86741" lon="2.34403">
        <ele>30.8</ele>
        <time>2026-01-22T13:12:21Z</time>
      </trkpt>
      <trkpt lat="48.86745" lon="2.34402">
        <ele>31.1</ele>
        <time>2026-01-22T13:12:26Z</time>
      </trkpt>
      <trkpt lat="48.8675" lon="2.344">
        <ele>31.4</ele>
        <time>2026-01-22T13:12:30Z</time>
      </trkpt>
      <trkpt lat="48.86756" lon="2.34398">
        <ele>32.1</ele>
        <time>2026-01-22T13:12:38Z</time>
      </trkpt>
      <trkpt lat="48.8676" lon="2.34395">
        <ele>32.6</ele>
        <time>2026-01-22T13:12:42Z</time>
      </trkpt>
      <trkpt lat="48.86761" lon="2.34388">
        <ele>33.3</ele>
        <time>2026-01-22T13:12:46Z</time>
      </trkpt>
      <trkpt lat="48.86763" lon="2.3438">
        <ele>34</ele>
        <time>2026-01-22T13:12:51Z</time>
      </trkpt>
      <trkpt lat="48.86768" lon="2.34377">
        <ele>33.9</ele>
        <time>2026-01-22T13:12:55Z</time>
      </trkpt>
      <trkpt lat="48.86773" lon="2.34374">
        <ele>33.7</ele>
        <time>2026-01-22T13:13:01Z</time>
      </trkpt>
      <trkpt lat="48.86777" lon="2.34371">
        <ele>33.4</ele>
        <time>2026-01-22T13:13:06Z</time>
      </trkpt>
      <trkpt lat="48.86782" lon="2.3437">
        <ele>32.9</ele>
        <time>2026-01-22T13:13:12Z</time>
      </trkpt>
      <trkpt lat="48.86787" lon="2.34369">
        <ele>31.5</ele>
        <time>2026-01-22T13:13:17Z</time>
      </trkpt>
      <trkpt lat="48.86791" lon="2.34371">
        <ele>30.8</ele>
        <time>2026-01-22T13:13:19Z</time>
      </trkpt>
      <trkpt lat="48.86797" lon="2.34369">
        <ele>28.8</ele>
        <time>2026-01-22T13:13:25Z</time>
      </trkpt>
      <trkpt lat="48.86802" lon="2.34367">
        <ele>27.1</ele>
        <time>2026-01-22T13:13:31Z</time>
      </trkpt>
      <trkpt lat="48.86807" lon="2.34369">
        <ele>25.7</ele>
        <time>2026-01-22T13:13:35Z</time>
      </trkpt>
      <trkpt lat="48.86812" lon="2.34372">
        <ele>25.6</ele>
        <time>2026-01-22T13:13:39Z</time>
      </trkpt>
      <trkpt lat="48.86817" lon="2.34374">
        <ele>26.5</ele>
        <time>2026-01-22T13:13:46Z</time>
      </trkpt>
      <trkpt lat="48.86821" lon="2.34377">
        <ele>31.7</ele>
        <time>2026-01-22T13:14:09Z</time>
      </trkpt>
      <trkpt lat="48.86821" lon="2.34369">
        <ele>31.3</ele>
        <time>2026-01-22T13:14:17Z</time>
      </trkpt>
      <trkpt lat="48.86818" lon="2.34364">
        <ele>30</ele>
        <time>2026-01-22T13:14:24Z</time>
      </trkpt>
      <trkpt lat="48.86823" lon="2.3436">
        <ele>30.2</ele>
        <time>2026-01-22T13:14:36Z</time>
      </trkpt>
      <trkpt lat="48.86824" lon="2.34352">
        <ele>31</ele>
        <time>2026-01-22T13:14:42Z</time>
      </trkpt>
      <trkpt lat="48.86825" lon="2.34346">
        <ele>32.6</ele>
        <time>2026-01-22T13:14:47Z</time>
      </trkpt>
      <trkpt lat="48.86831" lon="2.34343">
        <ele>33.7</ele>
        <time>2026-01-22T13:14:52Z</time>
      </trkpt>
      <trkpt lat="48.86836" lon="2.34341">
        <ele>33.7</ele>
        <time>2026-01-22T13:14:55Z</time>
      </trkpt>
      <trkpt lat="48.8684" lon="2.34337">
        <ele>33.9</ele>
        <time>2026-01-22T13:15:00Z</time>
      </trkpt>
      <trkpt lat="48.86844" lon="2.34335">
        <ele>35.4</ele>
        <time>2026-01-22T13:15:06Z</time>
      </trkpt>
      <trkpt lat="48.86849" lon="2.34332">
        <ele>35.6</ele>
        <time>2026-01-22T13:15:12Z</time>
      </trkpt>
      <trkpt lat="48.86852" lon="2.34327">
        <ele>35.2</ele>
        <time>2026-01-22T13:15:19Z</time>
      </trkpt>
      <trkpt lat="48.86856" lon="2.34322">
        <ele>34.7</ele>
        <time>2026-01-22T13:15:26Z</time>
      </trkpt>
      <trkpt lat="48.8686" lon="2.34319">
        <ele>33.9</ele>
        <time>2026-01-22T13:15:31Z</time>
      </trkpt>
      <trkpt lat="48.86865" lon="2.34317">
        <ele>33.4</ele>
        <time>2026-01-22T13:15:36Z</time>
      </trkpt>
      <trkpt lat="48.8687" lon="2.34314">
        <ele>32</ele>
        <time>2026-01-22T13:15:42Z</time>
      </trkpt>
      <trkpt lat="48.86875" lon="2.34312">
        <ele>30.4</ele>
        <time>2026-01-22T13:15:47Z</time>
      </trkpt>
      <trkpt lat="48.86881" lon="2.34309">
        <ele>29.9</ele>
        <time>2026-01-22T13:16:01Z</time>
      </trkpt>
      <trkpt lat="48.86887" lon="2.34305">
        <ele>28.6</ele>
        <time>2026-01-22T13:16:12Z</time>
      </trkpt>
      <trkpt lat="48.86891" lon="2.34307">
        <ele>28.1</ele>
        <time>2026-01-22T13:16:16Z</time>
      </trkpt>
      <trkpt lat="48.86896" lon="2.34309">
        <ele>28.9</ele>
        <time>2026-01-22T13:16:23Z</time>
      </trkpt>
      <trkpt lat="48.86901" lon="2.34308">
        <ele>28.8</ele>
        <time>2026-01-22T13:16:27Z</time>
      </trkpt>
      <trkpt lat="48.86905" lon="2.34304">
        <ele>28.7</ele>
        <time>2026-01-22T13:16:33Z</time>
      </trkpt>
      <trkpt lat="48.86909" lon="2.34301">
        <ele>30.1</ele>
        <time>2026-01-22T13:16:40Z</time>
      </trkpt>
      <trkpt lat="48.86914" lon="2.34298">
        <ele>30.8</ele>
        <time>2026-01-22T13:16:47Z</time>
      </trkpt>
      <trkpt lat="48.86917" lon="2.34292">
        <ele>30.4</ele>
        <time>2026-01-22T13:16:52Z</time>
      </trkpt>
      <trkpt lat="48.86921" lon="2.3429">
        <ele>30.4</ele>
        <time>2026-01-22T13:17:04Z</time>
      </trkpt>
      <trkpt lat="48.86926" lon="2.3429">
        <ele>32</ele>
        <time>2026-01-22T13:17:13Z</time>
      </trkpt>
      <trkpt lat="48.8693" lon="2.3429">
        <ele>32.7</ele>
        <time>2026-01-22T13:17:20Z</time>
      </trkpt>
      <trkpt lat="48.86935" lon="2.3429">
        <ele>34.8</ele>
        <time>2026-01-22T13:17:26Z</time>
      </trkpt>
      <trkpt lat="48.86941" lon="2.34289">
        <ele>37.8</ele>
        <time>2026-01-22T13:17:32Z</time>
      </trkpt>
      <trkpt lat="48.86947" lon="2.34289">
        <ele>39.7</ele>
        <time>2026-01-22T13:17:37Z</time>
      </trkpt>
      <trkpt lat="48.86952" lon="2.34287">
        <ele>40.3</ele>
        <time>2026-01-22T13:17:41Z</time>
      </trkpt>
      <trkpt lat="48.86956" lon="2.34283">
        <ele>39.8</ele>
        <time>2026-01-22T13:17:48Z</time>
      </trkpt>
      <trkpt lat="48.86961" lon="2.34281">
        <ele>40</ele>
        <time>2026-01-22T13:17:54Z</time>
      </trkpt>
      <trkpt lat="48.86965" lon="2.34278">
        <ele>40.1</ele>
        <time>2026-01-22T13:18:02Z</time>
      </trkpt>
      <trkpt lat="48.8697" lon="2.34276">
        <ele>40.4</ele>
        <time>2026-01-22T13:18:06Z</time>
      </trkpt>
      <trkpt lat="48.86975" lon="2.34276">
        <ele>40.8</ele>
        <time>2026-01-22T13:18:10Z</time>
      </trkpt>
      <trkpt lat="48.8698" lon="2.34273">
        <ele>41.4</ele>
        <time>2026-01-22T13:18:15Z</time>
      </trkpt>
      <trkpt lat="48.86985" lon="2.34271">
        <ele>41.4</ele>
        <time>2026-01-22T13:18:22Z</time>
      </trkpt>
      <trkpt lat="48.8699" lon="2.34268">
        <ele>40.9</ele>
        <time>2026-01-22T13:18:28Z</time>
      </trkpt>
      <trkpt lat="48.86994" lon="2.34262">
        <ele>41</ele>
        <time>2026-01-22T13:18:33Z</time>
      </trkpt>
      <trkpt lat="48.86999" lon="2.34258">
        <ele>41.6</ele>
        <time>2026-01-22T13:18:37Z</time>
      </trkpt>
      <trkpt lat="48.87004" lon="2.34258">
        <ele>40.8</ele>
        <time>2026-01-22T13:18:40Z</time>
      </trkpt>
      <trkpt lat="48.87008" lon="2.34254">
        <ele>41.8</ele>
        <time>2026-01-22T13:18:46Z</time>
      </trkpt>
      <trkpt lat="48.87013" lon="2.34252">
        <ele>42.2</ele>
        <time>2026-01-22T13:18:51Z</time>
      </trkpt>
      <trkpt lat="48.87019" lon="2.34249">
        <ele>42.8</ele>
        <time>2026-01-22T13:19:15Z</time>
      </trkpt>
      <trkpt lat="48.87021" lon="2.34242">
        <ele>39.9</ele>
        <time>2026-01-22T13:19:41Z</time>
      </trkpt>
      <trkpt lat="48.87023" lon="2.34234">
        <ele>41.3</ele>
        <time>2026-01-22T13:19:45Z</time>
      </trkpt>
      <trkpt lat="48.87023" lon="2.34227">
        <ele>42.4</ele>
        <time>2026-01-22T13:19:49Z</time>
      </trkpt>
      <trkpt lat="48.87025" lon="2.3422">
        <ele>43.5</ele>
        <time>2026-01-22T13:19:54Z</time>
      </trkpt>
      <trkpt lat="48.87026" lon="2.34212">
        <ele>44</ele>
        <time>2026-01-22T13:19:59Z</time>
      </trkpt>
      <trkpt lat="48.87028" lon="2.34207">
        <ele>44.3</ele>
        <time>2026-01-22T13:20:05Z</time>
      </trkpt>
      <trkpt lat="48.87031" lon="2.34201">
        <ele>43.9</ele>
        <time>2026-01-22T13:20:11Z</time>
      </trkpt>
      <trkpt lat="48.87033" lon="2.34194">
        <ele>42.4</ele>
        <time>2026-01-22T13:20:17Z</time>
      </trkpt>
      <trkpt lat="48.87034" lon="2.34187">
        <ele>41.9</ele>
        <time>2026-01-22T13:20:28Z</time>
      </trkpt>
      <trkpt lat="48.87038" lon="2.34183">
        <ele>42</ele>
        <time>2026-01-22T13:20:36Z</time>
      </trkpt>
      <trkpt lat="48.87039" lon="2.34175">
        <ele>41</ele>
        <time>2026-01-22T13:20:43Z</time>
      </trkpt>
      <trkpt lat="48.8704" lon="2.34167">
        <ele>38.5</ele>
        <time>2026-01-22T13:20:50Z</time>
      </trkpt>
      <trkpt lat="48.87037" lon="2.34155">
        <ele>37.2</ele>
        <time>2026-01-22T13:21:00Z</time>
      </trkpt>
      <trkpt lat="48.87034" lon="2.34148">
        <ele>36.4</ele>
        <time>2026-01-22T13:21:02Z</time>
      </trkpt>
      <trkpt lat="48.87043" lon="2.34153">
        <ele>36.2</ele>
        <time>2026-01-22T13:21:22Z</time>
      </trkpt>
      <trkpt lat="48.87054" lon="2.34158">
        <ele>36.2</ele>
        <time>2026-01-22T13:21:49Z</time>
      </trkpt>
      <trkpt lat="48.8706" lon="2.34155">
        <ele>36.2</ele>
        <time>2026-01-22T13:22:02Z</time>
      </trkpt>
      <trkpt lat="48.87072" lon="2.34149">
        <ele>36.2</ele>
        <time>2026-01-22T13:22:22Z</time>
      </trkpt>
      <trkpt lat="48.87072" lon="2.34162">
        <ele>36.2</ele>
        <time>2026-01-22T13:22:29Z</time>
      </trkpt>
      <trkpt lat="48.87063" lon="2.34179">
        <ele>36.2</ele>
        <time>2026-01-22T13:22:29Z</time>
      </trkpt>
      <trkpt lat="48.87068" lon="2.34183">
        <ele>38.8</ele>
        <time>2026-01-22T13:22:30Z</time>
      </trkpt>
      <trkpt lat="48.87072" lon="2.34177">
        <ele>35.7</ele>
        <time>2026-01-22T13:22:35Z</time>
      </trkpt>
      <trkpt lat="48.87075" lon="2.34169">
        <ele>33.6</ele>
        <time>2026-01-22T13:22:39Z</time>
      </trkpt>
      <trkpt lat="48.8708" lon="2.34169">
        <ele>37.2</ele>
        <time>2026-01-22T13:22:41Z</time>
      </trkpt>
      <trkpt lat="48.87088" lon="2.3417">
        <ele>44.4</ele>
        <time>2026-01-22T13:22:55Z</time>
      </trkpt>
      <trkpt lat="48.87092" lon="2.34171">
        <ele>49.9</ele>
        <time>2026-01-22T13:23:01Z</time>
      </trkpt>
      <trkpt lat="48.87096" lon="2.34176">
        <ele>51.9</ele>
        <time>2026-01-22T13:23:06Z</time>
      </trkpt>
      <trkpt lat="48.87091" lon="2.34176">
        <ele>57.8</ele>
        <time>2026-01-22T13:23:27Z</time>
      </trkpt>
      <trkpt lat="48.87098" lon="2.34173">
        <ele>59.4</ele>
        <time>2026-01-22T13:23:39Z</time>
      </trkpt>
      <trkpt lat="48.87103" lon="2.34173">
        <ele>58.5</ele>
        <time>2026-01-22T13:23:42Z</time>
      </trkpt>
      <trkpt lat="48.87107" lon="2.34178">
        <ele>60.4</ele>
        <time>2026-01-22T13:23:51Z</time>
      </trkpt>
      <trkpt lat="48.87113" lon="2.34178">
        <ele>61.7</ele>
        <time>2026-01-22T13:24:01Z</time>
      </trkpt>
      <trkpt lat="48.8712" lon="2.34177">
        <ele>62.2</ele>
        <time>2026-01-22T13:24:04Z</time>
      </trkpt>
      <trkpt lat="48.87127" lon="2.34177">
        <ele>62.2</ele>
        <time>2026-01-22T13:24:06Z</time>
      </trkpt>
      <trkpt lat="48.87134" lon="2.34173">
        <ele>62.3</ele>
        <time>2026-01-22T13:24:08Z</time>
      </trkpt>
      <trkpt lat="48.87141" lon="2.34178">
        <ele>62.1</ele>
        <time>2026-01-22T13:24:20Z</time>
      </trkpt>
      <trkpt lat="48.87145" lon="2.34182">
        <ele>62.1</ele>
        <time>2026-01-22T13:24:27Z</time>
      </trkpt>
      <trkpt lat="48.87157" lon="2.34178">
        <ele>62.1</ele>
        <time>2026-01-22T13:24:34Z</time>
      </trkpt>
      <trkpt lat="48.87185" lon="2.34188">
        <ele>62.1</ele>
        <time>2026-01-22T13:24:38Z</time>
      </trkpt>
      <trkpt lat="48.87181" lon="2.34203">
        <ele>59.4</ele>
        <time>2026-01-22T13:24:39Z</time>
      </trkpt>
      <trkpt lat="48.87183" lon="2.34195">
        <ele>74.8</ele>
        <time>2026-01-22T13:24:41Z</time>
      </trkpt>
      <trkpt lat="48.8719" lon="2.34195">
        <ele>41.8</ele>
        <time>2026-01-22T13:25:16Z</time>
      </trkpt>
      <trkpt lat="48.87184" lon="2.34194">
        <ele>35.8</ele>
        <time>2026-01-22T13:26:00Z</time>
      </trkpt>
      <trkpt lat="48.87178" lon="2.34185">
        <ele>35.5</ele>
        <time>2026-01-22T13:26:29Z</time>
      </trkpt>
      <trkpt lat="48.87177" lon="2.34176">
        <ele>35.7</ele>
        <time>2026-01-22T13:26:42Z</time>
      </trkpt>
      <trkpt lat="48.87182" lon="2.3418">
        <ele>35.9</ele>
        <time>2026-01-22T13:26:47Z</time>
      </trkpt>
      <trkpt lat="48.87187" lon="2.34187">
        <ele>35.9</ele>
        <time>2026-01-22T13:26:48Z</time>
      </trkpt>
      <trkpt lat="48.87177" lon="2.34169">
        <ele>35.9</ele>
        <time>2026-01-22T13:26:49Z</time>
      </trkpt>
      <trkpt lat="48.87188" lon="2.34184">
        <ele>36</ele>
        <time>2026-01-22T13:26:52Z</time>
      </trkpt>
      <trkpt lat="48.87193" lon="2.34192">
        <ele>36</ele>
        <time>2026-01-22T13:26:53Z</time>
      </trkpt>
      <trkpt lat="48.87203" lon="2.34201">
        <ele>36</ele>
        <time>2026-01-22T13:27:53Z</time>
      </trkpt>
      <trkpt lat="48.87212" lon="2.34205">
        <ele>36</ele>
        <time>2026-01-22T13:27:57Z</time>
      </trkpt>
      <trkpt lat="48.87218" lon="2.34204">
        <ele>36</ele>
        <time>2026-01-22T13:28:04Z</time>
      </trkpt>
      <trkpt lat="48.87256" lon="2.3418">
        <ele>36</ele>
        <time>2026-01-22T13:28:08Z</time>
      </trkpt>
      <trkpt lat="48.8725" lon="2.34186">
        <ele>37.5</ele>
        <time>2026-01-22T13:28:11Z</time>
      </trkpt>
      <trkpt lat="48.87248" lon="2.34192">
        <ele>34.5</ele>
        <time>2026-01-22T13:28:13Z</time>
      </trkpt>
      <trkpt lat="48.8725" lon="2.34199">
        <ele>34.4</ele>
        <time>2026-01-22T13:28:15Z</time>
      </trkpt>
      <trkpt lat="48.87244" lon="2.34205">
        <ele>36.5</ele>
        <time>2026-01-22T13:28:17Z</time>
      </trkpt>
      <trkpt lat="48.87241" lon="2.34214">
        <ele>45.3</ele>
        <time>2026-01-22T13:28:25Z</time>
      </trkpt>
      <trkpt lat="48.87237" lon="2.34215">
        <ele>43.9</ele>
        <time>2026-01-22T13:28:27Z</time>
      </trkpt>
      <trkpt lat="48.87232" lon="2.34213">
        <ele>42.4</ele>
        <time>2026-01-22T13:28:36Z</time>
      </trkpt>
      <trkpt lat="48.87242" lon="2.34211">
        <ele>43.9</ele>
        <time>2026-01-22T13:28:55Z</time>
      </trkpt>
      <trkpt lat="48.87252" lon="2.34216">
        <ele>43.6</ele>
        <time>2026-01-22T13:29:22Z</time>
      </trkpt>
      <trkpt lat="48.87248" lon="2.34216">
        <ele>38.4</ele>
        <time>2026-01-22T13:29:54Z</time>
      </trkpt>
      <trkpt lat="48.87253" lon="2.34219">
        <ele>38.4</ele>
        <time>2026-01-22T13:29:59Z</time>
      </trkpt>
      <trkpt lat="48.87258" lon="2.34223">
        <ele>39.1</ele>
        <time>2026-01-22T13:30:02Z</time>
      </trkpt>
      <trkpt lat="48.87262" lon="2.34228">
        <ele>40.2</ele>
        <time>2026-01-22T13:30:06Z</time>
      </trkpt>
      <trkpt lat="48.87258" lon="2.34221">
        <ele>41.3</ele>
        <time>2026-01-22T13:30:19Z</time>
      </trkpt>
      <trkpt lat="48.8725" lon="2.34214">
        <ele>42</ele>
        <time>2026-01-22T13:30:22Z</time>
      </trkpt>
      <trkpt lat="48.87246" lon="2.34209">
        <ele>41.5</ele>
        <time>2026-01-22T13:30:25Z</time>
      </trkpt>
      <trkpt lat="48.87239" lon="2.34209">
        <ele>41.2</ele>
        <time>2026-01-22T13:30:32Z</time>
      </trkpt>
      <trkpt lat="48.87242" lon="2.34216">
        <ele>40.1</ele>
        <time>2026-01-22T13:30:40Z</time>
      </trkpt>
      <trkpt lat="48.87238" lon="2.34221">
        <ele>39.5</ele>
        <time>2026-01-22T13:31:01Z</time>
      </trkpt>
      <trkpt lat="48.87233" lon="2.34221">
        <ele>39.5</ele>
        <time>2026-01-22T13:31:12Z</time>
      </trkpt>
      <trkpt lat="48.87238" lon="2.34217">
        <ele>42.4</ele>
        <time>2026-01-22T13:31:29Z</time>
      </trkpt>
      <trkpt lat="48.87244" lon="2.34216">
        <ele>43.5</ele>
        <time>2026-01-22T13:31:33Z</time>
      </trkpt>
      <trkpt lat="48.87249" lon="2.34216">
        <ele>43.3</ele>
        <time>2026-01-22T13:31:39Z</time>
      </trkpt>
      <trkpt lat="48.87243" lon="2.34212">
        <ele>42.9</ele>
        <time>2026-01-22T13:32:02Z</time>
      </trkpt>
      <trkpt lat="48.87239" lon="2.34209">
        <ele>43</ele>
        <time>2026-01-22T13:32:07Z</time>
      </trkpt>
      <trkpt lat="48.87243" lon="2.34215">
        <ele>44.9</ele>
        <time>2026-01-22T13:32:32Z</time>
      </trkpt>
      <trkpt lat="48.87247" lon="2.34211">
        <ele>44.5</ele>
        <time>2026-01-22T13:33:10Z</time>
      </trkpt>
      <trkpt lat="48.87244" lon="2.34206">
        <ele>44</ele>
        <time>2026-01-22T13:33:17Z</time>
      </trkpt>
      <trkpt lat="48.8724" lon="2.34202">
        <ele>44</ele>
        <time>2026-01-22T13:33:19Z</time>
      </trkpt>
      <trkpt lat="48.87236" lon="2.34195">
        <ele>43.9</ele>
        <time>2026-01-22T13:33:22Z</time>
      </trkpt>
      <trkpt lat="48.87233" lon="2.3419">
        <ele>43.9</ele>
        <time>2026-01-22T13:33:24Z</time>
      </trkpt>
      <trkpt lat="48.87237" lon="2.34184">
        <ele>43.8</ele>
        <time>2026-01-22T13:33:28Z</time>
      </trkpt>
      <trkpt lat="48.87259" lon="2.34201">
        <ele>43.9</ele>
        <time>2026-01-22T13:33:36Z</time>
      </trkpt>
      <trkpt lat="48.87264" lon="2.34205">
        <ele>43.9</ele>
        <time>2026-01-22T13:33:36Z</time>
      </trkpt>
      <trkpt lat="48.87266" lon="2.34212">
        <ele>43.9</ele>
        <time>2026-01-22T13:33:39Z</time>
      </trkpt>
      <trkpt lat="48.87261" lon="2.34195">
        <ele>43.9</ele>
        <time>2026-01-22T13:33:42Z</time>
      </trkpt>
      <trkpt lat="48.87268" lon="2.342">
        <ele>43.9</ele>
        <time>2026-01-22T13:33:44Z</time>
      </trkpt>
      <trkpt lat="48.87273" lon="2.34204">
        <ele>43.9</ele>
        <time>2026-01-22T13:33:45Z</time>
      </trkpt>
      <trkpt lat="48.87282" lon="2.3421">
        <ele>43.9</ele>
        <time>2026-01-22T13:33:47Z</time>
      </trkpt>
      <trkpt lat="48.87286" lon="2.34213">
        <ele>43.9</ele>
        <time>2026-01-22T13:33:48Z</time>
      </trkpt>
      <trkpt lat="48.87292" lon="2.34214">
        <ele>43.9</ele>
        <time>2026-01-22T13:33:50Z</time>
      </trkpt>
      <trkpt lat="48.87289" lon="2.34205">
        <ele>44</ele>
        <time>2026-01-22T13:33:58Z</time>
      </trkpt>
      <trkpt lat="48.87285" lon="2.34201">
        <ele>43.9</ele>
        <time>2026-01-22T13:34:00Z</time>
      </trkpt>
      <trkpt lat="48.8728" lon="2.34198">
        <ele>43.7</ele>
        <time>2026-01-22T13:34:03Z</time>
      </trkpt>
      <trkpt lat="48.87282" lon="2.34203">
        <ele>42.7</ele>
        <time>2026-01-22T13:34:14Z</time>
      </trkpt>
      <trkpt lat="48.87278" lon="2.34199">
        <ele>42</ele>
        <time>2026-01-22T13:34:20Z</time>
      </trkpt>
      <trkpt lat="48.87281" lon="2.34205">
        <ele>41.2</ele>
        <time>2026-01-22T13:34:31Z</time>
      </trkpt>
      <trkpt lat="48.87282" lon="2.34212">
        <ele>40.7</ele>
        <time>2026-01-22T13:34:36Z</time>
      </trkpt>
      <trkpt lat="48.87279" lon="2.34202">
        <ele>40</ele>
        <time>2026-01-22T13:34:43Z</time>
      </trkpt>
      <trkpt lat="48.87278" lon="2.34195">
        <ele>39.9</ele>
        <time>2026-01-22T13:34:45Z</time>
      </trkpt>
      <trkpt lat="48.87275" lon="2.34187">
        <ele>39.7</ele>
        <time>2026-01-22T13:34:48Z</time>
      </trkpt>
      <trkpt lat="48.87271" lon="2.34186">
        <ele>39.5</ele>
        <time>2026-01-22T13:34:53Z</time>
      </trkpt>
      <trkpt lat="48.87267" lon="2.34192">
        <ele>39.4</ele>
        <time>2026-01-22T13:35:01Z</time>
      </trkpt>
      <trkpt lat="48.87266" lon="2.34202">
        <ele>39.2</ele>
        <time>2026-01-22T13:35:04Z</time>
      </trkpt>
      <trkpt lat="48.87267" lon="2.3421">
        <ele>39.1</ele>
        <time>2026-01-22T13:35:06Z</time>
      </trkpt>
      <trkpt lat="48.87281" lon="2.34218">
        <ele>38.8</ele>
        <time>2026-01-22T13:35:08Z</time>
      </trkpt>
      <trkpt lat="48.87287" lon="2.34221">
        <ele>38.8</ele>
        <time>2026-01-22T13:35:08Z</time>
      </trkpt>
      <trkpt lat="48.87292" lon="2.34222">
        <ele>38.7</ele>
        <time>2026-01-22T13:35:10Z</time>
      </trkpt>
      <trkpt lat="48.87263" lon="2.34223">
        <ele>38.8</ele>
        <time>2026-01-22T13:35:11Z</time>
      </trkpt>
      <trkpt lat="48.87261" lon="2.3423">
        <ele>38.9</ele>
        <time>2026-01-22T13:35:13Z</time>
      </trkpt>
      <trkpt lat="48.87279" lon="2.34224">
        <ele>39.1</ele>
        <time>2026-01-22T13:35:15Z</time>
      </trkpt>
      <trkpt lat="48.87284" lon="2.34222">
        <ele>39.1</ele>
        <time>2026-01-22T13:35:15Z</time>
      </trkpt>
      <trkpt lat="48.87289" lon="2.3422">
        <ele>39.3</ele>
        <time>2026-01-22T13:35:17Z</time>
      </trkpt>
      <trkpt lat="48.87263" lon="2.3422">
        <ele>39.4</ele>
        <time>2026-01-22T13:35:18Z</time>
      </trkpt>
      <trkpt lat="48.8727" lon="2.34206">
        <ele>39.6</ele>
        <time>2026-01-22T13:35:20Z</time>
      </trkpt>
      <trkpt lat="48.87286" lon="2.34217">
        <ele>39.8</ele>
        <time>2026-01-22T13:35:21Z</time>
      </trkpt>
      <trkpt lat="48.87292" lon="2.34219">
        <ele>39.8</ele>
        <time>2026-01-22T13:35:22Z</time>
      </trkpt>
      <trkpt lat="48.87302" lon="2.34223">
        <ele>39.9</ele>
        <time>2026-01-22T13:35:32Z</time>
      </trkpt>
      <trkpt lat="48.87312" lon="2.34222">
        <ele>39.9</ele>
        <time>2026-01-22T13:35:38Z</time>
      </trkpt>
      <trkpt lat="48.87312" lon="2.34213">
        <ele>48.2</ele>
        <time>2026-01-22T13:35:41Z</time>
      </trkpt>
      <trkpt lat="48.87308" lon="2.34208">
        <ele>43.7</ele>
        <time>2026-01-22T13:35:50Z</time>
      </trkpt>
      <trkpt lat="48.87304" lon="2.34213">
        <ele>44.1</ele>
        <time>2026-01-22T13:35:52Z</time>
      </trkpt>
      <trkpt lat="48.87308" lon="2.34204">
        <ele>44</ele>
        <time>2026-01-22T13:35:53Z</time>
      </trkpt>
      <trkpt lat="48.87303" lon="2.34214">
        <ele>44.1</ele>
        <time>2026-01-22T13:35:55Z</time>
      </trkpt>
      <trkpt lat="48.8731" lon="2.34206">
        <ele>44.7</ele>
        <time>2026-01-22T13:36:09Z</time>
      </trkpt>
      <trkpt lat="48.87312" lon="2.34219">
        <ele>75.9</ele>
        <time>2026-01-22T13:36:12Z</time>
      </trkpt>
      <trkpt lat="48.87317" lon="2.34216">
        <ele>46</ele>
        <time>2026-01-22T13:36:14Z</time>
      </trkpt>
      <trkpt lat="48.87311" lon="2.34224">
        <ele>41.8</ele>
        <time>2026-01-22T13:36:37Z</time>
      </trkpt>
      <trkpt lat="48.87306" lon="2.34228">
        <ele>27.4</ele>
        <time>2026-01-22T13:36:47Z</time>
      </trkpt>
      <trkpt lat="48.87301" lon="2.34228">
        <ele>27.8</ele>
        <time>2026-01-22T13:36:49Z</time>
      </trkpt>
      <trkpt lat="48.87296" lon="2.34227">
        <ele>28</ele>
        <time>2026-01-22T13:36:51Z</time>
      </trkpt>
      <trkpt lat="48.87341" lon="2.34233">
        <ele>28.1</ele>
        <time>2026-01-22T13:37:36Z</time>
      </trkpt>
      <trkpt lat="48.87336" lon="2.34239">
        <ele>28.1</ele>
        <time>2026-01-22T13:37:41Z</time>
      </trkpt>
      <trkpt lat="48.87338" lon="2.34246">
        <ele>31.3</ele>
        <time>2026-01-22T13:37:44Z</time>
      </trkpt>
      <trkpt lat="48.8734" lon="2.34239">
        <ele>30.4</ele>
        <time>2026-01-22T13:37:48Z</time>
      </trkpt>
      <trkpt lat="48.87345" lon="2.34235">
        <ele>28.7</ele>
        <time>2026-01-22T13:37:52Z</time>
      </trkpt>
      <trkpt lat="48.8735" lon="2.34232">
        <ele>25.9</ele>
        <time>2026-01-22T13:37:55Z</time>
      </trkpt>
      <trkpt lat="48.87355" lon="2.34229">
        <ele>24.2</ele>
        <time>2026-01-22T13:38:00Z</time>
      </trkpt>
      <trkpt lat="48.87357" lon="2.34223">
        <ele>22.1</ele>
        <time>2026-01-22T13:38:04Z</time>
      </trkpt>
      <trkpt lat="48.87352" lon="2.34221">
        <ele>23</ele>
        <time>2026-01-22T13:38:10Z</time>
      </trkpt>
      <trkpt lat="48.87356" lon="2.34221">
        <ele>33.9</ele>
        <time>2026-01-22T13:38:20Z</time>
      </trkpt>
      <trkpt lat="48.87352" lon="2.34226">
        <ele>37.2</ele>
        <time>2026-01-22T13:38:32Z</time>
      </trkpt>
      <trkpt lat="48.87347" lon="2.34225">
        <ele>37.1</ele>
        <time>2026-01-22T13:38:37Z</time>
      </trkpt>
      <trkpt lat="48.87401" lon="2.3427">
        <ele>36.8</ele>
        <time>2026-01-22T13:39:01Z</time>
      </trkpt>
      <trkpt lat="48.87395" lon="2.34267">
        <ele>31</ele>
        <time>2026-01-22T13:39:02Z</time>
      </trkpt>
      <trkpt lat="48.87403" lon="2.3427">
        <ele>27.1</ele>
        <time>2026-01-22T13:39:03Z</time>
      </trkpt>
      <trkpt lat="48.87399" lon="2.34273">
        <ele>23.1</ele>
        <time>2026-01-22T13:39:11Z</time>
      </trkpt>
      <trkpt lat="48.87394" lon="2.34268">
        <ele>27.9</ele>
        <time>2026-01-22T13:39:15Z</time>
      </trkpt>
      <trkpt lat="48.87389" lon="2.34262">
        <ele>30.8</ele>
        <time>2026-01-22T13:39:19Z</time>
      </trkpt>
      <trkpt lat="48.87385" lon="2.34257">
        <ele>30.6</ele>
        <time>2026-01-22T13:39:26Z</time>
      </trkpt>
      <trkpt lat="48.87375" lon="2.34261">
        <ele>31.8</ele>
        <time>2026-01-22T13:39:40Z</time>
      </trkpt>
      <trkpt lat="48.87379" lon="2.34255">
        <ele>49.1</ele>
        <time>2026-01-22T13:40:24Z</time>
      </trkpt>
      <trkpt lat="48.87386" lon="2.3425">
        <ele>47.2</ele>
        <time>2026-01-22T13:40:27Z</time>
      </trkpt>
      <trkpt lat="48.87392" lon="2.34244">
        <ele>41.5</ele>
        <time>2026-01-22T13:40:35Z</time>
      </trkpt>
      <trkpt lat="48.87397" lon="2.34243">
        <ele>36.3</ele>
        <time>2026-01-22T13:40:42Z</time>
      </trkpt>
      <trkpt lat="48.87399" lon="2.3425">
        <ele>33.8</ele>
        <time>2026-01-22T13:40:49Z</time>
      </trkpt>
      <trkpt lat="48.874" lon="2.34243">
        <ele>32.4</ele>
        <time>2026-01-22T13:41:00Z</time>
      </trkpt>
      <trkpt lat="48.87405" lon="2.34239">
        <ele>29.7</ele>
        <time>2026-01-22T13:41:08Z</time>
      </trkpt>
      <trkpt lat="48.87408" lon="2.34234">
        <ele>28.3</ele>
        <time>2026-01-22T13:41:13Z</time>
      </trkpt>
      <trkpt lat="48.87413" lon="2.34232">
        <ele>26.6</ele>
        <time>2026-01-22T13:41:20Z</time>
      </trkpt>
      <trkpt lat="48.87417" lon="2.34234">
        <ele>25.6</ele>
        <time>2026-01-22T13:41:25Z</time>
      </trkpt>
      <trkpt lat="48.87422" lon="2.34238">
        <ele>25</ele>
        <time>2026-01-22T13:41:29Z</time>
      </trkpt>
      <trkpt lat="48.87426" lon="2.34242">
        <ele>24.5</ele>
        <time>2026-01-22T13:41:33Z</time>
      </trkpt>
      <trkpt lat="48.8743" lon="2.34247">
        <ele>24</ele>
        <time>2026-01-22T13:41:41Z</time>
      </trkpt>
      <trkpt lat="48.87435" lon="2.3425">
        <ele>23.2</ele>
        <time>2026-01-22T13:41:46Z</time>
      </trkpt>
      <trkpt lat="48.87439" lon="2.34253">
        <ele>22.5</ele>
        <time>2026-01-22T13:41:50Z</time>
      </trkpt>
      <trkpt lat="48.87443" lon="2.34257">
        <ele>22.3</ele>
        <time>2026-01-22T13:41:54Z</time>
      </trkpt>
      <trkpt lat="48.87447" lon="2.3426">
        <ele>21.2</ele>
        <time>2026-01-22T13:41:59Z</time>
      </trkpt>
      <trkpt lat="48.87452" lon="2.34264">
        <ele>20</ele>
        <time>2026-01-22T13:42:07Z</time>
      </trkpt>
      <trkpt lat="48.87456" lon="2.34266">
        <ele>19.4</ele>
        <time>2026-01-22T13:42:14Z</time>
      </trkpt>
      <trkpt lat="48.87461" lon="2.34269">
        <ele>19.2</ele>
        <time>2026-01-22T13:42:20Z</time>
      </trkpt>
      <trkpt lat="48.87465" lon="2.34274">
        <ele>19</ele>
        <time>2026-01-22T13:42:26Z</time>
      </trkpt>
      <trkpt lat="48.87469" lon="2.34276">
        <ele>18.7</ele>
        <time>2026-01-22T13:42:32Z</time>
      </trkpt>
      <trkpt lat="48.87473" lon="2.3428">
        <ele>18.7</ele>
        <time>2026-01-22T13:42:38Z</time>
      </trkpt>
      <trkpt lat="48.87478" lon="2.34284">
        <ele>18.6</ele>
        <time>2026-01-22T13:42:42Z</time>
      </trkpt>
      <trkpt lat="48.87482" lon="2.34287">
        <ele>18.4</ele>
        <time>2026-01-22T13:42:47Z</time>
      </trkpt>
      <trkpt lat="48.87487" lon="2.34291">
        <ele>18.2</ele>
        <time>2026-01-22T13:42:53Z</time>
      </trkpt>
      <trkpt lat="48.87492" lon="2.34295">
        <ele>17.6</ele>
        <time>2026-01-22T13:43:00Z</time>
      </trkpt>
      <trkpt lat="48.87496" lon="2.34298">
        <ele>17.1</ele>
        <time>2026-01-22T13:43:06Z</time>
      </trkpt>
      <trkpt lat="48.87501" lon="2.34302">
        <ele>16.9</ele>
        <time>2026-01-22T13:43:11Z</time>
      </trkpt>
      <trkpt lat="48.87505" lon="2.34305">
        <ele>16.7</ele>
        <time>2026-01-22T13:43:18Z</time>
      </trkpt>
      <trkpt lat="48.87509" lon="2.34307">
        <ele>14.8</ele>
        <time>2026-01-22T13:43:30Z</time>
      </trkpt>
      <trkpt lat="48.87512" lon="2.3432">
        <ele>13.9</ele>
        <time>2026-01-22T13:43:47Z</time>
      </trkpt>
      <trkpt lat="48.87516" lon="2.34323">
        <ele>8.7</ele>
        <time>2026-01-22T13:43:54Z</time>
      </trkpt>
      <trkpt lat="48.87522" lon="2.34324">
        <ele>7.7</ele>
        <time>2026-01-22T13:44:03Z</time>
      </trkpt>
      <trkpt lat="48.87527" lon="2.34327">
        <ele>6.8</ele>
        <time>2026-01-22T13:44:09Z</time>
      </trkpt>
      <trkpt lat="48.87531" lon="2.3433">
        <ele>6.3</ele>
        <time>2026-01-22T13:44:16Z</time>
      </trkpt>
      <trkpt lat="48.87536" lon="2.34331">
        <ele>6.2</ele>
        <time>2026-01-22T13:44:22Z</time>
      </trkpt>
      <trkpt lat="48.87541" lon="2.3433">
        <ele>5.7</ele>
        <time>2026-01-22T13:44:34Z</time>
      </trkpt>
      <trkpt lat="48.8754" lon="2.34337">
        <ele>6</ele>
        <time>2026-01-22T13:44:37Z</time>
      </trkpt>
      <trkpt lat="48.87542" lon="2.34349">
        <ele>10.2</ele>
        <time>2026-01-22T13:44:44Z</time>
      </trkpt>
      <trkpt lat="48.87545" lon="2.34355">
        <ele>10</ele>
        <time>2026-01-22T13:44:48Z</time>
      </trkpt>
      <trkpt lat="48.87548" lon="2.3436">
        <ele>9.8</ele>
        <time>2026-01-22T13:44:51Z</time>
      </trkpt>
      <trkpt lat="48.87553" lon="2.34365">
        <ele>10.4</ele>
        <time>2026-01-22T13:44:55Z</time>
      </trkpt>
      <trkpt lat="48.87557" lon="2.3437">
        <ele>12.2</ele>
        <time>2026-01-22T13:44:59Z</time>
      </trkpt>
      <trkpt lat="48.87562" lon="2.34375">
        <ele>14</ele>
        <time>2026-01-22T13:45:02Z</time>
      </trkpt>
      <trkpt lat="48.87566" lon="2.34379">
        <ele>15.9</ele>
        <time>2026-01-22T13:45:07Z</time>
      </trkpt>
      <trkpt lat="48.87569" lon="2.34385">
        <ele>18.9</ele>
        <time>2026-01-22T13:45:14Z</time>
      </trkpt>
      <trkpt lat="48.87577" lon="2.3439">
        <ele>19.8</ele>
        <time>2026-01-22T13:45:35Z</time>
      </trkpt>
      <trkpt lat="48.87582" lon="2.34388">
        <ele>25.4</ele>
        <time>2026-01-22T13:45:39Z</time>
      </trkpt>
      <trkpt lat="48.87591" lon="2.34383">
        <ele>28.9</ele>
        <time>2026-01-22T13:46:09Z</time>
      </trkpt>
      <trkpt lat="48.87595" lon="2.3438">
        <ele>33.8</ele>
        <time>2026-01-22T13:46:13Z</time>
      </trkpt>
      <trkpt lat="48.876" lon="2.34379">
        <ele>33.9</ele>
        <time>2026-01-22T13:46:16Z</time>
      </trkpt>
      <trkpt lat="48.87603" lon="2.34384">
        <ele>33.7</ele>
        <time>2026-01-22T13:46:24Z</time>
      </trkpt>
      <trkpt lat="48.876" lon="2.34391">
        <ele>34.2</ele>
        <time>2026-01-22T13:46:29Z</time>
      </trkpt>
      <trkpt lat="48.87607" lon="2.3439">
        <ele>34.2</ele>
        <time>2026-01-22T13:46:59Z</time>
      </trkpt>
      <trkpt lat="48.87611" lon="2.34386">
        <ele>33.4</ele>
        <time>2026-01-22T13:47:03Z</time>
      </trkpt>
      <trkpt lat="48.87614" lon="2.34392">
        <ele>32.9</ele>
        <time>2026-01-22T13:47:11Z</time>
      </trkpt>
      <trkpt lat="48.87618" lon="2.34395">
        <ele>33.2</ele>
        <time>2026-01-22T13:47:17Z</time>
      </trkpt>
      <trkpt lat="48.87623" lon="2.34395">
        <ele>32.8</ele>
        <time>2026-01-22T13:47:27Z</time>
      </trkpt>
      <trkpt lat="48.87627" lon="2.34397">
        <ele>32</ele>
        <time>2026-01-22T13:47:35Z</time>
      </trkpt>
      <trkpt lat="48.87632" lon="2.34396">
        <ele>31.4</ele>
        <time>2026-01-22T13:47:41Z</time>
      </trkpt>
      <trkpt lat="48.87637" lon="2.34398">
        <ele>30.3</ele>
        <time>2026-01-22T13:47:46Z</time>
      </trkpt>
      <trkpt lat="48.87638" lon="2.34405">
        <ele>29.2</ele>
        <time>2026-01-22T13:47:51Z</time>
      </trkpt>
      <trkpt lat="48.87639" lon="2.34413">
        <ele>28.7</ele>
        <time>2026-01-22T13:47:55Z</time>
      </trkpt>
      <trkpt lat="48.87642" lon="2.34419">
        <ele>29.3</ele>
        <time>2026-01-22T13:47:58Z</time>
      </trkpt>
      <trkpt lat="48.87643" lon="2.34426">
        <ele>29.5</ele>
        <time>2026-01-22T13:48:04Z</time>
      </trkpt>
      <trkpt lat="48.87651" lon="2.34433">
        <ele>29.5</ele>
        <time>2026-01-22T13:48:33Z</time>
      </trkpt>
      <trkpt lat="48.87656" lon="2.34435">
        <ele>37.6</ele>
        <time>2026-01-22T13:48:41Z</time>
      </trkpt>
      <trkpt lat="48.87659" lon="2.34439">
        <ele>35.4</ele>
        <time>2026-01-22T13:48:50Z</time>
      </trkpt>
      <trkpt lat="48.87665" lon="2.34441">
        <ele>36</ele>
        <time>2026-01-22T13:48:54Z</time>
      </trkpt>
      <trkpt lat="48.87669" lon="2.34442">
        <ele>36.8</ele>
        <time>2026-01-22T13:48:59Z</time>
      </trkpt>
      <trkpt lat="48.87674" lon="2.34442">
        <ele>38.7</ele>
        <time>2026-01-22T13:49:06Z</time>
      </trkpt>
      <trkpt lat="48.87676" lon="2.34449">
        <ele>41.4</ele>
        <time>2026-01-22T13:49:18Z</time>
      </trkpt>
      <trkpt lat="48.87681" lon="2.34451">
        <ele>43.2</ele>
        <time>2026-01-22T13:49:25Z</time>
      </trkpt>
      <trkpt lat="48.87685" lon="2.34453">
        <ele>43.4</ele>
        <time>2026-01-22T13:49:29Z</time>
      </trkpt>
      <trkpt lat="48.8769" lon="2.34452">
        <ele>44.6</ele>
        <time>2026-01-22T13:49:38Z</time>
      </trkpt>
      <trkpt lat="48.87693" lon="2.34445">
        <ele>46.5</ele>
        <time>2026-01-22T13:49:43Z</time>
      </trkpt>
      <trkpt lat="48.87694" lon="2.34439">
        <ele>47.8</ele>
        <time>2026-01-22T13:49:47Z</time>
      </trkpt>
      <trkpt lat="48.87694" lon="2.34432">
        <ele>48.2</ele>
        <time>2026-01-22T13:49:51Z</time>
      </trkpt>
      <trkpt lat="48.87698" lon="2.34427">
        <ele>47.7</ele>
        <time>2026-01-22T13:49:56Z</time>
      </trkpt>
      <trkpt lat="48.877" lon="2.34421">
        <ele>45.5</ele>
        <time>2026-01-22T13:50:01Z</time>
      </trkpt>
      <trkpt lat="48.87704" lon="2.34416">
        <ele>43.8</ele>
        <time>2026-01-22T13:50:05Z</time>
      </trkpt>
      <trkpt lat="48.87706" lon="2.34409">
        <ele>42.2</ele>
        <time>2026-01-22T13:50:10Z</time>
      </trkpt>
      <trkpt lat="48.87708" lon="2.34402">
        <ele>40.1</ele>
        <time>2026-01-22T13:50:15Z</time>
      </trkpt>
      <trkpt lat="48.8771" lon="2.34395">
        <ele>37.8</ele>
        <time>2026-01-22T13:50:20Z</time>
      </trkpt>
      <trkpt lat="48.87709" lon="2.34388">
        <ele>35.1</ele>
        <time>2026-01-22T13:50:24Z</time>
      </trkpt>
      <trkpt lat="48.87706" lon="2.3438">
        <ele>32.9</ele>
        <time>2026-01-22T13:50:29Z</time>
      </trkpt>
      <trkpt lat="48.87702" lon="2.34375">
        <ele>31.7</ele>
        <time>2026-01-22T13:50:31Z</time>
      </trkpt>
      <trkpt lat="48.87698" lon="2.3437">
        <ele>29.7</ele>
        <time>2026-01-22T13:50:35Z</time>
      </trkpt>
      <trkpt lat="48.87696" lon="2.34364">
        <ele>28.1</ele>
        <time>2026-01-22T13:50:40Z</time>
      </trkpt>
      <trkpt lat="48.87697" lon="2.34356">
        <ele>27.7</ele>
        <time>2026-01-22T13:50:46Z</time>
      </trkpt>
      <trkpt lat="48.87699" lon="2.3435">
        <ele>27.5</ele>
        <time>2026-01-22T13:50:50Z</time>
      </trkpt>
      <trkpt lat="48.87703" lon="2.34345">
        <ele>26.4</ele>
        <time>2026-01-22T13:50:54Z</time>
      </trkpt>
      <trkpt lat="48.87705" lon="2.34339">
        <ele>26</ele>
        <time>2026-01-22T13:50:59Z</time>
      </trkpt>
      <trkpt lat="48.87706" lon="2.34332">
        <ele>25.8</ele>
        <time>2026-01-22T13:51:13Z</time>
      </trkpt>
      <trkpt lat="48.87704" lon="2.34325">
        <ele>25.9</ele>
        <time>2026-01-22T13:51:20Z</time>
      </trkpt>
      <trkpt lat="48.87703" lon="2.34319">
        <ele>24.8</ele>
        <time>2026-01-22T13:51:25Z</time>
      </trkpt>
      <trkpt lat="48.87707" lon="2.34314">
        <ele>24.7</ele>
        <time>2026-01-22T13:51:32Z</time>
      </trkpt>
      <trkpt lat="48.87712" lon="2.34314">
        <ele>24.5</ele>
        <time>2026-01-22T13:51:36Z</time>
      </trkpt>
      <trkpt lat="48.87715" lon="2.34308">
        <ele>24.6</ele>
        <time>2026-01-22T13:51:46Z</time>
      </trkpt>
      <trkpt lat="48.8772" lon="2.34306">
        <ele>24.5</ele>
        <time>2026-01-22T13:51:47Z</time>
      </trkpt>
      <trkpt lat="48.87727" lon="2.343">
        <ele>23.2</ele>
        <time>2026-01-22T13:51:49Z</time>
      </trkpt>
      <trkpt lat="48.87725" lon="2.34293">
        <ele>23.2</ele>
        <time>2026-01-22T13:51:51Z</time>
      </trkpt>
      <trkpt lat="48.87726" lon="2.34285">
        <ele>24.1</ele>
        <time>2026-01-22T13:51:54Z</time>
      </trkpt>
      <trkpt lat="48.87728" lon="2.34279">
        <ele>26</ele>
        <time>2026-01-22T13:51:58Z</time>
      </trkpt>
      <trkpt lat="48.87726" lon="2.34271">
        <ele>27.8</ele>
        <time>2026-01-22T13:52:12Z</time>
      </trkpt>
      <trkpt lat="48.87726" lon="2.34263">
        <ele>28.1</ele>
        <time>2026-01-22T13:52:18Z</time>
      </trkpt>
      <trkpt lat="48.87729" lon="2.34248">
        <ele>28.2</ele>
        <time>2026-01-22T13:52:28Z</time>
      </trkpt>
      <trkpt lat="48.8773" lon="2.34241">
        <ele>30.8</ele>
        <time>2026-01-22T13:52:33Z</time>
      </trkpt>
      <trkpt lat="48.8773" lon="2.34234">
        <ele>31.1</ele>
        <time>2026-01-22T13:52:39Z</time>
      </trkpt>
      <trkpt lat="48.8773" lon="2.34227">
        <ele>31.4</ele>
        <time>2026-01-22T13:52:43Z</time>
      </trkpt>
      <trkpt lat="48.87732" lon="2.3422">
        <ele>31.6</ele>
        <time>2026-01-22T13:52:48Z</time>
      </trkpt>
      <trkpt lat="48.87731" lon="2.34213">
        <ele>31</ele>
        <time>2026-01-22T13:52:55Z</time>
      </trkpt>
      <trkpt lat="48.87733" lon="2.34206">
        <ele>30.1</ele>
        <time>2026-01-22T13:53:01Z</time>
      </trkpt>
      <trkpt lat="48.87733" lon="2.34199">
        <ele>29.5</ele>
        <time>2026-01-22T13:53:06Z</time>
      </trkpt>
      <trkpt lat="48.87734" lon="2.34192">
        <ele>28.4</ele>
        <time>2026-01-22T13:53:11Z</time>
      </trkpt>
      <trkpt lat="48.87735" lon="2.34185">
        <ele>27.1</ele>
        <time>2026-01-22T13:53:16Z</time>
      </trkpt>
      <trkpt lat="48.87737" lon="2.34177">
        <ele>26</ele>
        <time>2026-01-22T13:53:21Z</time>
      </trkpt>
      <trkpt lat="48.87738" lon="2.3417">
        <ele>24.3</ele>
        <time>2026-01-22T13:53:28Z</time>
      </trkpt>
      <trkpt lat="48.87739" lon="2.34162">
        <ele>23.3</ele>
        <time>2026-01-22T13:53:34Z</time>
      </trkpt>
      <trkpt lat="48.87741" lon="2.34154">
        <ele>22.7</ele>
        <time>2026-01-22T13:53:38Z</time>
      </trkpt>
      <trkpt lat="48.87742" lon="2.34147">
        <ele>21.4</ele>
        <time>2026-01-22T13:53:42Z</time>
      </trkpt>
      <trkpt lat="48.87743" lon="2.34139">
        <ele>20.9</ele>
        <time>2026-01-22T13:53:46Z</time>
      </trkpt>
      <trkpt lat="48.87743" lon="2.3413">
        <ele>20.5</ele>
        <time>2026-01-22T13:53:50Z</time>
      </trkpt>
      <trkpt lat="48.87746" lon="2.34126">
        <ele>23</ele>
        <time>2026-01-22T13:53:53Z</time>
      </trkpt>
      <trkpt lat="48.87748" lon="2.34119">
        <ele>23.3</ele>
        <time>2026-01-22T13:53:58Z</time>
      </trkpt>
      <trkpt lat="48.8775" lon="2.34113">
        <ele>23.1</ele>
        <time>2026-01-22T13:54:04Z</time>
      </trkpt>
      <trkpt lat="48.87753" lon="2.34107">
        <ele>23.1</ele>
        <time>2026-01-22T13:54:09Z</time>
      </trkpt>
      <trkpt lat="48.87756" lon="2.34099">
        <ele>22.7</ele>
        <time>2026-01-22T13:54:15Z</time>
      </trkpt>
      <trkpt lat="48.87757" lon="2.34092">
        <ele>21.4</ele>
        <time>2026-01-22T13:54:23Z</time>
      </trkpt>
      <trkpt lat="48.87758" lon="2.34085">
        <ele>20.3</ele>
        <time>2026-01-22T13:54:28Z</time>
      </trkpt>
      <trkpt lat="48.8776" lon="2.34078">
        <ele>20.5</ele>
        <time>2026-01-22T13:54:34Z</time>
      </trkpt>
      <trkpt lat="48.87765" lon="2.34075">
        <ele>21</ele>
        <time>2026-01-22T13:54:43Z</time>
      </trkpt>
      <trkpt lat="48.87769" lon="2.34071">
        <ele>20.3</ele>
        <time>2026-01-22T13:54:52Z</time>
      </trkpt>
      <trkpt lat="48.87766" lon="2.34063">
        <ele>21.6</ele>
        <time>2026-01-22T13:55:26Z</time>
      </trkpt>
      <trkpt lat="48.87766" lon="2.34055">
        <ele>24</ele>
        <time>2026-01-22T13:55:30Z</time>
      </trkpt>
      <trkpt lat="48.87768" lon="2.34048">
        <ele>24.6</ele>
        <time>2026-01-22T13:55:35Z</time>
      </trkpt>
      <trkpt lat="48.8777" lon="2.34041">
        <ele>24.4</ele>
        <time>2026-01-22T13:55:40Z</time>
      </trkpt>
      <trkpt lat="48.87769" lon="2.34034">
        <ele>26</ele>
        <time>2026-01-22T13:55:45Z</time>
      </trkpt>
      <trkpt lat="48.8777" lon="2.34026">
        <ele>25.4</ele>
        <time>2026-01-22T13:55:52Z</time>
      </trkpt>
      <trkpt lat="48.8777" lon="2.34018">
        <ele>24.5</ele>
        <time>2026-01-22T13:55:59Z</time>
      </trkpt>
      <trkpt lat="48.8777" lon="2.3401">
        <ele>23.9</ele>
        <time>2026-01-22T13:56:04Z</time>
      </trkpt>
      <trkpt lat="48.8777" lon="2.34003">
        <ele>23.7</ele>
        <time>2026-01-22T13:56:07Z</time>
      </trkpt>
      <trkpt lat="48.87771" lon="2.33996">
        <ele>23.8</ele>
        <time>2026-01-22T13:56:13Z</time>
      </trkpt>
      <trkpt lat="48.87772" lon="2.33987">
        <ele>23.5</ele>
        <time>2026-01-22T13:56:18Z</time>
      </trkpt>
      <trkpt lat="48.87774" lon="2.33979">
        <ele>24</ele>
        <time>2026-01-22T13:56:21Z</time>
      </trkpt>
      <trkpt lat="48.87775" lon="2.3397">
        <ele>24.7</ele>
        <time>2026-01-22T13:56:25Z</time>
      </trkpt>
      <trkpt lat="48.87776" lon="2.33963">
        <ele>26.1</ele>
        <time>2026-01-22T13:56:28Z</time>
      </trkpt>
      <trkpt lat="48.87779" lon="2.33956">
        <ele>27.5</ele>
        <time>2026-01-22T13:56:32Z</time>
      </trkpt>
      <trkpt lat="48.87782" lon="2.33951">
        <ele>30.3</ele>
        <time>2026-01-22T13:56:40Z</time>
      </trkpt>
      <trkpt lat="48.87786" lon="2.33954">
        <ele>30.8</ele>
        <time>2026-01-22T13:56:47Z</time>
      </trkpt>
      <trkpt lat="48.8779" lon="2.33959">
        <ele>31.2</ele>
        <time>2026-01-22T13:56:53Z</time>
      </trkpt>
      <trkpt lat="48.87795" lon="2.3396">
        <ele>31.3</ele>
        <time>2026-01-22T13:56:58Z</time>
      </trkpt>
      <trkpt lat="48.87799" lon="2.3396">
        <ele>32.2</ele>
        <time>2026-01-22T13:57:04Z</time>
      </trkpt>
      <trkpt lat="48.87804" lon="2.33961">
        <ele>32.6</ele>
        <time>2026-01-22T13:57:12Z</time>
      </trkpt>
      <trkpt lat="48.8781" lon="2.33961">
        <ele>32</ele>
        <time>2026-01-22T13:57:20Z</time>
      </trkpt>
      <trkpt lat="48.87814" lon="2.33963">
        <ele>32.7</ele>
        <time>2026-01-22T13:57:28Z</time>
      </trkpt>
      <trkpt lat="48.87819" lon="2.33963">
        <ele>33</ele>
        <time>2026-01-22T13:57:33Z</time>
      </trkpt>
      <trkpt lat="48.87824" lon="2.33963">
        <ele>32.5</ele>
        <time>2026-01-22T13:57:37Z</time>
      </trkpt>
      <trkpt lat="48.8783" lon="2.33961">
        <ele>32.2</ele>
        <time>2026-01-22T13:57:43Z</time>
      </trkpt>
      <trkpt lat="48.87834" lon="2.33963">
        <ele>32.5</ele>
        <time>2026-01-22T13:57:45Z</time>
      </trkpt>
      <trkpt lat="48.87839" lon="2.33966">
        <ele>35.6</ele>
        <time>2026-01-22T13:57:51Z</time>
      </trkpt>
      <trkpt lat="48.87844" lon="2.33968">
        <ele>37.5</ele>
        <time>2026-01-22T13:57:57Z</time>
      </trkpt>
      <trkpt lat="48.87848" lon="2.33972">
        <ele>38.8</ele>
        <time>2026-01-22T13:58:04Z</time>
      </trkpt>
      <trkpt lat="48.87853" lon="2.33973">
        <ele>38.7</ele>
        <time>2026-01-22T13:58:13Z</time>
      </trkpt>
      <trkpt lat="48.87857" lon="2.33977">
        <ele>38.9</ele>
        <time>2026-01-22T13:58:18Z</time>
      </trkpt>
      <trkpt lat="48.87862" lon="2.33977">
        <ele>39</ele>
        <time>2026-01-22T13:58:23Z</time>
      </trkpt>
      <trkpt lat="48.87867" lon="2.33978">
        <ele>39.5</ele>
        <time>2026-01-22T13:58:28Z</time>
      </trkpt>
      <trkpt lat="48.87871" lon="2.33981">
        <ele>40.2</ele>
        <time>2026-01-22T13:58:35Z</time>
      </trkpt>
      <trkpt lat="48.87877" lon="2.33983">
        <ele>39.4</ele>
        <time>2026-01-22T13:58:40Z</time>
      </trkpt>
      <trkpt lat="48.87882" lon="2.33984">
        <ele>38.6</ele>
        <time>2026-01-22T13:58:43Z</time>
      </trkpt>
      <trkpt lat="48.87887" lon="2.33984">
        <ele>38.9</ele>
        <time>2026-01-22T13:58:47Z</time>
      </trkpt>
      <trkpt lat="48.87891" lon="2.33984">
        <ele>38.7</ele>
        <time>2026-01-22T13:58:51Z</time>
      </trkpt>
      <trkpt lat="48.87896" lon="2.33982">
        <ele>38.5</ele>
        <time>2026-01-22T13:58:56Z</time>
      </trkpt>
      <trkpt lat="48.879" lon="2.3398">
        <ele>38</ele>
        <time>2026-01-22T13:59:01Z</time>
      </trkpt>
      <trkpt lat="48.87905" lon="2.33981">
        <ele>37.6</ele>
        <time>2026-01-22T13:59:06Z</time>
      </trkpt>
      <trkpt lat="48.8791" lon="2.3398">
        <ele>38.1</ele>
        <time>2026-01-22T13:59:11Z</time>
      </trkpt>
      <trkpt lat="48.87914" lon="2.33977">
        <ele>38.9</ele>
        <time>2026-01-22T13:59:16Z</time>
      </trkpt>
      <trkpt lat="48.87917" lon="2.33983">
        <ele>40</ele>
        <time>2026-01-22T13:59:24Z</time>
      </trkpt>
      <trkpt lat="48.87922" lon="2.33986">
        <ele>40</ele>
        <time>2026-01-22T13:59:29Z</time>
      </trkpt>
      <trkpt lat="48.87926" lon="2.33992">
        <ele>41.3</ele>
        <time>2026-01-22T13:59:34Z</time>
      </trkpt>
      <trkpt lat="48.87931" lon="2.33994">
        <ele>42</ele>
        <time>2026-01-22T13:59:38Z</time>
      </trkpt>
      <trkpt lat="48.87935" lon="2.33997">
        <ele>41.5</ele>
        <time>2026-01-22T13:59:42Z</time>
      </trkpt>
      <trkpt lat="48.8794" lon="2.33998">
        <ele>41</ele>
        <time>2026-01-22T13:59:47Z</time>
      </trkpt>
      <trkpt lat="48.87945" lon="2.33999">
        <ele>40.4</ele>
        <time>2026-01-22T13:59:52Z</time>
      </trkpt>
      <trkpt lat="48.8795" lon="2.33999">
        <ele>39.9</ele>
        <time>2026-01-22T13:59:57Z</time>
      </trkpt>
      <trkpt lat="48.87954" lon="2.34002">
        <ele>41</ele>
        <time>2026-01-22T14:00:07Z</time>
      </trkpt>
      <trkpt lat="48.87957" lon="2.34007">
        <ele>42.4</ele>
        <time>2026-01-22T14:00:14Z</time>
      </trkpt>
      <trkpt lat="48.87962" lon="2.34009">
        <ele>44.2</ele>
        <time>2026-01-22T14:00:19Z</time>
      </trkpt>
      <trkpt lat="48.87966" lon="2.34013">
        <ele>47.2</ele>
        <time>2026-01-22T14:00:24Z</time>
      </trkpt>
      <trkpt lat="48.87972" lon="2.34014">
        <ele>49.9</ele>
        <time>2026-01-22T14:00:30Z</time>
      </trkpt>
      <trkpt lat="48.87978" lon="2.3402">
        <ele>50.4</ele>
        <time>2026-01-22T14:00:40Z</time>
      </trkpt>
      <trkpt lat="48.87982" lon="2.34023">
        <ele>50.8</ele>
        <time>2026-01-22T14:00:43Z</time>
      </trkpt>
      <trkpt lat="48.87987" lon="2.34022">
        <ele>52.2</ele>
        <time>2026-01-22T14:00:47Z</time>
      </trkpt>
      <trkpt lat="48.87991" lon="2.34027">
        <ele>53.6</ele>
        <time>2026-01-22T14:00:55Z</time>
      </trkpt>
      <trkpt lat="48.87996" lon="2.34028">
        <ele>52.4</ele>
        <time>2026-01-22T14:01:01Z</time>
      </trkpt>
      <trkpt lat="48.88001" lon="2.34026">
        <ele>52.4</ele>
        <time>2026-01-22T14:01:04Z</time>
      </trkpt>
      <trkpt lat="48.88006" lon="2.34026">
        <ele>51.8</ele>
        <time>2026-01-22T14:01:08Z</time>
      </trkpt>
      <trkpt lat="48.88011" lon="2.34026">
        <ele>52</ele>
        <time>2026-01-22T14:01:13Z</time>
      </trkpt>
      <trkpt lat="48.88015" lon="2.34026">
        <ele>52.6</ele>
        <time>2026-01-22T14:01:19Z</time>
      </trkpt>
      <trkpt lat="48.88021" lon="2.34028">
        <ele>54.9</ele>
        <time>2026-01-22T14:01:25Z</time>
      </trkpt>
      <trkpt lat="48.88027" lon="2.34027">
        <ele>56.5</ele>
        <time>2026-01-22T14:01:31Z</time>
      </trkpt>
      <trkpt lat="48.88032" lon="2.34029">
        <ele>60.7</ele>
        <time>2026-01-22T14:01:35Z</time>
      </trkpt>
      <trkpt lat="48.88037" lon="2.34032">
        <ele>63</ele>
        <time>2026-01-22T14:01:39Z</time>
      </trkpt>
      <trkpt lat="48.88038" lon="2.34039">
        <ele>63</ele>
        <time>2026-01-22T14:01:48Z</time>
      </trkpt>
      <trkpt lat="48.88036" lon="2.34046">
        <ele>60</ele>
        <time>2026-01-22T14:01:52Z</time>
      </trkpt>
      <trkpt lat="48.88031" lon="2.34047">
        <ele>56.2</ele>
        <time>2026-01-22T14:02:13Z</time>
      </trkpt>
      <trkpt lat="48.88035" lon="2.34052">
        <ele>56.3</ele>
        <time>2026-01-22T14:02:38Z</time>
      </trkpt>
      <trkpt lat="48.8804" lon="2.34051">
        <ele>54.5</ele>
        <time>2026-01-22T14:03:20Z</time>
      </trkpt>
      <trkpt lat="48.88044" lon="2.34046">
        <ele>55.6</ele>
        <time>2026-01-22T14:03:23Z</time>
      </trkpt>
      <trkpt lat="48.88048" lon="2.34043">
        <ele>56.7</ele>
        <time>2026-01-22T14:03:27Z</time>
      </trkpt>
      <trkpt lat="48.88053" lon="2.34039">
        <ele>59.1</ele>
        <time>2026-01-22T14:03:32Z</time>
      </trkpt>
      <trkpt lat="48.88057" lon="2.34035">
        <ele>60.9</ele>
        <time>2026-01-22T14:03:39Z</time>
      </trkpt>
      <trkpt lat="48.88061" lon="2.3403">
        <ele>62.9</ele>
        <time>2026-01-22T14:03:47Z</time>
      </trkpt>
      <trkpt lat="48.88066" lon="2.34026">
        <ele>63.7</ele>
        <time>2026-01-22T14:03:53Z</time>
      </trkpt>
      <trkpt lat="48.8807" lon="2.34022">
        <ele>62.9</ele>
        <time>2026-01-22T14:03:57Z</time>
      </trkpt>
      <trkpt lat="48.88074" lon="2.3402">
        <ele>61.3</ele>
        <time>2026-01-22T14:04:02Z</time>
      </trkpt>
      <trkpt lat="48.88079" lon="2.34021">
        <ele>57.2</ele>
        <time>2026-01-22T14:04:10Z</time>
      </trkpt>
      <trkpt lat="48.88086" lon="2.34016">
        <ele>55.6</ele>
        <time>2026-01-22T14:04:24Z</time>
      </trkpt>
      <trkpt lat="48.88091" lon="2.34012">
        <ele>54.6</ele>
        <time>2026-01-22T14:04:27Z</time>
      </trkpt>
      <trkpt lat="48.88095" lon="2.34007">
        <ele>54.3</ele>
        <time>2026-01-22T14:04:30Z</time>
      </trkpt>
      <trkpt lat="48.881" lon="2.34005">
        <ele>52.7</ele>
        <time>2026-01-22T14:04:36Z</time>
      </trkpt>
      <trkpt lat="48.88104" lon="2.34001">
        <ele>52.7</ele>
        <time>2026-01-22T14:04:41Z</time>
      </trkpt>
      <trkpt lat="48.88109" lon="2.34">
        <ele>52.9</ele>
        <time>2026-01-22T14:04:46Z</time>
      </trkpt>
      <trkpt lat="48.88113" lon="2.33999">
        <ele>52.9</ele>
        <time>2026-01-22T14:04:50Z</time>
      </trkpt>
      <trkpt lat="48.88117" lon="2.33996">
        <ele>53.1</ele>
        <time>2026-01-22T14:04:57Z</time>
      </trkpt>
      <trkpt lat="48.88122" lon="2.3399">
        <ele>52.7</ele>
        <time>2026-01-22T14:05:02Z</time>
      </trkpt>
      <trkpt lat="48.88126" lon="2.33985">
        <ele>52.1</ele>
        <time>2026-01-22T14:05:07Z</time>
      </trkpt>
      <trkpt lat="48.8813" lon="2.33982">
        <ele>52.1</ele>
        <time>2026-01-22T14:05:13Z</time>
      </trkpt>
      <trkpt lat="48.88136" lon="2.33982">
        <ele>53.1</ele>
        <time>2026-01-22T14:05:19Z</time>
      </trkpt>
      <trkpt lat="48.88141" lon="2.3398">
        <ele>53.5</ele>
        <time>2026-01-22T14:05:22Z</time>
      </trkpt>
      <trkpt lat="48.88147" lon="2.33979">
        <ele>55</ele>
        <time>2026-01-22T14:05:25Z</time>
      </trkpt>
      <trkpt lat="48.88152" lon="2.33978">
        <ele>55.1</ele>
        <time>2026-01-22T14:05:31Z</time>
      </trkpt>
      <trkpt lat="48.88156" lon="2.33976">
        <ele>55.3</ele>
        <time>2026-01-22T14:05:35Z</time>
      </trkpt>
      <trkpt lat="48.8816" lon="2.33971">
        <ele>56.5</ele>
        <time>2026-01-22T14:05:40Z</time>
      </trkpt>
      <trkpt lat="48.88164" lon="2.33967">
        <ele>57.2</ele>
        <time>2026-01-22T14:05:45Z</time>
      </trkpt>
      <trkpt lat="48.88168" lon="2.33965">
        <ele>58</ele>
        <time>2026-01-22T14:05:51Z</time>
      </trkpt>
      <trkpt lat="48.88173" lon="2.33965">
        <ele>60.7</ele>
        <time>2026-01-22T14:05:59Z</time>
      </trkpt>
      <trkpt lat="48.88179" lon="2.33964">
        <ele>60.7</ele>
        <time>2026-01-22T14:06:16Z</time>
      </trkpt>
      <trkpt lat="48.88184" lon="2.33961">
        <ele>60.7</ele>
        <time>2026-01-22T14:06:22Z</time>
      </trkpt>
      <trkpt lat="48.88187" lon="2.33957">
        <ele>59.9</ele>
        <time>2026-01-22T14:06:34Z</time>
      </trkpt>
      <trkpt lat="48.88189" lon="2.33949">
        <ele>59.2</ele>
        <time>2026-01-22T14:06:43Z</time>
      </trkpt>
      <trkpt lat="48.88194" lon="2.33946">
        <ele>58.5</ele>
        <time>2026-01-22T14:07:06Z</time>
      </trkpt>
      <trkpt lat="48.882" lon="2.33944">
        <ele>59</ele>
        <time>2026-01-22T14:07:09Z</time>
      </trkpt>
      <trkpt lat="48.88204" lon="2.3394">
        <ele>59.3</ele>
        <time>2026-01-22T14:07:14Z</time>
      </trkpt>
      <trkpt lat="48.88208" lon="2.33935">
        <ele>59.1</ele>
        <time>2026-01-22T14:07:20Z</time>
      </trkpt>
      <trkpt lat="48.88212" lon="2.33931">
        <ele>59.2</ele>
        <time>2026-01-22T14:07:25Z</time>
      </trkpt>
      <trkpt lat="48.88215" lon="2.33924">
        <ele>59.1</ele>
        <time>2026-01-22T14:07:30Z</time>
      </trkpt>
      <trkpt lat="48.88216" lon="2.33917">
        <ele>59</ele>
        <time>2026-01-22T14:07:37Z</time>
      </trkpt>
      <trkpt lat="48.88217" lon="2.33909">
        <ele>58.4</ele>
        <time>2026-01-22T14:07:44Z</time>
      </trkpt>
      <trkpt lat="48.88218" lon="2.33901">
        <ele>58.4</ele>
        <time>2026-01-22T14:07:50Z</time>
      </trkpt>
      <trkpt lat="48.88219" lon="2.33893">
        <ele>57.7</ele>
        <time>2026-01-22T14:07:57Z</time>
      </trkpt>
      <trkpt lat="48.8822" lon="2.33886">
        <ele>56.7</ele>
        <time>2026-01-22T14:08:02Z</time>
      </trkpt>
      <trkpt lat="48.88221" lon="2.33879">
        <ele>55.8</ele>
        <time>2026-01-22T14:08:08Z</time>
      </trkpt>
      <trkpt lat="48.88223" lon="2.33873">
        <ele>55.2</ele>
        <time>2026-01-22T14:08:15Z</time>
      </trkpt>
      <trkpt lat="48.88226" lon="2.33866">
        <ele>54.7</ele>
        <time>2026-01-22T14:08:20Z</time>
      </trkpt>
      <trkpt lat="48.88227" lon="2.33858">
        <ele>53.8</ele>
        <time>2026-01-22T14:08:26Z</time>
      </trkpt>
      <trkpt lat="48.88228" lon="2.33851">
        <ele>53.1</ele>
        <time>2026-01-22T14:08:30Z</time>
      </trkpt>
      <trkpt lat="48.88229" lon="2.33844">
        <ele>52.2</ele>
        <time>2026-01-22T14:08:37Z</time>
      </trkpt>
      <trkpt lat="48.8823" lon="2.33836">
        <ele>50.9</ele>
        <time>2026-01-22T14:08:42Z</time>
      </trkpt>
      <trkpt lat="48.88231" lon="2.33829">
        <ele>49.7</ele>
        <time>2026-01-22T14:08:48Z</time>
      </trkpt>
      <trkpt lat="48.88232" lon="2.33823">
        <ele>49.3</ele>
        <time>2026-01-22T14:08:53Z</time>
      </trkpt>
      <trkpt lat="48.88236" lon="2.33816">
        <ele>48.4</ele>
        <time>2026-01-22T14:09:03Z</time>
      </trkpt>
      <trkpt lat="48.88236" lon="2.33809">
        <ele>46.8</ele>
        <time>2026-01-22T14:09:12Z</time>
      </trkpt>
      <trkpt lat="48.88235" lon="2.33801">
        <ele>47.2</ele>
        <time>2026-01-22T14:09:18Z</time>
      </trkpt>
      <trkpt lat="48.88239" lon="2.33796">
        <ele>49.3</ele>
        <time>2026-01-22T14:09:32Z</time>
      </trkpt>
      <trkpt lat="48.88243" lon="2.33797">
        <ele>51.7</ele>
        <time>2026-01-22T14:09:37Z</time>
      </trkpt>
      <trkpt lat="48.88248" lon="2.33799">
        <ele>52.8</ele>
        <time>2026-01-22T14:09:42Z</time>
      </trkpt>
      <trkpt lat="48.88251" lon="2.33795">
        <ele>52.8</ele>
        <time>2026-01-22T14:09:49Z</time>
      </trkpt>
      <trkpt lat="48.88252" lon="2.33788">
        <ele>52.9</ele>
        <time>2026-01-22T14:09:57Z</time>
      </trkpt>
      <trkpt lat="48.88254" lon="2.33781">
        <ele>54.1</ele>
        <time>2026-01-22T14:10:03Z</time>
      </trkpt>
      <trkpt lat="48.88255" lon="2.33775">
        <ele>55</ele>
        <time>2026-01-22T14:10:09Z</time>
      </trkpt>
      <trkpt lat="48.88258" lon="2.33768">
        <ele>55.6</ele>
        <time>2026-01-22T14:10:15Z</time>
      </trkpt>
      <trkpt lat="48.88258" lon="2.33761">
        <ele>54.2</ele>
        <time>2026-01-22T14:10:37Z</time>
      </trkpt>
      <trkpt lat="48.88257" lon="2.33754">
        <ele>54.2</ele>
        <time>2026-01-22T14:10:41Z</time>
      </trkpt>
      <trkpt lat="48.88256" lon="2.33747">
        <ele>54.6</ele>
        <time>2026-01-22T14:10:47Z</time>
      </trkpt>
      <trkpt lat="48.88258" lon="2.33738">
        <ele>53.8</ele>
        <time>2026-01-22T14:11:06Z</time>
      </trkpt>
      <trkpt lat="48.8826" lon="2.33731">
        <ele>54</ele>
        <time>2026-01-22T14:11:12Z</time>
      </trkpt>
      <trkpt lat="48.88265" lon="2.33729">
        <ele>54.2</ele>
        <time>2026-01-22T14:11:22Z</time>
      </trkpt>
      <trkpt lat="48.88269" lon="2.33733">
        <ele>54.1</ele>
        <time>2026-01-22T14:11:28Z</time>
      </trkpt>
      <trkpt lat="48.88273" lon="2.33736">
        <ele>53.8</ele>
        <time>2026-01-22T14:11:34Z</time>
      </trkpt>
      <trkpt lat="48.88278" lon="2.3374">
        <ele>53.8</ele>
        <time>2026-01-22T14:11:40Z</time>
      </trkpt>
      <trkpt lat="48.88282" lon="2.33743">
        <ele>52.8</ele>
        <time>2026-01-22T14:11:46Z</time>
      </trkpt>
      <trkpt lat="48.88286" lon="2.33747">
        <ele>52.7</ele>
        <time>2026-01-22T14:11:50Z</time>
      </trkpt>
      <trkpt lat="48.88291" lon="2.3375">
        <ele>52.7</ele>
        <time>2026-01-22T14:11:55Z</time>
      </trkpt>
      <trkpt lat="48.88295" lon="2.33754">
        <ele>53.9</ele>
        <time>2026-01-22T14:11:59Z</time>
      </trkpt>
      <trkpt lat="48.88299" lon="2.33758">
        <ele>54.8</ele>
        <time>2026-01-22T14:12:04Z</time>
      </trkpt>
      <trkpt lat="48.88303" lon="2.33762">
        <ele>55.3</ele>
        <time>2026-01-22T14:12:10Z</time>
      </trkpt>
      <trkpt lat="48.88306" lon="2.33768">
        <ele>55</ele>
        <time>2026-01-22T14:12:15Z</time>
      </trkpt>
      <trkpt lat="48.88315" lon="2.33773">
        <ele>54.9</ele>
        <time>2026-01-22T14:12:26Z</time>
      </trkpt>
      <trkpt lat="48.88323" lon="2.33776">
        <ele>56.8</ele>
        <time>2026-01-22T14:12:34Z</time>
      </trkpt>
      <trkpt lat="48.88327" lon="2.3378">
        <ele>57.3</ele>
        <time>2026-01-22T14:12:37Z</time>
      </trkpt>
      <trkpt lat="48.88332" lon="2.33777">
        <ele>58.2</ele>
        <time>2026-01-22T14:12:41Z</time>
      </trkpt>
      <trkpt lat="48.88336" lon="2.3378">
        <ele>59</ele>
        <time>2026-01-22T14:12:46Z</time>
      </trkpt>
      <trkpt lat="48.8834" lon="2.33785">
        <ele>58.7</ele>
        <time>2026-01-22T14:12:51Z</time>
      </trkpt>
      <trkpt lat="48.88345" lon="2.33788">
        <ele>58.6</ele>
        <time>2026-01-22T14:12:58Z</time>
      </trkpt>
      <trkpt lat="48.8835" lon="2.33789">
        <ele>59</ele>
        <time>2026-01-22T14:13:03Z</time>
      </trkpt>
      <trkpt lat="48.88354" lon="2.33789">
        <ele>59.2</ele>
        <time>2026-01-22T14:13:08Z</time>
      </trkpt>
      <trkpt lat="48.88359" lon="2.3379">
        <ele>59.6</ele>
        <time>2026-01-22T14:13:14Z</time>
      </trkpt>
      <trkpt lat="48.88364" lon="2.33793">
        <ele>59.2</ele>
        <time>2026-01-22T14:13:19Z</time>
      </trkpt>
      <trkpt lat="48.88368" lon="2.33795">
        <ele>58.9</ele>
        <time>2026-01-22T14:13:24Z</time>
      </trkpt>
      <trkpt lat="48.88373" lon="2.33792">
        <ele>57.8</ele>
        <time>2026-01-22T14:14:18Z</time>
      </trkpt>
      <trkpt lat="48.88377" lon="2.33786">
        <ele>55.6</ele>
        <time>2026-01-22T14:14:23Z</time>
      </trkpt>
      <trkpt lat="48.88382" lon="2.3378">
        <ele>56.4</ele>
        <time>2026-01-22T14:14:27Z</time>
      </trkpt>
      <trkpt lat="48.88384" lon="2.33774">
        <ele>56.8</ele>
        <time>2026-01-22T14:14:30Z</time>
      </trkpt>
      <trkpt lat="48.88387" lon="2.33769">
        <ele>60.2</ele>
        <time>2026-01-22T14:14:38Z</time>
      </trkpt>
      <trkpt lat="48.8839" lon="2.33763">
        <ele>60</ele>
        <time>2026-01-22T14:14:45Z</time>
      </trkpt>
      <trkpt lat="48.88387" lon="2.33758">
        <ele>59.9</ele>
        <time>2026-01-22T14:14:48Z</time>
      </trkpt>
      <trkpt lat="48.8839" lon="2.33752">
        <ele>58.9</ele>
        <time>2026-01-22T14:15:11Z</time>
      </trkpt>
      <trkpt lat="48.8839" lon="2.33745">
        <ele>60</ele>
        <time>2026-01-22T14:15:15Z</time>
      </trkpt>
      <trkpt lat="48.88398" lon="2.33744">
        <ele>59</ele>
        <time>2026-01-22T14:15:27Z</time>
      </trkpt>
      <trkpt lat="48.88403" lon="2.33746">
        <ele>58.7</ele>
        <time>2026-01-22T14:15:29Z</time>
      </trkpt>
      <trkpt lat="48.88407" lon="2.33746">
        <ele>58.5</ele>
        <time>2026-01-22T14:15:33Z</time>
      </trkpt>
      <trkpt lat="48.88412" lon="2.33747">
        <ele>58.8</ele>
        <time>2026-01-22T14:15:37Z</time>
      </trkpt>
      <trkpt lat="48.88414" lon="2.33755">
        <ele>59.9</ele>
        <time>2026-01-22T14:15:43Z</time>
      </trkpt>
      <trkpt lat="48.88419" lon="2.33756">
        <ele>62.2</ele>
        <time>2026-01-22T14:17:04Z</time>
      </trkpt>
      <trkpt lat="48.88423" lon="2.33759">
        <ele>62.4</ele>
        <time>2026-01-22T14:17:06Z</time>
      </trkpt>
      <trkpt lat="48.88428" lon="2.33763">
        <ele>63.8</ele>
        <time>2026-01-22T14:17:11Z</time>
      </trkpt>
      <trkpt lat="48.88431" lon="2.33768">
        <ele>64.4</ele>
        <time>2026-01-22T14:17:15Z</time>
      </trkpt>
      <trkpt lat="48.88432" lon="2.33776">
        <ele>64.9</ele>
        <time>2026-01-22T14:17:20Z</time>
      </trkpt>
      <trkpt lat="48.88434" lon="2.33783">
        <ele>65.2</ele>
        <time>2026-01-22T14:17:26Z</time>
      </trkpt>
      <trkpt lat="48.88433" lon="2.3379">
        <ele>65.9</ele>
        <time>2026-01-22T14:17:33Z</time>
      </trkpt>
      <trkpt lat="48.88431" lon="2.33797">
        <ele>66.5</ele>
        <time>2026-01-22T14:17:36Z</time>
      </trkpt>
      <trkpt lat="48.88436" lon="2.33795">
        <ele>65.8</ele>
        <time>2026-01-22T14:17:43Z</time>
      </trkpt>
      <trkpt lat="48.8844" lon="2.3379">
        <ele>64.6</ele>
        <time>2026-01-22T14:17:46Z</time>
      </trkpt>
      <trkpt lat="48.88444" lon="2.33786">
        <ele>68.6</ele>
        <time>2026-01-22T14:17:51Z</time>
      </trkpt>
      <trkpt lat="48.88449" lon="2.33788">
        <ele>68.2</ele>
        <time>2026-01-22T14:17:56Z</time>
      </trkpt>
      <trkpt lat="48.88454" lon="2.33787">
        <ele>69.2</ele>
        <time>2026-01-22T14:18:04Z</time>
      </trkpt>
      <trkpt lat="48.88465" lon="2.3379">
        <ele>71.4</ele>
        <time>2026-01-22T14:19:16Z</time>
      </trkpt>
      <trkpt lat="48.88469" lon="2.33787">
        <ele>81.8</ele>
        <time>2026-01-22T14:19:22Z</time>
      </trkpt>
      <trkpt lat="48.88475" lon="2.33788">
        <ele>81.9</ele>
        <time>2026-01-22T14:19:28Z</time>
      </trkpt>
      <trkpt lat="48.88479" lon="2.33793">
        <ele>81.8</ele>
        <time>2026-01-22T14:19:35Z</time>
      </trkpt>
      <trkpt lat="48.88483" lon="2.33798">
        <ele>81.6</ele>
        <time>2026-01-22T14:19:41Z</time>
      </trkpt>
      <trkpt lat="48.88486" lon="2.33805">
        <ele>81.6</ele>
        <time>2026-01-22T14:19:48Z</time>
      </trkpt>
      <trkpt lat="48.88493" lon="2.33819">
        <ele>82.1</ele>
        <time>2026-01-22T14:20:04Z</time>
      </trkpt>
      <trkpt lat="48.88505" lon="2.3382">
        <ele>87.1</ele>
        <time>2026-01-22T14:20:22Z</time>
      </trkpt>
      <trkpt lat="48.88509" lon="2.33821">
        <ele>90.4</ele>
        <time>2026-01-22T14:20:25Z</time>
      </trkpt>
      <trkpt lat="48.88514" lon="2.33821">
        <ele>91.5</ele>
        <time>2026-01-22T14:20:31Z</time>
      </trkpt>
      <trkpt lat="48.88524" lon="2.33821">
        <ele>91.5</ele>
        <time>2026-01-22T14:20:57Z</time>
      </trkpt>
      <trkpt lat="48.88528" lon="2.3382">
        <ele>90.4</ele>
        <time>2026-01-22T14:21:02Z</time>
      </trkpt>
      <trkpt lat="48.88532" lon="2.33825">
        <ele>90.2</ele>
        <time>2026-01-22T14:21:10Z</time>
      </trkpt>
      <trkpt lat="48.8853" lon="2.33831">
        <ele>90.6</ele>
        <time>2026-01-22T14:21:14Z</time>
      </trkpt>
      <trkpt lat="48.8854" lon="2.33832">
        <ele>91.2</ele>
        <time>2026-01-22T14:21:30Z</time>
      </trkpt>
      <trkpt lat="48.88545" lon="2.33832">
        <ele>88.1</ele>
        <time>2026-01-22T14:21:39Z</time>
      </trkpt>
      <trkpt lat="48.88545" lon="2.33839">
        <ele>89.3</ele>
        <time>2026-01-22T14:21:47Z</time>
      </trkpt>
      <trkpt lat="48.88543" lon="2.33846">
        <ele>93.9</ele>
        <time>2026-01-22T14:21:56Z</time>
      </trkpt>
      <trkpt lat="48.88545" lon="2.33852">
        <ele>98.1</ele>
        <time>2026-01-22T14:22:09Z</time>
      </trkpt>
      <trkpt lat="48.8855" lon="2.33848">
        <ele>93.7</ele>
        <time>2026-01-22T14:22:19Z</time>
      </trkpt>
      <trkpt lat="48.8856" lon="2.33843">
        <ele>93.2</ele>
        <time>2026-01-22T14:22:28Z</time>
      </trkpt>
      <trkpt lat="48.88565" lon="2.33839">
        <ele>82.7</ele>
        <time>2026-01-22T14:22:58Z</time>
      </trkpt>
      <trkpt lat="48.88569" lon="2.33833">
        <ele>80.6</ele>
        <time>2026-01-22T14:23:07Z</time>
      </trkpt>
      <trkpt lat="48.88571" lon="2.33826">
        <ele>79.3</ele>
        <time>2026-01-22T14:23:11Z</time>
      </trkpt>
      <trkpt lat="48.88572" lon="2.33819">
        <ele>79.5</ele>
        <time>2026-01-22T14:23:15Z</time>
      </trkpt>
      <trkpt lat="48.88575" lon="2.33813">
        <ele>80.8</ele>
        <time>2026-01-22T14:23:22Z</time>
      </trkpt>
      <trkpt lat="48.88579" lon="2.3381">
        <ele>80.1</ele>
        <time>2026-01-22T14:23:31Z</time>
      </trkpt>
      <trkpt lat="48.88581" lon="2.33802">
        <ele>80.2</ele>
        <time>2026-01-22T14:23:54Z</time>
      </trkpt>
      <trkpt lat="48.88582" lon="2.33795">
        <ele>80.9</ele>
        <time>2026-01-22T14:23:58Z</time>
      </trkpt>
      <trkpt lat="48.88585" lon="2.3379">
        <ele>83.6</ele>
        <time>2026-01-22T14:24:10Z</time>
      </trkpt>
      <trkpt lat="48.88589" lon="2.33781">
        <ele>87.5</ele>
        <time>2026-01-22T14:24:37Z</time>
      </trkpt>
      <trkpt lat="48.88594" lon="2.33782">
        <ele>92.3</ele>
        <time>2026-01-22T14:24:41Z</time>
      </trkpt>
      <trkpt lat="48.88599" lon="2.33781">
        <ele>94.5</ele>
        <time>2026-01-22T14:25:06Z</time>
      </trkpt>
      <trkpt lat="48.88597" lon="2.33774">
        <ele>96</ele>
        <time>2026-01-22T14:25:32Z</time>
      </trkpt>
      <trkpt lat="48.88599" lon="2.33768">
        <ele>93.4</ele>
        <time>2026-01-22T14:25:43Z</time>
      </trkpt>
      <trkpt lat="48.88601" lon="2.33777">
        <ele>92.5</ele>
        <time>2026-01-22T14:26:07Z</time>
      </trkpt>
      <trkpt lat="48.88606" lon="2.33779">
        <ele>92.5</ele>
        <time>2026-01-22T14:26:19Z</time>
      </trkpt>
      <trkpt lat="48.8861" lon="2.33784">
        <ele>92.7</ele>
        <time>2026-01-22T14:26:25Z</time>
      </trkpt>
      <trkpt lat="48.88614" lon="2.33787">
        <ele>94</ele>
        <time>2026-01-22T14:26:31Z</time>
      </trkpt>
      <trkpt lat="48.88616" lon="2.33794">
        <ele>95.2</ele>
        <time>2026-01-22T14:26:37Z</time>
      </trkpt>
      <trkpt lat="48.88618" lon="2.33801">
        <ele>96.6</ele>
        <time>2026-01-22T14:26:44Z</time>
      </trkpt>
      <trkpt lat="48.88626" lon="2.33799">
        <ele>97.5</ele>
        <time>2026-01-22T14:27:01Z</time>
      </trkpt>
      <trkpt lat="48.88627" lon="2.33814">
        <ele>99.6</ele>
        <time>2026-01-22T14:27:25Z</time>
      </trkpt>
      <trkpt lat="48.88627" lon="2.33825">
        <ele>103.4</ele>
        <time>2026-01-22T14:27:45Z</time>
      </trkpt>
      <trkpt lat="48.88628" lon="2.33833">
        <ele>102.4</ele>
        <time>2026-01-22T14:27:50Z</time>
      </trkpt>
      <trkpt lat="48.88627" lon="2.33839">
        <ele>101.9</ele>
        <time>2026-01-22T14:27:56Z</time>
      </trkpt>
      <trkpt lat="48.88627" lon="2.33847">
        <ele>101</ele>
        <time>2026-01-22T14:28:05Z</time>
      </trkpt>
      <trkpt lat="48.88627" lon="2.33855">
        <ele>101.8</ele>
        <time>2026-01-22T14:28:09Z</time>
      </trkpt>
      <trkpt lat="48.88631" lon="2.3385">
        <ele>100.9</ele>
        <time>2026-01-22T14:28:21Z</time>
      </trkpt>
      <trkpt lat="48.88635" lon="2.33846">
        <ele>101.4</ele>
        <time>2026-01-22T14:28:28Z</time>
      </trkpt>
      <trkpt lat="48.88644" lon="2.33843">
        <ele>100.9</ele>
        <time>2026-01-22T14:28:45Z</time>
      </trkpt>
      <trkpt lat="48.8865" lon="2.33843">
        <ele>102.5</ele>
        <time>2026-01-22T14:28:49Z</time>
      </trkpt>
      <trkpt lat="48.88656" lon="2.33843">
        <ele>103.5</ele>
        <time>2026-01-22T14:28:55Z</time>
      </trkpt>
      <trkpt lat="48.8866" lon="2.33841">
        <ele>104.3</ele>
        <time>2026-01-22T14:29:07Z</time>
      </trkpt>
      <trkpt lat="48.88663" lon="2.33847">
        <ele>104</ele>
        <time>2026-01-22T14:29:21Z</time>
      </trkpt>
      <trkpt lat="48.88672" lon="2.3385">
        <ele>104.3</ele>
        <time>2026-01-22T14:30:15Z</time>
      </trkpt>
      <trkpt lat="48.88676" lon="2.33848">
        <ele>110.1</ele>
        <time>2026-01-22T14:30:19Z</time>
      </trkpt>
      <trkpt lat="48.88679" lon="2.33842">
        <ele>109.8</ele>
        <time>2026-01-22T14:30:25Z</time>
      </trkpt>
      <trkpt lat="48.88681" lon="2.33833">
        <ele>107.5</ele>
        <time>2026-01-22T14:30:42Z</time>
      </trkpt>
      <trkpt lat="48.88684" lon="2.33828">
        <ele>107.2</ele>
        <time>2026-01-22T14:30:46Z</time>
      </trkpt>
      <trkpt lat="48.88684" lon="2.33821">
        <ele>107</ele>
        <time>2026-01-22T14:30:58Z</time>
      </trkpt>
      <trkpt lat="48.88683" lon="2.33813">
        <ele>106.7</ele>
        <time>2026-01-22T14:31:09Z</time>
      </trkpt>
      <trkpt lat="48.88684" lon="2.33805">
        <ele>106</ele>
        <time>2026-01-22T14:31:15Z</time>
      </trkpt>
      <trkpt lat="48.88688" lon="2.33801">
        <ele>105.6</ele>
        <time>2026-01-22T14:31:20Z</time>
      </trkpt>
      <trkpt lat="48.88692" lon="2.33796">
        <ele>104.4</ele>
        <time>2026-01-22T14:31:27Z</time>
      </trkpt>
      <trkpt lat="48.88696" lon="2.33791">
        <ele>102.2</ele>
        <time>2026-01-22T14:31:36Z</time>
      </trkpt>
      <trkpt lat="48.88699" lon="2.33786">
        <ele>100.1</ele>
        <time>2026-01-22T14:31:45Z</time>
      </trkpt>
      <trkpt lat="48.88701" lon="2.33779">
        <ele>99.5</ele>
        <time>2026-01-22T14:31:53Z</time>
      </trkpt>
      <trkpt lat="48.88704" lon="2.33773">
        <ele>99.3</ele>
        <time>2026-01-22T14:32:00Z</time>
      </trkpt>
      <trkpt lat="48.88708" lon="2.33769">
        <ele>98.6</ele>
        <time>2026-01-22T14:32:07Z</time>
      </trkpt>
      <trkpt lat="48.88712" lon="2.33764">
        <ele>98.9</ele>
        <time>2026-01-22T14:32:17Z</time>
      </trkpt>
      <trkpt lat="48.88717" lon="2.33761">
        <ele>98.8</ele>
        <time>2026-01-22T14:32:23Z</time>
      </trkpt>
      <trkpt lat="48.88722" lon="2.33758">
        <ele>98.1</ele>
        <time>2026-01-22T14:32:26Z</time>
      </trkpt>
      <trkpt lat="48.88726" lon="2.33753">
        <ele>97.6</ele>
        <time>2026-01-22T14:32:31Z</time>
      </trkpt>
      <trkpt lat="48.8873" lon="2.33749">
        <ele>96.2</ele>
        <time>2026-01-22T14:32:37Z</time>
      </trkpt>
      <trkpt lat="48.88733" lon="2.33743">
        <ele>95.9</ele>
        <time>2026-01-22T14:32:42Z</time>
      </trkpt>
      <trkpt lat="48.88732" lon="2.33736">
        <ele>95.1</ele>
        <time>2026-01-22T14:32:47Z</time>
      </trkpt>
      <trkpt lat="48.88732" lon="2.33727">
        <ele>95.9</ele>
        <time>2026-01-22T14:32:52Z</time>
      </trkpt>
      <trkpt lat="48.88736" lon="2.33724">
        <ele>101</ele>
        <time>2026-01-22T14:33:03Z</time>
      </trkpt>
      <trkpt lat="48.88732" lon="2.3372">
        <ele>101.7</ele>
        <time>2026-01-22T14:33:09Z</time>
      </trkpt>
      <trkpt lat="48.88734" lon="2.33734">
        <ele>102.1</ele>
        <time>2026-01-22T14:33:42Z</time>
      </trkpt>
      <trkpt lat="48.88738" lon="2.33743">
        <ele>103.5</ele>
        <time>2026-01-22T14:33:51Z</time>
      </trkpt>
      <trkpt lat="48.88743" lon="2.33742">
        <ele>103</ele>
        <time>2026-01-22T14:33:58Z</time>
      </trkpt>
      <trkpt lat="48.88747" lon="2.33741">
        <ele>102.3</ele>
        <time>2026-01-22T14:34:03Z</time>
      </trkpt>
      <trkpt lat="48.88749" lon="2.33748">
        <ele>101.8</ele>
        <time>2026-01-22T14:34:06Z</time>
      </trkpt>
      <trkpt lat="48.88754" lon="2.33749">
        <ele>102.3</ele>
        <time>2026-01-22T14:34:09Z</time>
      </trkpt>
      <trkpt lat="48.88759" lon="2.3375">
        <ele>103.2</ele>
        <time>2026-01-22T14:34:14Z</time>
      </trkpt>
      <trkpt lat="48.88765" lon="2.33747">
        <ele>103.6</ele>
        <time>2026-01-22T14:34:20Z</time>
      </trkpt>
      <trkpt lat="48.8877" lon="2.33746">
        <ele>102.7</ele>
        <time>2026-01-22T14:34:28Z</time>
      </trkpt>
      <trkpt lat="48.88775" lon="2.33746">
        <ele>104.3</ele>
        <time>2026-01-22T14:34:34Z</time>
      </trkpt>
      <trkpt lat="48.8878" lon="2.3375">
        <ele>104.5</ele>
        <time>2026-01-22T14:34:59Z</time>
      </trkpt>
      <trkpt lat="48.88784" lon="2.33754">
        <ele>104.6</ele>
        <time>2026-01-22T14:35:03Z</time>
      </trkpt>
      <trkpt lat="48.88786" lon="2.3376">
        <ele>104.3</ele>
        <time>2026-01-22T14:35:08Z</time>
      </trkpt>
      <trkpt lat="48.88789" lon="2.33766">
        <ele>103.3</ele>
        <time>2026-01-22T14:35:15Z</time>
      </trkpt>
      <trkpt lat="48.88794" lon="2.33769">
        <ele>101.4</ele>
        <time>2026-01-22T14:35:20Z</time>
      </trkpt>
      <trkpt lat="48.88798" lon="2.33772">
        <ele>99.8</ele>
        <time>2026-01-22T14:35:25Z</time>
      </trkpt>
      <trkpt lat="48.88802" lon="2.33776">
        <ele>98.9</ele>
        <time>2026-01-22T14:35:33Z</time>
      </trkpt>
      <trkpt lat="48.88809" lon="2.33776">
        <ele>98.5</ele>
        <time>2026-01-22T14:35:58Z</time>
      </trkpt>
      <trkpt lat="48.88814" lon="2.33778">
        <ele>98.7</ele>
        <time>2026-01-22T14:36:03Z</time>
      </trkpt>
      <trkpt lat="48.88818" lon="2.33781">
        <ele>99.1</ele>
        <time>2026-01-22T14:36:10Z</time>
      </trkpt>
      <trkpt lat="48.88823" lon="2.33785">
        <ele>99.3</ele>
        <time>2026-01-22T14:36:15Z</time>
      </trkpt>
      <trkpt lat="48.88827" lon="2.33789">
        <ele>99.2</ele>
        <time>2026-01-22T14:36:21Z</time>
      </trkpt>
      <trkpt lat="48.88831" lon="2.33792">
        <ele>99</ele>
        <time>2026-01-22T14:36:26Z</time>
      </trkpt>
      <trkpt lat="48.88836" lon="2.33795">
        <ele>99.7</ele>
        <time>2026-01-22T14:36:35Z</time>
      </trkpt>
      <trkpt lat="48.88841" lon="2.33795">
        <ele>100.3</ele>
        <time>2026-01-22T14:36:42Z</time>
      </trkpt>
      <trkpt lat="48.88846" lon="2.33798">
        <ele>100.8</ele>
        <time>2026-01-22T14:36:46Z</time>
      </trkpt>
      <trkpt lat="48.8885" lon="2.33802">
        <ele>101.1</ele>
        <time>2026-01-22T14:36:50Z</time>
      </trkpt>
      <trkpt lat="48.88855" lon="2.33804">
        <ele>100.8</ele>
        <time>2026-01-22T14:36:54Z</time>
      </trkpt>
      <trkpt lat="48.88858" lon="2.33808">
        <ele>99.4</ele>
        <time>2026-01-22T14:36:59Z</time>
      </trkpt>
      <trkpt lat="48.88865" lon="2.33807">
        <ele>95.9</ele>
        <time>2026-01-22T14:38:46Z</time>
      </trkpt>
      <trkpt lat="48.88871" lon="2.33804">
        <ele>95.2</ele>
        <time>2026-01-22T14:38:51Z</time>
      </trkpt>
      <trkpt lat="48.88875" lon="2.33802">
        <ele>94.9</ele>
        <time>2026-01-22T14:38:59Z</time>
      </trkpt>
      <trkpt lat="48.88882" lon="2.33796">
        <ele>92.8</ele>
        <time>2026-01-22T14:39:20Z</time>
      </trkpt>
      <trkpt lat="48.88885" lon="2.33804">
        <ele>90.7</ele>
        <time>2026-01-22T14:39:31Z</time>
      </trkpt>
      <trkpt lat="48.88886" lon="2.33811">
        <ele>91.9</ele>
        <time>2026-01-22T14:39:34Z</time>
      </trkpt>
      <trkpt lat="48.8889" lon="2.33813">
        <ele>93.1</ele>
        <time>2026-01-22T14:39:41Z</time>
      </trkpt>
      <trkpt lat="48.88898" lon="2.33808">
        <ele>93.9</ele>
        <time>2026-01-22T14:39:52Z</time>
      </trkpt>
      <trkpt lat="48.88904" lon="2.33806">
        <ele>95.1</ele>
        <time>2026-01-22T14:39:55Z</time>
      </trkpt>
      <trkpt lat="48.88908" lon="2.33804">
        <ele>95.5</ele>
        <time>2026-01-22T14:39:59Z</time>
      </trkpt>
      <trkpt lat="48.88913" lon="2.33804">
        <ele>95.5</ele>
        <time>2026-01-22T14:40:06Z</time>
      </trkpt>
      <trkpt lat="48.88918" lon="2.33807">
        <ele>95.5</ele>
        <time>2026-01-22T14:40:11Z</time>
      </trkpt>
      <trkpt lat="48.88923" lon="2.33809">
        <ele>95.7</ele>
        <time>2026-01-22T14:40:16Z</time>
      </trkpt>
      <trkpt lat="48.88928" lon="2.33812">
        <ele>95.9</ele>
        <time>2026-01-22T14:40:20Z</time>
      </trkpt>
      <trkpt lat="48.88933" lon="2.33814">
        <ele>94.9</ele>
        <time>2026-01-22T14:40:24Z</time>
      </trkpt>
      <trkpt lat="48.88937" lon="2.33816">
        <ele>93.8</ele>
        <time>2026-01-22T14:40:29Z</time>
      </trkpt>
      <trkpt lat="48.88942" lon="2.33818">
        <ele>92.7</ele>
        <time>2026-01-22T14:40:34Z</time>
      </trkpt>
      <trkpt lat="48.88947" lon="2.33822">
        <ele>92.1</ele>
        <time>2026-01-22T14:40:39Z</time>
      </trkpt>
      <trkpt lat="48.88951" lon="2.33826">
        <ele>92.1</ele>
        <time>2026-01-22T14:40:42Z</time>
      </trkpt>
      <trkpt lat="48.88952" lon="2.33833">
        <ele>91.9</ele>
        <time>2026-01-22T14:40:45Z</time>
      </trkpt>
      <trkpt lat="48.88952" lon="2.33842">
        <ele>91.6</ele>
        <time>2026-01-22T14:40:48Z</time>
      </trkpt>
      <trkpt lat="48.88952" lon="2.33849">
        <ele>91.7</ele>
        <time>2026-01-22T14:40:50Z</time>
      </trkpt>
      <trkpt lat="48.8895" lon="2.33857">
        <ele>90.9</ele>
        <time>2026-01-22T14:40:54Z</time>
      </trkpt>
      <trkpt lat="48.88951" lon="2.33864">
        <ele>90.4</ele>
        <time>2026-01-22T14:41:00Z</time>
      </trkpt>
      <trkpt lat="48.88955" lon="2.33866">
        <ele>91</ele>
        <time>2026-01-22T14:41:05Z</time>
      </trkpt>
      <trkpt lat="48.8896" lon="2.33866">
        <ele>91.4</ele>
        <time>2026-01-22T14:41:10Z</time>
      </trkpt>
      <trkpt lat="48.88965" lon="2.33863">
        <ele>91.8</ele>
        <time>2026-01-22T14:41:13Z</time>
      </trkpt>
      <trkpt lat="48.8897" lon="2.3386">
        <ele>92.5</ele>
        <time>2026-01-22T14:41:18Z</time>
      </trkpt>
      <trkpt lat="48.88974" lon="2.33856">
        <ele>92.8</ele>
        <time>2026-01-22T14:41:31Z</time>
      </trkpt>
      <trkpt lat="48.88979" lon="2.33856">
        <ele>91.9</ele>
        <time>2026-01-22T14:41:38Z</time>
      </trkpt>
      <trkpt lat="48.88984" lon="2.33858">
        <ele>87.1</ele>
        <time>2026-01-22T14:42:07Z</time>
      </trkpt>
      <trkpt lat="48.88989" lon="2.33858">
        <ele>83.6</ele>
        <time>2026-01-22T14:42:24Z</time>
      </trkpt>
      <trkpt lat="48.88994" lon="2.33858">
        <ele>78.4</ele>
        <time>2026-01-22T14:42:35Z</time>
      </trkpt>
      <trkpt lat="48.88993" lon="2.33877">
        <ele>77.6</ele>
        <time>2026-01-22T14:42:52Z</time>
      </trkpt>
      <trkpt lat="48.88995" lon="2.33869">
        <ele>73.3</ele>
        <time>2026-01-22T14:43:32Z</time>
      </trkpt>
    </trkseg>
  </trk>
</gpx>